[[{"header":{"parameterUnit":"m.s-1","parameterCategory":1,"la1":30.6,"la2":29.2853,"lo1":-89.7004,"lo2":-87.6739,"dx":0.0162,"dy":0.0183,"nx":112,"ny":82,"refTime":"2022-12-04T06:00:00:Z","depth":0,"parameterNumber":2,"parameterNumberName":"U-component_of_WINDS"},"data":[0.0,0.0,0.0,0.0,0.0,0.0,0.0,0.0,0.0,0.0,0.0,0.0,0.0,0.0,0.0,0.0,0.0,0.0,0.0,0.0,0.0,0.0,0.0,0.0,0.0,0.0,0.0,0.0,0.0,0.0,0.0,0.0,0.0,0.0,0.0,0.0,0.0,0.0,0.0,0.0,0.0,0.0,0.0,0.0,0.0,0.0,0.0,0.0,0.0,0.0,0.0,0.0,0.0,0.0,0.0,0.0,0.0,0.0,0.0,0.0,0.0,0.0,0.0,0.0,0.0,0.0,0.0,0.0,0.0,0.0,0.0,0.0,0.0,0.0,0.0,0.0,0.0,0.0,0.0,0.0,0.0,0.0,0.0,0.0,0.0,0.0,0.0,0.0,0.0,0.0,-0.743,-0.7371,-0.6948,-0.6613,-0.6508,-0.6647,-0.6417,-0.5671,0.0,0.0,0.0,0.0,0.0,0.0,0.0,0.0,0.0,0.0,0.0,0.0,0.0,0.0,0.0,0.0,0.0,0.0,0.0,0.0,0.0,0.0,0.0,0.0,0.0,0.0,0.0,0.0,0.0,0.0,0.0,0.0,0.0,0.0,0.0,0.0,0.0,0.0,0.0,0.0,0.0,0.0,0.0,0.0,0.0,0.0,0.0,0.0,0.0,0.0,0.0,0.0,0.0,0.0,0.0,0.0,0.0,0.0,0.0,0.0,0.0,0.0,0.0,0.0,0.0,0.0,0.0,0.0,0.0,0.0,0.0,0.0,0.0,0.0,0.0,0.0,0.0,0.0,0.0,0.0,0.0,0.0,0.0,0.0,0.0,0.0,0.0,0.0,0.0,0.0,0.0,0.0,0.0,0.0,0.0,0.0,0.0,0.0,0.0,0.0,0.0,0.0,0.0,0.0,-0.7373,-0.7285,-0.7208,-0.7056,-0.6678,-0.6807,-0.6573,-0.5817,0.0,0.0,0.0,0.0,0.0,0.0,0.0,0.0,0.0,0.0,0.0,0.0,0.0,0.0,0.0,0.0,0.0,0.0,0.0,0.0,0.0,0.0,0.0,0.0,0.0,0.0,0.0,0.0,0.0,0.0,0.0,0.0,0.0,0.0,0.0,0.0,0.0,0.0,0.0,0.0,0.0,0.0,0.0,0.0,0.0,0.0,0.0,0.0,0.0,0.0,0.0,0.0,0.0,0.0,0.0,0.0,0.0,0.0,0.0,0.0,0.0,0.0,0.0,0.0,0.0,0.0,0.0,0.0,0.0,0.0,0.0,0.0,0.0,0.0,0.0,0.0,0.0,0.0,0.0,0.0,0.0,0.0,0.0,0.0,0.0,0.0,0.0,0.0,0.0,0.0,0.0,0.0,0.0,0.0,0.0,0.0,0.0,0.0,0.0,0.0,0.0,0.0,0.0,-0.7827,-0.7544,-0.7098,-0.709,-0.6989,-0.659,-0.6793,-0.6573,-0.5739,-0.6061,0.0,0.0,0.0,0.0,0.0,0.0,0.0,0.0,0.0,0.0,0.0,0.0,0.0,0.0,0.0,0.0,0.0,0.0,0.0,0.0,0.0,0.0,0.0,0.0,0.0,0.0,0.0,0.0,0.0,0.0,0.0,0.0,0.0,0.0,0.0,0.0,0.0,0.0,0.0,0.0,0.0,0.0,0.0,0.0,0.0,0.0,0.0,0.0,0.0,0.0,0.0,0.0,0.0,0.0,0.0,0.0,0.0,0.0,0.0,0.0,0.0,0.0,0.0,0.0,0.0,0.0,0.0,0.0,0.0,0.0,0.0,0.0,0.0,0.0,0.0,0.0,0.0,0.0,0.0,0.0,0.0,0.0,0.0,0.0,0.0,0.0,0.0,0.0,0.0,0.0,0.0,0.0,0.0,0.0,0.0,0.0,0.0,0.0,0.0,0.0,0.0,0.0,-0.7801,-0.7812,-0.7189,-0.718,-0.7102,-0.6697,-0.6803,-0.6597,-0.5698,-0.6207,0.0,0.0,0.0,0.0,0.0,0.0,0.0,0.0,0.0,0.0,0.0,0.0,0.0,0.0,0.0,0.0,0.0,0.0,0.0,0.0,0.0,0.0,0.0,0.0,0.0,0.0,0.0,0.0,0.0,0.0,0.0,0.0,0.0,0.0,0.0,0.0,0.0,0.0,0.0,0.0,0.0,0.0,0.0,0.0,0.0,0.0,0.0,0.0,0.0,0.0,0.0,0.0,0.0,0.0,0.0,0.0,0.0,0.0,0.0,0.0,0.0,0.0,0.0,0.0,0.0,0.0,0.0,0.0,0.0,0.0,0.0,0.0,0.0,0.0,0.0,0.0,0.0,0.0,0.0,0.0,0.0,0.0,0.0,0.0,0.0,0.0,0.0,0.0,0.0,0.0,0.0,0.0,0.0,0.0,0.0,0.0,0.0,0.0,0.0,0.0,0.0,0.0,-0.8,-0.8388,-0.794,-0.7665,-0.7432,-0.7105,-0.7039,-0.6742,-0.5844,-0.6207,0.0,0.0,0.0,0.0,0.0,0.0,0.0,0.0,0.0,0.0,0.0,0.0,0.0,0.0,0.0,0.0,0.0,0.0,0.0,0.0,0.0,0.0,0.0,0.0,0.0,0.0,0.0,0.0,0.0,0.0,0.0,0.0,0.0,0.0,0.0,0.0,0.0,0.0,0.0,0.0,0.0,0.0,0.0,0.0,0.0,0.0,0.0,0.0,0.0,0.0,0.0,0.0,0.0,0.0,0.0,0.0,0.0,0.0,0.0,0.0,0.0,0.0,0.0,0.0,0.0,0.0,0.0,0.0,0.0,0.0,0.0,0.0,0.0,0.0,0.0,0.0,0.0,0.0,0.0,0.0,0.0,0.0,0.0,0.0,0.0,0.0,0.0,0.0,0.0,0.0,0.0,0.0,0.0,0.0,0.0,0.0,0.0,0.0,0.0,0.0,0.0,0.0,-0.7898,-0.8115,-0.7883,-0.7804,-0.7712,-0.7296,-0.7407,-0.7066,-0.6219,0.0,0.0,0.0,0.0,0.0,0.0,0.0,0.0,0.0,0.0,0.0,0.0,0.0,0.0,0.0,0.0,0.0,0.0,0.0,0.0,0.0,0.0,0.0,0.0,0.0,0.0,0.0,0.0,0.0,0.0,0.0,0.0,0.0,0.0,0.0,0.0,0.0,0.0,0.0,0.0,0.0,0.0,0.0,0.0,0.0,0.0,0.0,0.0,0.0,0.0,0.0,0.0,0.0,0.0,0.0,0.0,0.0,0.0,0.0,0.0,0.0,0.0,0.0,0.0,0.0,0.0,0.0,0.0,0.0,0.0,0.0,0.0,0.0,0.0,0.0,0.0,0.0,0.0,0.0,0.0,0.0,0.0,0.0,0.0,0.0,0.0,0.0,0.0,0.0,0.0,0.0,0.0,0.0,0.0,0.0,0.0,0.0,0.0,0.0,0.0,0.0,0.0,-0.746,-0.7777,-0.8042,-0.8018,-0.8048,-0.7878,-0.7541,-0.7624,-0.7425,-0.6451,0.0,0.0,0.0,0.0,0.0,0.0,0.0,0.0,0.0,0.0,0.0,0.0,0.0,0.0,0.0,0.0,0.0,0.0,0.0,0.0,0.0,0.0,0.0,0.0,0.0,0.0,0.0,0.0,0.0,0.0,0.0,0.0,0.0,0.0,0.0,0.0,0.0,0.0,0.0,0.0,0.0,0.0,0.0,0.0,0.0,0.0,0.0,0.0,0.0,0.0,0.0,0.0,0.0,0.0,0.0,0.0,0.0,0.0,0.0,0.0,0.0,0.0,0.0,0.0,0.0,0.0,0.0,0.0,0.0,0.0,0.0,0.0,0.0,0.0,0.0,0.0,0.0,0.0,0.0,0.0,0.0,0.0,0.0,0.0,0.0,0.0,0.0,0.0,0.0,0.0,0.0,0.0,0.0,0.0,0.0,0.0,0.0,0.0,0.0,0.0,0.0,0.0,-0.7169,-0.774,-0.8361,-0.8548,-0.838,-0.8043,-0.7617,-0.7786,-0.7545,0.0,0.0,0.0,0.0,0.0,0.0,0.0,0.0,0.0,0.0,0.0,0.0,0.0,0.0,0.0,0.0,0.0,0.0,0.0,0.0,0.0,0.0,0.0,0.0,0.0,0.0,0.0,0.0,0.0,0.0,0.0,0.0,0.0,0.0,0.0,0.0,0.0,0.0,0.0,0.0,0.0,0.0,0.0,0.0,0.0,0.0,0.0,0.0,0.0,0.0,0.0,0.0,0.0,0.0,0.0,0.0,0.0,0.0,0.0,0.0,0.0,0.0,0.0,0.0,0.0,0.0,0.0,0.0,0.0,0.0,0.0,0.0,0.0,0.0,0.0,0.0,0.0,0.0,0.0,0.0,0.0,0.0,0.0,0.0,0.0,0.0,0.0,0.0,0.0,0.0,0.0,0.0,0.0,0.0,0.0,0.0,0.0,0.0,0.0,0.0,0.0,0.0,0.0,-0.7454,-0.8004,-0.8372,-0.8123,-0.813,-0.8093,-0.7869,-0.7851,-0.7682,-0.7239,0.0,0.0,0.0,0.0,0.0,0.0,0.0,0.0,0.0,0.0,0.0,0.0,0.0,0.0,0.0,0.0,0.0,0.0,0.0,0.0,0.0,0.0,0.0,0.0,0.0,0.0,0.0,0.0,0.0,0.0,0.0,0.0,0.0,0.0,0.0,0.0,0.0,0.0,0.0,0.0,0.0,0.0,0.0,0.0,0.0,0.0,0.0,0.0,0.0,0.0,0.0,0.0,0.0,0.0,0.0,0.0,0.0,0.0,0.0,0.0,0.0,0.0,0.0,0.0,0.0,0.0,0.0,0.0,0.0,0.0,0.0,0.0,0.0,0.0,0.0,0.0,0.0,0.0,0.0,0.0,0.0,0.0,0.0,0.0,0.0,0.0,0.0,0.0,0.0,0.0,0.0,0.0,0.0,0.0,0.0,0.0,0.0,0.0,0.0,0.0,0.0,0.0,-0.763,-0.8101,-0.8356,-0.8056,-0.8138,-0.8113,-0.7768,-0.7879,-0.7581,-0.6892,0.0,0.0,0.0,0.0,0.0,0.0,0.0,0.0,0.0,0.0,0.0,0.0,0.0,0.0,0.0,0.0,0.0,0.0,0.0,0.0,0.0,0.0,0.0,0.0,0.0,0.0,0.0,0.0,0.0,0.0,0.0,0.0,0.0,0.0,0.0,0.0,0.0,0.0,0.0,0.0,0.0,0.0,0.0,0.0,0.0,0.0,0.0,0.0,0.0,0.0,0.0,0.0,0.0,0.0,0.0,0.0,0.0,0.0,0.0,0.0,0.0,0.0,0.0,0.0,0.0,0.0,0.0,0.0,0.0,0.0,0.0,0.0,0.0,0.0,0.0,0.0,0.0,0.0,0.0,0.0,0.0,0.0,0.0,0.0,0.0,0.0,0.0,0.0,0.0,0.0,0.0,0.0,0.0,0.0,0.0,0.0,0.0,0.0,0.0,0.0,0.0,0.0,-0.7858,-0.8146,-0.8332,-0.8208,-0.8236,-0.807,-0.7549,-0.7714,-0.7256,-0.5939,0.0,0.0,0.0,0.0,0.0,0.0,0.0,0.0,0.0,0.0,0.0,0.0,0.0,0.0,0.0,0.0,0.0,0.0,0.0,0.0,0.0,0.0,0.0,0.0,0.0,0.0,0.0,0.0,0.0,0.0,0.0,0.0,0.0,0.0,0.0,0.0,0.0,0.0,0.0,0.0,0.0,0.0,0.0,0.0,0.0,0.0,0.0,0.0,0.0,0.0,0.0,0.0,0.0,0.0,0.0,0.0,0.0,0.0,0.0,0.0,-1.3923,-1.341,0.0,0.0,0.0,0.0,0.0,0.0,0.0,0.0,0.0,0.0,0.0,0.0,0.0,0.0,0.0,0.0,0.0,0.0,0.0,0.0,0.0,0.0,0.0,0.0,0.0,0.0,0.0,0.0,0.0,0.0,0.0,0.0,0.0,0.0,0.0,0.0,0.0,0.0,0.0,0.0,-0.8418,-0.852,-0.8603,-0.8419,-0.8341,-0.8144,-0.787,-0.7266,-0.667,-0.6173,-0.4585,0.0,0.0,0.0,0.0,0.0,0.0,0.0,0.0,0.0,0.0,0.0,0.0,0.0,0.0,0.0,0.0,0.0,0.0,0.0,0.0,0.0,0.0,0.0,0.0,0.0,0.0,0.0,0.0,0.0,0.0,0.0,0.0,0.0,0.0,0.0,0.0,0.0,0.0,0.0,0.0,0.0,0.0,0.0,0.0,0.0,0.0,0.0,0.0,0.0,0.0,0.0,0.0,0.0,0.0,0.0,0.0,0.0,0.0,0.0,-1.4037,-1.4026,0.0,0.0,0.0,0.0,0.0,0.0,0.0,0.0,0.0,0.0,0.0,0.0,0.0,0.0,0.0,0.0,0.0,0.0,0.0,0.0,0.0,0.0,0.0,0.0,0.0,0.0,0.0,0.0,0.0,0.0,0.0,0.0,0.0,0.0,0.0,0.0,0.0,0.0,0.0,0.0,-0.871,-0.8291,-0.7933,-0.7845,-0.716,-0.6638,-0.6455,-0.5937,-0.5394,-0.4728,-0.3697,0.0,0.0,0.0,0.0,0.0,0.0,0.0,0.0,0.0,0.0,0.0,0.0,0.0,0.0,0.0,0.0,0.0,0.0,0.0,0.0,0.0,0.0,0.0,0.0,0.0,0.0,0.0,0.0,0.0,0.0,0.0,0.0,0.0,0.0,0.0,0.0,0.0,0.0,0.0,0.0,0.0,0.0,0.0,0.0,0.0,0.0,0.0,0.0,0.0,0.0,0.0,0.0,0.0,-1.485,-1.4576,-1.4194,-1.3894,-1.3662,-1.3413,-1.3972,-1.4492,-1.4911,-1.4187,0.0,0.0,0.0,0.0,0.0,0.0,0.0,0.0,0.0,0.0,0.0,0.0,0.0,0.0,0.0,0.0,0.0,0.0,0.0,0.0,0.0,0.0,-0.8399,-0.804,-0.8142,-0.8215,-0.7594,0.0,0.0,0.0,0.0,0.0,0.0,0.0,0.0,0.0,0.0,0.0,-0.8619,-0.7601,-0.6923,-0.6948,-0.5931,-0.5084,-0.499,-0.4663,-0.3992,-0.308,-0.2964,-0.2456,0.0,0.0,0.0,0.0,0.0,0.0,0.0,0.0,0.0,0.0,0.0,0.0,0.0,0.0,0.0,0.0,0.0,0.0,0.0,0.0,0.0,0.0,0.0,0.0,0.0,0.0,0.0,0.0,0.0,0.0,0.0,0.0,-1.4255,-1.4587,0.0,0.0,0.0,0.0,0.0,0.0,0.0,0.0,0.0,0.0,0.0,0.0,0.0,-1.5004,-1.4523,-1.4904,-1.47,-1.3844,-1.4111,-1.4158,-1.4074,-1.4074,-1.4011,-1.3968,-1.4054,0.0,-1.3441,-1.3579,0.0,0.0,0.0,0.0,0.0,0.0,0.0,0.0,0.0,0.0,0.0,0.0,0.0,0.0,0.0,0.0,0.0,0.0,0.0,0.0,0.0,0.0,-0.8379,-0.8495,-0.8644,-0.8686,-0.8442,-0.8174,-0.7971,-0.7947,-0.8093,-0.8333,0.0,0.0,0.0,0.0,0.0,0.0,-0.7681,-0.6715,-0.6117,-0.6324,-0.5826,-0.5483,-0.5485,-0.4432,-0.3543,-0.3198,-0.2279,-0.1768,-0.156,-0.1545,0.0,0.0,0.0,0.0,0.0,0.0,0.0,0.0,0.0,0.0,0.0,0.0,0.0,0.0,0.0,0.0,0.0,0.0,0.0,0.0,0.0,0.0,0.0,0.0,0.0,0.0,0.0,0.0,0.0,-1.3772,-1.3661,-1.5008,-1.4971,-1.5098,0.0,0.0,0.0,0.0,0.0,0.0,0.0,0.0,0.0,-1.5227,-1.4706,-1.4403,-1.4328,-1.4636,-1.4461,-1.3901,-1.4362,-1.4409,-1.4095,-1.4255,-1.4242,-1.4088,-1.4088,-1.3941,-1.3769,-1.4072,-1.4388,-1.4667,0.0,0.0,0.0,0.0,-1.3719,-1.3051,-1.3341,-1.3196,-1.2905,-1.2799,0.0,0.0,0.0,0.0,0.0,0.0,0.0,-0.938,-0.9526,-0.8813,-0.8207,-0.8499,-0.8694,-0.8709,-0.8547,-0.8577,-0.8564,-0.8361,-0.8384,-0.8527,-0.906,-0.9336,0.0,0.0,0.0,-0.7681,-0.697,-0.5831,-0.5214,-0.532,-0.4442,-0.3841,-0.3634,-0.2964,-0.2427,-0.2321,-0.1923,-0.1607,-0.1573,-0.1592,-0.156,0.0,0.0,0.0,0.0,0.0,0.0,0.0,0.0,0.0,0.0,0.0,0.0,0.0,0.0,0.0,0.0,0.0,0.0,0.0,0.0,0.0,0.0,0.0,0.0,0.0,0.0,0.0,0.0,-1.4328,-1.415,-1.5799,-1.5662,-1.5717,0.0,0.0,0.0,0.0,0.0,0.0,-1.5522,-1.4493,-1.4259,-1.4885,-1.4186,-1.4008,-1.4309,-1.4529,-1.4482,-1.4202,-1.4643,-1.4583,-1.4095,-1.4309,-1.4295,-1.4088,-1.4088,-1.4041,-1.4045,-1.4468,-1.4844,-1.5145,-1.4806,-1.441,-1.4104,-1.4185,-1.3663,-1.3064,-1.3599,-1.3471,-1.3205,-1.336,-1.3418,-1.3335,-1.308,0.0,0.0,0.0,0.0,-0.9292,-0.9607,-0.9013,-0.8361,-0.8637,-0.8709,-0.8706,-0.8249,-0.8313,-0.8498,-0.8559,-0.8442,-0.8525,-0.9299,-0.901,0.0,-0.8124,-0.7585,-0.6911,-0.5979,-0.4888,-0.4234,-0.403,-0.3088,-0.2345,-0.2131,-0.1896,-0.1663,-0.1641,-0.1654,-0.1642,-0.1596,-0.1631,-0.1615,-0.1539,0.0,0.0,0.0,0.0,0.0,0.0,0.0,0.0,0.0,0.0,0.0,0.0,0.0,0.0,0.0,0.0,0.0,0.0,0.0,0.0,0.0,0.0,0.0,0.0,0.0,0.0,0.0,0.0,0.0,-1.7446,-1.644,0.0,0.0,0.0,0.0,-1.6563,-1.5586,-1.4993,-1.5158,-1.4149,-1.3868,-1.4542,-1.4476,-1.4623,-1.4917,-1.4937,-1.4796,-1.4496,-1.4529,-1.4382,-1.4088,-1.4102,-1.4102,-1.4088,-1.4088,-1.3928,-1.3687,-1.3955,-1.4386,-1.4845,-1.4831,-1.4547,-1.4308,-1.4605,-1.4237,-1.3641,-1.3921,-1.4021,-1.4021,-1.4041,-1.3451,-1.2601,-1.1649,-1.124,0.0,0.0,-0.9981,-0.9643,-0.9246,-0.9056,-0.9047,-0.9068,-0.8885,-0.8509,-0.7757,-0.7095,-0.7044,-0.8467,-0.8034,-0.7904,-0.9224,0.0,-0.6921,-0.7822,-0.6519,-0.516,-0.466,-0.3677,-0.2978,-0.2663,-0.2344,-0.2131,-0.2131,-0.1809,-0.1701,-0.17,-0.1676,-0.1661,-0.1658,-0.1633,-0.1603,-0.157,-0.1568,0.0,0.0,0.0,0.0,0.0,0.0,0.0,0.0,0.0,0.0,0.0,0.0,0.0,0.0,0.0,0.0,0.0,0.0,0.0,0.0,0.0,0.0,0.0,0.0,0.0,0.0,0.0,0.0,-1.6617,-1.6447,0.0,-1.6745,-1.592,-1.5534,-1.6014,-1.4974,-1.4579,-1.5168,-1.4535,-1.4389,-1.4796,-1.4803,-1.4856,-1.4963,-1.515,-1.5097,-1.481,-1.5184,-1.501,-1.4369,-1.4563,-1.4442,-1.4088,-1.4088,-1.4028,-1.3935,-1.4041,-1.4074,-1.4083,-1.4475,-1.4558,-1.4489,-1.4805,-1.4749,-1.4509,-1.4616,-1.4649,-1.4562,-1.3831,-1.3383,-1.2845,-1.124,-1.0741,-1.0442,-0.9688,-0.9404,-0.9296,-0.9157,-0.9096,-0.9096,-0.9096,-0.8592,-0.7959,-0.7573,-0.6985,-0.6684,-0.703,-0.6509,-0.6349,-0.7412,-0.6851,-0.6305,-0.632,-0.5413,-0.4475,-0.3753,-0.313,-0.2613,-0.2311,-0.2204,-0.2093,-0.1873,-0.1854,-0.1733,-0.1733,-0.1724,-0.1702,-0.1664,-0.1669,-0.165,-0.1601,-0.16,-0.159,0.0,0.0,0.0,0.0,0.0,0.0,0.0,0.0,0.0,0.0,0.0,0.0,0.0,0.0,0.0,0.0,0.0,0.0,0.0,0.0,0.0,0.0,0.0,0.0,0.0,-1.6243,-1.618,-1.5927,-1.5831,-1.5839,-1.587,-1.532,-1.508,-1.529,-1.4696,-1.4511,-1.5095,-1.4783,-1.4791,-1.5097,-1.511,-1.5157,-1.5257,-1.5545,-1.5545,-1.5264,-1.5745,-1.5625,-1.497,-1.5164,-1.5044,-1.4676,-1.4676,-1.4676,-1.4669,-1.4569,-1.4416,-1.4242,-1.4335,-1.4376,-1.4396,-1.4596,-1.4669,-1.4683,-1.4783,-1.4816,-1.4645,-1.3357,-1.2927,-1.2564,-1.0653,-1.0014,-0.9939,-0.9353,-0.923,-0.9291,-0.9348,-0.9119,-0.887,-0.887,-0.8035,-0.7158,-0.6751,-0.6259,-0.5838,-0.5314,-0.5262,-0.551,-0.6405,-0.5887,-0.5305,-0.5094,-0.4539,-0.3783,-0.2863,-0.2648,-0.2332,-0.2146,-0.2037,-0.2037,-0.181,-0.181,-0.1797,-0.1767,-0.1774,-0.1754,-0.1694,-0.171,-0.1697,-0.1647,-0.1227,-0.1118,-0.111,0.0,0.0,0.0,0.0,0.0,0.0,0.0,0.0,0.0,0.0,0.0,0.0,0.0,0.0,0.0,0.0,0.0,0.0,0.0,0.0,0.0,0.0,0.0,-1.7539,-1.6524,-1.5903,-1.5497,-1.4652,-1.4326,-1.4772,-1.471,-1.4603,-1.4624,-1.4903,-1.5057,-1.4964,-1.4897,-1.5082,-1.5404,-1.5424,-1.5565,-1.5852,-1.6146,-1.6146,-1.5858,-1.6152,-1.6132,-1.5845,-1.5845,-1.5838,-1.5832,-1.5832,-1.5832,-1.5805,-1.5524,-1.5411,-1.5324,-1.4462,-1.4122,-1.4115,-1.4122,-1.4122,-1.4155,-1.4449,-1.4543,-1.4239,-1.2598,-1.2043,-1.1681,-0.9673,-0.9125,-0.9165,-0.9332,-0.9506,-0.9685,-0.9851,-0.9198,-0.8374,-0.8374,-0.7217,-0.5951,-0.5208,-0.4788,-0.4369,-0.3524,-0.4264,-0.5318,-0.6368,-0.4788,-0.3646,-0.4461,-0.3718,0.0,-0.2241,-0.2247,-0.2035,-0.1838,-0.1842,-0.1842,-0.1842,-0.1896,-0.1892,-0.1802,-0.1824,-0.1813,-0.1752,-0.175,-0.1735,-0.1597,-0.0523,-0.0,-0.0101,0.0,0.0,0.0,0.0,0.0,0.0,0.0,0.0,0.0,0.0,0.0,0.0,0.0,0.0,0.0,0.0,0.0,0.0,0.0,0.0,0.0,-2.0081,-1.8895,-1.6867,-1.6641,-1.6196,-1.4942,-1.458,-1.4438,-1.4655,-1.4547,-1.4627,-1.4925,-1.466,-1.4741,-1.5408,-1.5103,-1.5302,-1.6005,-1.6032,-1.6172,-1.646,-1.6547,-1.6547,-1.6466,-1.6547,-1.6433,-1.6152,-1.6152,-1.6032,-1.5832,-1.5832,-1.5832,-1.5818,-1.5745,-1.5712,-1.5665,-1.5211,-1.4903,-1.475,-1.4963,-1.4903,-1.4763,-1.5057,-1.5157,-1.4832,-1.3119,-1.2651,-1.2309,-1.0255,-0.9762,-0.988,-0.9925,-0.9977,-1.0026,-1.0075,-0.9283,-0.8374,-0.8374,-0.6855,-0.5304,-0.5088,-0.4487,-0.3759,-0.354,-0.3797,-0.4131,-0.4353,-0.3689,-0.3277,-0.344,-0.2925,-0.2501,-0.2284,-0.2078,-0.1981,-0.1872,-0.1873,-0.1873,-0.1873,-0.1889,-0.1878,-0.1831,-0.1836,-0.1813,-0.1752,-0.175,-0.1401,-0.0522,0.0631,0.1151,0.0,0.0,0.0,0.0,0.0,0.0,0.0,0.0,0.0,0.0,0.0,0.0,0.0,0.0,0.0,0.0,0.0,0.0,0.0,0.0,0.0,0.0,-1.9878,-1.8742,-1.7111,-1.6902,-1.6603,-1.5578,-1.5383,-1.5211,-1.5072,-1.5144,-1.512,-1.5032,-1.4968,-1.5219,-1.5711,-1.5638,-1.5892,-1.6642,-1.6491,-1.6632,-1.6907,-1.6935,-1.6894,-1.6894,-1.7014,-1.6987,-1.682,-1.682,-1.6727,-1.656,-1.656,-1.656,-1.6553,-1.6433,-1.6386,-1.6326,0.0,0.0,0.0,0.0,-1.5471,-1.5371,-1.5665,-1.5475,-1.4841,-1.3445,-1.2725,-1.2131,-1.051,-1.0075,-1.016,-1.016,-0.9894,-0.9527,-0.9527,-0.8401,-0.7158,-0.7158,-0.5796,-0.4531,-0.4453,-0.4047,-0.3632,-0.3544,-0.346,0.0,-0.3282,-0.3161,-0.3065,-0.2883,-0.2551,-0.2214,-0.2112,-0.2,-0.1891,-0.1904,-0.1904,-0.1904,-0.1904,-0.1927,0.0,0.0,0.0,-0.1636,-0.113,-0.0556,0.0,0.0,0.0,0.2441,0.2381,0.2719,0.0,0.0,0.253,0.2339,0.0,0.0,0.0,0.0,0.0,0.0,0.0,0.0,0.0,0.0,0.0,0.0,0.0,0.0,0.0,0.0,-1.9603,-1.9081,-1.8096,-1.7636,-1.7204,-1.6757,-1.6555,-1.6294,-1.5819,-1.6062,-1.5895,-1.5043,-1.55,-1.5893,-1.6063,-1.6359,0.0,0.0,0.0,-1.6975,-1.7223,-1.7279,-1.7304,-1.7304,-1.7566,-1.7582,-1.7582,-1.7582,-1.7582,-1.7582,-1.7582,-1.7582,-1.7562,-1.7301,-1.7201,-1.7114,-1.6226,-1.5879,-1.5872,-1.5838,-1.5832,-1.5872,-1.6166,0.0,0.0,-1.3672,-1.2643,-1.1534,-1.0502,-1.0205,-1.0221,-1.0221,-0.9477,-0.872,-0.872,-0.7065,-0.5371,-0.5371,-0.4487,-0.3613,-0.3666,-0.3684,-0.3589,-0.3405,-0.3302,-0.3187,-0.2832,-0.2947,-0.2958,-0.2519,-0.2265,-0.2143,-0.1928,-0.1913,-0.191,-0.1934,-0.1937,0.0,-0.1937,-0.1984,-0.1979,-0.1896,-0.1817,-0.1212,0.0117,0.1369,0.2017,0.201,0.3077,0.365,0.3637,0.4571,0.4945,0.4766,0.2871,0.2457,0.0,0.0,0.0,0.0,0.0,0.0,0.0,0.0,0.0,0.0,0.0,0.0,0.0,0.0,0.0,-2.0134,-1.9594,-1.9235,-1.9377,-1.9211,-1.8455,-1.6865,-1.6928,-1.6884,-1.6188,-1.6126,-1.6098,-1.5771,-1.5669,-1.59,-1.6385,-1.6479,-1.684,-1.74,-1.7615,-1.7893,-1.8144,-1.8199,-1.8025,-1.783,-1.7884,0.0,-1.7582,-1.7582,-1.7582,-1.7582,-1.7582,-1.7582,-1.7582,-1.7522,-1.7502,-1.7408,-1.6533,-1.6186,-1.6159,-1.5919,-1.5832,-1.5872,-1.6166,-1.5575,-1.4424,-1.3672,-1.2744,-1.1737,-1.0695,-1.0477,0.0,-1.059,-0.9734,-0.8879,-0.8879,-0.7127,-0.5371,-0.5371,-0.4526,-0.3664,-0.3676,-0.3717,-0.3638,-0.3413,-0.3331,-0.324,-0.264,-0.2495,-0.2478,-0.2367,-0.2173,-0.2074,-0.1934,-0.1967,-0.1986,-0.1969,-0.1968,-0.1968,-0.1968,-0.1978,-0.1967,-0.1925,-0.0954,0.0235,0.1501,0.2635,0.327,0.307,0.4264,0.4864,0.4765,0.4976,0.5071,0.5053,0.4407,0.438,0.0,0.0,0.0,0.0,0.0,0.0,0.0,0.0,0.0,0.0,0.0,-2.223,-2.1342,0.0,-2.0081,-1.9749,-1.9586,-1.9499,-1.9796,-2.0081,-1.9929,-1.8883,-1.8843,-1.8605,-1.7607,-1.806,-1.7975,-1.6946,-1.7052,-1.7209,-1.7364,-1.7124,-1.7319,-1.7888,-1.8009,-1.8224,-1.8646,-1.8527,-1.8318,-1.822,-1.8016,-1.7911,-1.7799,-1.7687,-1.7582,-1.7582,-1.7582,-1.7582,-1.7582,-1.7582,-1.7582,-1.7542,-1.7101,-1.6927,-1.6907,-1.676,-1.6299,-1.591,-1.6049,-1.4956,-1.3424,-1.3021,-1.2181,-1.1199,-1.067,-1.0623,-1.0692,-1.0692,-0.9357,-0.8029,-0.8029,-0.6182,-0.4309,-0.4537,-0.4021,-0.3499,-0.3763,-0.3793,-0.3704,-0.3492,-0.3276,-0.3049,-0.256,-0.2304,-0.2178,-0.2194,-0.2115,-0.2015,-0.2,-0.2023,-0.2036,-0.2022,-0.1388,-0.1006,-0.0999,-0.0372,-0.0,-0.0,0.12,0.2252,0.2823,0.3966,0.461,0.4533,0.506,0.5353,0.5308,0.5265,0.5245,0.5243,0.5151,0.5084,0.0,0.0,0.0,0.0,0.0,0.0,0.0,-2.522,-2.4518,-2.4131,-2.3787,-2.298,-2.1156,-2.0694,-2.0341,-1.9581,-1.9646,-1.9889,-1.9996,-2.0659,-2.1112,-2.1138,-2.1029,-2.0449,-1.9226,-2.0107,-2.0071,-1.8411,-1.8627,-1.8645,-1.8449,-1.7864,-1.7782,-1.8291,-1.821,-1.843,-1.8966,-1.8743,-1.8527,-1.8534,-1.8331,-1.8122,-1.8122,-1.7799,-1.7687,-1.7687,-1.7582,-1.7582,-1.7582,-1.7582,-1.7582,-1.7582,-1.7582,-1.7582,-1.7582,-1.7582,-1.7041,-1.618,-1.5968,-1.446,-1.2738,-1.2521,-1.1664,-1.0692,-1.0692,-1.0692,-1.0692,-1.0692,-0.8913,-0.7143,-0.7168,-0.5217,-0.3334,-0.3692,-0.3508,-0.3443,-0.3849,-0.3869,-0.377,-0.357,-0.3332,-0.2961,-0.259,-0.2233,-0.2124,-0.2016,-0.2044,-0.2064,-0.2064,-0.181,-0.1682,-0.1935,-0.0386,0.0512,0.0379,0.1367,0.2092,0.2338,0.3286,0.3984,0.4215,0.5114,0.5661,0.5643,0.5571,0.5533,0.5533,0.5465,0.5433,0.5433,0.5433,0.5335,-2.7511,-2.6979,-2.6905,-2.7078,-2.6879,-2.6803,0.0,-2.683,-2.5881,-2.4793,-2.414,-2.346,-2.2555,-2.1139,-2.0238,-2.053,-2.0128,-2.0048,-2.0855,-2.1052,-2.1414,-2.2242,-2.2111,-2.158,-2.0519,-2.0869,-2.0913,-2.027,-1.9385,-1.8938,-1.8967,-1.8463,-1.8171,-1.8291,-1.8621,-1.8847,-1.9272,-1.9168,-1.9071,-1.8869,-1.8764,-1.8646,-1.8318,-1.8115,-1.7911,-1.7911,-1.7687,-1.7582,-1.7582,-1.7582,-1.7582,-1.7582,-1.7582,-1.7582,-1.7582,-1.7582,-1.7477,-1.7259,-1.6293,-1.4995,-1.3706,-1.2738,-1.1664,-1.0692,-1.0692,-1.0692,-1.0692,-1.0692,-0.8913,-0.7163,-0.7158,-0.515,-0.3345,-0.3745,-0.3567,-0.349,-0.3858,-0.3902,-0.3819,-0.3577,-0.3455,-0.3209,-0.259,-0.2523,-0.243,-0.2022,-0.2044,-0.2064,-0.2064,-0.1042,-0.0523,-0.1033,0.0773,0.192,0.1892,0.1987,0.2461,0.3568,0.3808,0.4393,0.5542,0.5652,0.5727,0.5645,0.5633,0.5629,0.5629,0.5618,0.5614,0.5614,0.5614,0.552,-2.8634,-2.849,-2.8598,-2.8497,-2.813,-2.7816,-2.8161,-2.7009,-2.5704,-2.524,-2.457,-2.3707,-2.262,-2.1647,-2.0963,-2.0818,-2.0599,-2.0673,-2.1167,-2.172,-2.221,-2.2606,-2.2977,-2.2705,-2.1592,-2.2276,-2.2467,-2.1655,-2.0793,-2.0329,-2.0215,-1.9043,-1.8558,-1.8792,-1.913,-1.9649,-2.0483,-1.9879,-1.9983,-2.0987,-2.0181,-1.9776,-1.9657,-1.9138,-1.852,-1.7799,-1.7687,-1.7582,-1.7582,-1.7582,-1.7582,-1.7582,-1.7582,-1.7582,-1.7582,-1.7582,-1.6717,-1.553,-1.4995,-1.3599,-1.2096,-1.1555,-1.1126,-1.0692,-1.0692,-1.0692,-1.0692,-1.0692,-0.8913,-0.7165,-0.7174,-0.5077,-0.316,-0.3688,-0.3505,-0.33,-0.3791,-0.3932,-0.3828,-0.3703,-0.3455,-0.3085,-0.2837,-0.2512,-0.2167,-0.2044,-0.2086,-0.1851,-0.0925,-0.0398,0.0399,0.1321,0.2621,0.35,0.3832,0.4154,0.4476,0.5053,0.5049,0.5282,0.5861,0.5861,0.5843,0.5804,0.5751,0.5725,0.5725,0.5669,0.5643,0.5643,0.5643,0.5604,-2.9799,-2.9753,-2.9788,-2.9607,-2.8936,-2.84,-2.8727,-2.7159,-2.5699,-2.5753,-2.5027,-2.4016,-2.2883,-2.2084,-2.1574,-2.1453,-2.1192,-2.1275,-2.2124,-2.2603,-2.2977,-2.3229,-2.3709,-2.3657,-2.2968,-2.3612,-2.3754,-2.2999,-2.2022,-2.1356,-2.1194,-1.9646,-1.8982,-1.9701,-1.9959,-2.0644,-2.1887,-2.1081,-2.1387,-2.2584,-2.1591,-2.1081,-2.0979,-2.0554,-1.9731,-1.8708,-1.8297,-1.8199,-1.8094,-1.7786,-1.7582,-1.7582,-1.7582,-1.7582,-1.7582,-1.7582,-1.6505,-1.4995,-1.4674,-1.3275,-1.1555,-1.1232,-1.0907,-1.0692,-1.0692,-1.0692,-1.0692,-1.0692,-0.8944,-0.7105,-0.7225,-0.5137,-0.3094,-0.3749,-0.355,-0.3332,-0.3826,-0.3951,-0.3951,-0.3951,-0.3579,-0.3213,-0.2978,-0.264,-0.2169,-0.1553,-0.159,-0.1211,-0.0134,0.0403,0.1478,0.3628,0.3848,0.4187,0.5031,0.5467,0.5763,0.5923,0.5916,0.5916,0.5916,0.5916,0.5916,0.5916,0.5853,0.5818,0.5818,0.5751,0.5718,0.5718,0.5718,0.5718,-3.1586,-3.0864,-3.0223,-3.0407,-2.9385,-2.8527,-2.929,-2.768,-2.6067,-2.6517,-2.5532,-2.4497,-2.3804,-2.2537,-2.1957,-2.2968,-2.1954,-2.1786,-2.3902,-2.3536,-2.3445,-2.4339,-2.4333,-2.4378,-2.4798,-2.4594,-2.4444,-2.4454,-2.2765,-2.1671,-2.176,-1.9964,-1.9646,-2.1106,-2.1131,-2.181,-2.3185,-2.3194,-2.3094,-2.2894,-2.2894,-2.2685,-2.2383,-2.2181,-2.187,-2.155,-2.0135,-1.9524,-1.942,-1.8094,-1.7582,-1.7582,-1.7582,-1.7582,-1.7582,-1.7582,-1.7582,-1.7364,-1.618,-1.4995,-1.3809,-1.2738,-1.1555,-1.0692,-1.0692,-1.0692,-1.0692,-1.0692,-0.9018,-0.7228,-0.7232,-0.5345,-0.3508,-0.3811,-0.3702,-0.358,-0.3826,-0.3951,-0.3951,-0.3951,-0.3828,-0.3721,-0.3145,-0.3065,-0.2331,-0.0394,-0.0,-0.0,-0.0,0.121,0.2957,0.5111,0.3984,0.3665,0.5031,0.5083,0.526,0.5923,0.5916,0.5916,0.5916,0.5916,0.5916,0.5916,0.5914,0.5912,0.5912,0.591,0.5908,0.5908,0.5908,0.5908,-3.2312,-3.2317,-3.2462,-3.2143,-3.0945,-2.971,-2.9606,-2.8382,-2.6991,-2.6121,-2.594,-2.5741,-2.5091,-2.4235,-2.3929,-2.5061,-2.3751,-2.3183,-2.4808,-2.427,-2.3966,-2.4658,-2.4691,-2.4703,-2.485,-2.4615,-2.454,-2.454,-2.3653,-2.3137,-2.309,-2.2402,-2.2241,-2.2788,-2.3055,-2.3655,-2.459,-2.389,-2.4187,-2.5294,-2.459,-2.3989,-2.3484,-2.2685,-2.2072,-2.1643,-2.1245,-2.0939,-2.0845,-1.9524,-1.9013,-1.9117,-1.7989,-1.7694,-1.7799,-1.7687,-1.7582,-1.7477,-1.6287,-1.4567,-1.2955,-1.2521,-1.1664,-1.0692,-1.0692,-1.0692,-1.0692,-1.0692,-0.9022,-0.7233,-0.7238,-0.5349,-0.3511,-0.3813,-0.3703,-0.358,-0.3826,-0.3951,-0.3951,-0.3951,-0.3703,-0.3585,-0.3355,-0.3047,-0.1819,0.093,0.2276,0.2821,0.2821,0.4164,0.4973,0.4705,0.4687,0.4382,0.3795,0.4513,0.5083,0.5258,0.57,0.5916,0.5916,0.5916,0.5916,0.5916,0.5916,0.5916,0.5916,0.5916,0.5916,0.5916,0.5916,0.5916,-3.3751,-3.3566,-3.3417,-3.3019,-3.1779,-3.0441,-2.9973,-2.9026,-2.7907,-2.6753,-2.683,-2.6791,-2.5994,-2.532,-2.5401,-2.681,-2.5478,-2.4874,-2.6486,-2.5732,-2.5087,-2.5185,-2.5187,-2.5126,-2.5031,-2.4786,-2.4688,-2.4778,-2.4147,-2.3977,-2.4189,-2.3871,-2.3836,-2.4284,-2.4547,-2.5089,-2.5984,-2.5373,-2.5577,-2.6602,-2.5897,-2.5294,-2.4894,-2.4285,-2.3683,-2.3258,-2.2759,-2.2458,-2.2265,-2.0947,-2.0135,-1.9723,-1.8708,-1.8101,-1.7799,-1.7687,-1.7582,-1.7477,-1.6287,-1.4674,-1.2955,-1.2521,-1.1664,-1.0692,-1.0692,-1.0692,-1.0692,-1.0692,-0.9059,-0.7287,-0.7248,-0.5491,-0.3658,-0.3819,-0.3826,-0.3703,-0.3828,-0.3951,-0.3951,-0.3951,-0.3703,-0.3586,-0.348,-0.2422,-0.0523,0.214,0.3762,0.4839,0.5108,0.5512,0.5376,0.4435,0.4303,0.3879,0.3164,0.4179,0.4892,0.5045,0.5621,0.5951,0.5919,0.5916,0.5916,0.5916,0.5916,0.5916,0.5916,0.5916,0.5916,0.5916,0.5916,0.5916,-3.5784,-3.4728,-3.3161,-3.3092,-3.2021,-3.0839,-3.044,-2.9681,-2.8924,-2.8372,-2.8168,-2.7759,-2.661,-2.5997,-2.629,-2.8162,-2.7079,-2.6673,-2.8697,-2.7649,-2.6485,-2.5997,-2.5749,-2.5592,-2.5232,-2.5062,-2.5026,-2.5264,-2.4446,-2.4242,-2.5,-2.4278,-2.4381,-2.5781,-2.579,-2.6284,-2.7262,-2.7262,-2.7177,-2.69,-2.6699,-2.6496,-2.6496,-2.6496,-2.639,-2.61,-2.4786,-2.4088,-2.3683,-2.2357,-2.0939,-1.9731,-1.9627,-1.8812,-1.7687,-1.7582,-1.7582,-1.7477,-1.6287,-1.5102,-1.3917,-1.2847,-1.166,-1.0692,-1.0692,-1.0692,-1.0692,-1.0692,-0.9017,-0.7269,-0.7269,-0.5654,-0.3951,-0.3951,-0.3951,-0.3951,-0.3951,-0.3951,-0.3951,-0.3951,-0.3951,-0.3846,-0.3529,-0.1162,0.1188,0.2948,0.4435,0.5649,0.6453,0.5242,0.4301,0.4301,0.3095,0.241,0.3036,0.3822,0.4426,0.4935,0.5552,0.6014,0.5927,0.5919,0.5916,0.5916,0.5916,0.5916,0.5916,0.5916,0.5916,0.5916,0.5916,0.5916,-3.561,-3.5026,-3.4492,-3.4185,-3.3387,-3.2373,-3.1146,-3.1247,-3.1016,-2.9126,-2.9669,-3.0289,-2.9607,-2.8735,-2.8615,-3.014,-2.8011,-2.6773,-2.8358,-2.738,-2.6337,-2.5924,-2.6517,-2.6642,-2.5808,-2.5559,-2.5633,-2.6165,-2.5715,-2.5584,-2.6155,-2.6303,-2.6547,-2.686,-2.687,-2.7061,-2.7262,-2.7262,-2.7262,-2.7177,-2.7167,-2.6986,-2.6805,-2.6805,-2.6699,-2.64,-2.5994,-2.5693,-2.5294,-2.3176,-2.2072,-2.1574,-1.9539,-1.8632,-1.8548,-1.8016,-1.7911,-1.7694,-1.6399,-1.5102,-1.4024,-1.3814,-1.2309,-1.0692,-1.0692,-1.0692,-1.0692,-1.0692,-0.9017,-0.7269,-0.7269,-0.5654,-0.3951,-0.3951,-0.3951,-0.3951,-0.3951,-0.3951,-0.3951,-0.3951,-0.3951,-0.361,-0.2555,-0.0902,0.0783,0.2276,0.4167,0.5649,0.6453,0.5647,0.4975,0.4301,0.3497,0.2822,0.2411,0.3579,0.4203,0.4432,0.5361,0.6043,0.6021,0.5953,0.5916,0.5916,0.5916,0.5916,0.5916,0.5916,0.5916,0.5916,0.5916,0.5916,-3.6201,-3.5786,-3.5362,-3.4913,-3.4382,-3.3677,-3.2374,-3.2694,-3.2851,-3.1341,-3.1626,-3.2234,-3.2388,-3.0894,-3.0104,-3.1827,-2.9775,-2.8248,-2.9164,-2.8513,-2.7616,-2.6588,-2.7216,-2.7256,-2.6173,-2.6192,-2.643,-2.6875,-2.6316,-2.6165,-2.6837,-2.7117,-2.7262,-2.7262,-2.7262,-2.7262,-2.7262,-2.7262,-2.7262,-2.7262,-2.7262,-2.7262,-2.7081,-2.7081,-2.689,-2.6699,-2.6699,-2.6496,-2.5994,-2.4088,-2.2985,-2.208,-2.0158,-1.9049,-1.8646,-1.8325,-1.822,-1.801,-1.7153,-1.6074,-1.4894,-1.3927,-1.2309,-1.0692,-1.0802,-1.0802,-1.0692,-1.0692,-0.9017,-0.7269,-0.7269,-0.5654,-0.3951,-0.3951,-0.3951,-0.3951,-0.3951,-0.3951,-0.3826,-0.3332,-0.3332,-0.2734,-0.1145,-0.0128,0.0909,0.239,0.3884,0.5243,0.5917,0.5379,0.4705,0.4301,0.3362,0.2558,0.2289,0.3207,0.3713,0.3689,0.4899,0.5601,0.5601,0.5773,0.5978,0.5978,0.5978,0.5957,0.5916,0.5916,0.5916,0.5916,0.5916,0.5916,-3.7145,-3.6666,-3.5907,-3.5481,-3.5249,-3.4795,-3.3689,-3.4052,-3.4494,-3.401,-3.3751,-3.386,-3.4775,-3.2477,-3.1071,-3.292,-3.1354,-3.0003,-3.0281,-3.0106,-2.9291,-2.7499,-2.7762,-2.7708,-2.6541,-2.6877,-2.7162,-2.7338,-2.6582,-2.6433,-2.7305,-2.7357,-2.7262,-2.7262,-2.7262,-2.7262,-2.7262,-2.7262,-2.7262,-2.7262,-2.7262,-2.7262,-2.7262,-2.7262,-2.7177,-2.6996,-2.6996,-2.6592,-2.5897,-2.4796,-2.3493,-2.1887,-2.0783,-1.9657,-1.8527,-1.8527,-1.8429,-1.8429,-1.8122,-1.7153,-1.5755,-1.3825,-1.2209,-1.1017,-1.1126,-1.0911,-1.0802,-1.0692,-0.9017,-0.7269,-0.7269,-0.5654,-0.3951,-0.3951,-0.3951,-0.3951,-0.3828,-0.3826,-0.358,-0.2837,-0.259,-0.186,-0.0,0.0511,0.1167,0.2767,0.3734,0.4435,0.5111,0.4705,0.43,0.43,0.3095,0.2155,0.2155,0.2826,0.3212,0.3172,0.4298,0.5034,0.5153,0.559,0.5922,0.6035,0.6035,0.5996,0.5916,0.5916,0.5916,0.5916,0.5916,0.5916,-3.7613,-3.7097,-3.6457,-3.6249,-3.6147,-3.5812,-3.4495,-3.5357,-3.6189,-3.5196,-3.5317,-3.5593,-3.563,-3.3264,-3.1472,-3.2078,-3.0425,-2.9154,-2.9353,-2.9707,-2.9447,-2.7879,-2.8799,-2.8966,-2.7546,-2.7542,-2.7656,-2.7828,-2.7342,-2.7228,-2.7515,-2.7357,-2.7262,-2.7262,-2.7262,-2.7262,-2.7262,-2.7262,-2.7262,-2.7262,-2.7262,-2.7262,-2.7262,-2.7262,-2.7262,-2.7262,-2.7262,-2.6572,-2.5392,-2.4285,-2.3003,-2.1615,-2.0388,-1.9672,-1.9472,-1.8966,-1.8764,-1.8757,-1.8429,-1.6823,-1.4793,-1.4471,-1.3501,-1.2313,-1.1345,-1.1017,-1.1021,-1.0802,-0.9017,-0.7269,-0.7269,-0.5654,-0.3951,-0.3951,-0.3951,-0.3826,-0.358,-0.358,-0.358,-0.3703,-0.3085,-0.2115,-0.0895,-0.0,0.1041,0.2138,0.2956,0.363,0.4435,0.4435,0.43,0.43,0.3095,0.2155,0.2155,0.2826,0.3225,0.3217,0.3969,0.4568,0.5026,0.5206,0.5388,0.5943,0.5941,0.5933,0.5916,0.5916,0.5916,0.5916,0.5916,0.5916,-3.798,-3.7685,-3.7303,-3.6921,-3.6786,-3.6551,-3.5664,-3.6031,-3.6512,-3.6212,-3.6038,-3.6161,-3.657,-3.4339,-3.2413,-3.2486,-3.1,-2.9827,-2.9709,-3.0046,-3.0059,-2.9188,-2.9609,-2.9618,-2.8717,-2.8355,-2.8415,-2.8795,-2.825,-2.7764,-2.762,-2.7452,-2.7262,-2.7262,-2.7262,-2.7262,-2.7262,-2.7262,-2.7262,-2.7262,-2.7262,-2.7262,-2.7262,-2.7262,-2.7262,-2.7262,-2.7262,-2.6572,-2.5197,-2.4187,-2.2902,-2.1623,-2.0395,-1.9879,-1.9879,-1.948,-1.9272,-1.9279,-1.8855,-1.7463,-1.5749,-1.5221,-1.3609,-1.1887,-1.1236,-1.1126,-1.1017,-1.0802,-0.9076,-0.7306,-0.7251,-0.562,-0.3912,-0.3943,-0.3951,-0.3828,-0.3703,-0.3703,-0.3455,-0.259,-0.1986,-0.1125,0.0378,0.1028,0.1569,0.2106,0.2799,0.3497,0.4167,0.43,0.43,0.43,0.3362,0.2558,0.2289,0.2558,0.2691,0.2691,0.3319,0.3951,0.461,0.4938,0.5397,0.6127,0.6125,0.608,0.5988,0.5988,0.5963,0.5916,0.5916,0.5916,-3.8305,-3.8201,-3.8016,-3.747,-3.7287,-3.712,-3.6626,-3.6539,-3.6606,-3.6869,-3.6535,-3.6423,-3.7174,-3.525,-3.3494,-3.328,-3.208,-3.1017,-3.0558,-3.0802,-3.0876,-3.0493,-3.0337,-3.0146,-2.9786,-2.93,-2.9128,-2.9452,-2.885,-2.8207,-2.7726,-2.7536,-2.7441,-2.7441,-2.7347,-2.7357,-2.7357,-2.7357,-2.7262,-2.7262,-2.7061,-2.6965,-2.6965,-2.6764,-2.6562,-2.6562,-2.6562,-2.5877,-2.4599,-2.38,-2.271,-2.142,-2.0498,-2.0189,-2.0189,-1.9879,-1.9783,-1.9576,-1.8959,-1.7891,-1.6599,-1.5441,-1.3501,-1.1559,-1.1345,-1.1236,-1.1126,-1.0911,-0.9022,-0.7233,-0.7238,-0.5588,-0.3876,-0.3936,-0.3828,-0.3826,-0.3828,-0.3828,-0.3332,-0.1849,-0.1248,-0.0377,0.1124,0.1801,0.2104,0.2086,0.2654,0.3228,0.4033,0.4167,0.43,0.43,0.363,0.296,0.2423,0.2289,0.2155,0.2155,0.2664,0.3319,0.4281,0.4769,0.5389,0.6288,0.6288,0.6219,0.6082,0.6061,0.6016,0.5945,0.5927,0.5916,-3.8691,-3.8566,-3.8114,-3.7911,-3.7825,-3.7667,-3.7097,-3.719,-3.7301,-3.7027,-3.7073,-3.7076,-3.6719,-3.542,-3.4287,-3.4055,-3.3124,-3.2243,-3.1632,-3.1836,-3.1775,-3.1057,-3.0894,-3.0708,-3.0299,-3.0153,-2.9985,-2.9532,-2.885,-2.829,-2.7998,-2.7998,-2.7904,-2.7904,-2.7726,-2.7536,-2.7536,-2.7357,-2.7262,-2.7262,-2.6284,-2.5887,-2.579,-2.4884,-2.4384,-2.4384,-2.4384,-2.38,-2.2728,-2.2627,-2.192,-2.0917,-2.0617,-2.0411,-2.0411,-2.0189,-1.9879,-1.9576,-1.8415,-1.7022,-1.5417,-1.4256,-1.3722,-1.3295,-1.2219,-1.1787,-1.1459,-1.1126,-0.9241,-0.7233,-0.7238,-0.5588,-0.3876,-0.3936,-0.3703,-0.358,-0.3826,-0.3703,-0.358,-0.358,-0.2123,-0.0886,-0.0641,0.0912,0.2118,0.2142,0.2286,0.2558,0.3228,0.3899,0.43,0.43,0.363,0.3228,0.3094,0.2558,0.2155,0.2155,0.2286,0.2807,0.4094,0.4219,0.4843,0.6194,0.6192,0.6184,0.617,0.6092,0.6049,0.6039,0.5955,0.5916,-3.8361,-3.8646,-3.8799,-3.836,-3.7544,-3.6685,-3.6164,-3.5721,-3.5295,-3.4994,-3.5491,-3.5934,-3.592,-3.5411,-3.4822,-3.4292,-3.3795,-3.3324,-3.2809,-3.2397,-3.227,-3.2496,-3.178,-3.1457,-3.1842,-3.0947,-3.0083,-2.9521,-2.8943,-2.8571,-2.8466,-2.8186,-2.7998,-2.7998,-2.7904,-2.7809,-2.7809,-2.7715,-2.7631,-2.7452,-2.6456,-2.5877,-2.5693,-2.459,-2.4088,-2.4088,-2.4088,-2.3502,-2.2526,-2.2526,-2.1827,-2.0925,-2.0822,-2.0719,-2.0719,-2.0411,-2.0197,-1.9768,-1.8408,-1.7022,-1.5535,-1.4374,-1.3408,-1.254,-1.2005,-1.1678,-1.1568,-1.1459,-1.0177,-0.8588,-0.7701,-0.5781,-0.3876,-0.3936,-0.3826,-0.3826,-0.3828,-0.3826,-0.358,-0.3085,-0.1886,-0.0766,-0.0127,0.1176,0.2134,0.2128,0.2143,0.2423,0.3094,0.3899,0.4435,0.4975,0.4303,0.3631,0.3228,0.2558,0.2155,0.2155,0.2155,0.2819,0.4268,0.4267,0.492,0.6345,0.6345,0.6319,0.6261,0.6174,0.6102,0.6051,0.5959,0.5916,-3.8093,-3.8657,-3.9064,-3.8887,-3.759,-3.6251,-3.5854,-3.4811,-3.3872,-3.3633,-3.4294,-3.501,-3.5508,-3.5568,-3.551,-3.5211,-3.4807,-3.4415,-3.4202,-3.3223,-3.3004,-3.4163,-3.305,-3.2526,-3.352,-3.1946,-3.0548,-3.0045,-2.9382,-2.8943,-2.885,-2.8466,-2.8279,-2.8279,-2.8186,-2.8092,-2.8092,-2.7998,-2.7904,-2.7726,-2.6648,-2.5868,-2.5294,-2.4196,-2.3502,-2.3194,-2.3194,-2.271,-2.203,-2.203,-2.1623,-2.0925,-2.0925,-2.0925,-2.0925,-2.0719,-2.0411,-1.9983,-1.8715,-1.7233,-1.5855,-1.4691,-1.33,-1.2005,-1.1787,-1.1678,-1.1568,-1.1568,-1.0386,-0.8775,-0.7182,-0.5405,-0.3871,-0.3914,-0.3937,-0.3951,-0.3951,-0.3951,-0.3703,-0.3085,-0.1763,-0.0639,-0.0,0.1308,0.2137,0.2125,0.2141,0.2423,0.2826,0.3764,0.4435,0.4975,0.4839,0.4437,0.3901,0.296,0.2558,0.2558,0.2289,0.2826,0.4301,0.43,0.4973,0.6453,0.6453,0.6423,0.6357,0.6239,0.6149,0.6088,0.5972,0.5916,-3.8061,-3.8605,-3.8685,-3.941,-3.8286,-3.6925,-3.6652,-3.5151,-3.3762,-3.3633,-3.4134,-3.4829,-3.5643,-3.6052,-3.6488,-3.7163,-3.6271,-3.5622,-3.6018,-3.4494,-3.4099,-3.6039,-3.4792,-3.4177,-3.5204,-3.3264,-3.1777,-3.1223,-3.0091,-2.9301,-2.885,-2.8757,-2.8757,-2.8757,-2.8488,-2.8395,-2.8395,-2.8092,-2.7998,-2.7987,-2.6733,-2.5557,-2.4492,-2.312,-2.1928,-2.0917,-2.0917,-2.0925,-2.0925,-2.0925,-2.0917,-2.0925,-2.0925,-2.0925,-2.0925,-2.0925,-2.0719,-2.0308,-1.922,-1.7738,-1.6162,-1.5001,-1.3398,-1.2005,-1.2005,-1.1787,-1.1568,-1.1568,-0.9687,-0.7201,-0.5161,-0.4237,-0.386,-0.3861,-0.3907,-0.3951,-0.3951,-0.3951,-0.3951,-0.3828,-0.2247,-0.0887,-0.09,0.0783,0.212,0.215,0.2155,0.2155,0.2155,0.3497,0.43,0.4301,0.4975,0.5381,0.5381,0.4035,0.3228,0.3228,0.2558,0.2826,0.4301,0.43,0.4973,0.6453,0.6453,0.6453,0.6451,0.627,0.618,0.6176,0.6,0.5916,-3.5296,-3.5823,-3.6179,-3.6128,-3.5019,-3.398,-3.4217,-3.325,-3.2459,-3.3006,-3.3561,-3.432,-3.561,-3.5951,-3.6314,-3.7165,-3.6967,-3.6641,-3.6332,-3.5646,-3.5122,-3.4886,-3.4307,-3.3845,-3.3668,-3.3098,-3.2289,-3.13,-3.0181,-2.9301,-2.885,-2.8757,-2.8757,-2.8757,-2.8757,-2.8664,-2.8664,-2.8571,-2.8186,-2.7421,-2.6628,-2.5363,-2.3619,-2.282,-2.192,-2.0925,-2.0925,-2.0925,-2.0925,-2.0925,-2.0925,-2.0925,-2.0925,-2.0925,-2.0925,-2.0925,-2.0719,-2.0197,-1.8492,-1.7437,-1.6493,-1.4374,-1.3197,-1.255,-1.2114,-1.1891,-1.1787,-1.1345,-0.9607,-0.7656,-0.6396,-0.5015,-0.3808,-0.385,-0.3907,-0.3951,-0.3951,-0.3951,-0.3951,-0.3951,-0.2872,-0.1648,-0.1029,0.0261,0.1325,0.215,0.2155,0.2155,0.2155,0.3362,0.43,0.43,0.5377,0.5917,0.5381,0.4571,0.3764,0.3228,0.3497,0.3899,0.43,0.4839,0.5513,0.6453,0.6453,0.6453,0.6453,0.6333,0.6212,0.6092,0.6037,0.5978,-3.3994,-3.4481,-3.4806,-3.4865,-3.3739,-3.2762,-3.3299,-3.2547,-3.1945,-3.2752,-3.3503,-3.4462,-3.5684,-3.6163,-3.6725,-3.7953,-3.7666,-3.7365,-3.7524,-3.6645,-3.563,-3.4653,-3.5018,-3.4871,-3.3865,-3.3734,-3.3066,-3.1741,-3.0699,-2.9738,-2.885,-2.8757,-2.8757,-2.8757,-2.8757,-2.8757,-2.8757,-2.8757,-2.8466,-2.7799,-2.702,-2.5858,-2.4205,-2.342,-2.2526,-2.1522,-2.1326,-2.1224,0.0,-2.1019,-2.0925,-2.0925,-2.0925,-2.0925,-2.0925,-2.0925,-2.0609,-1.999,-1.8715,-1.766,-1.6499,-1.4691,-1.3192,-1.2005,-1.1787,-1.1564,-1.1345,-1.0794,-0.924,-0.7598,-0.6564,-0.5178,-0.41,-0.3931,-0.3872,-0.3922,-0.3946,-0.358,-0.3332,-0.3332,-0.2237,-0.1133,-0.0385,0.052,0.1448,0.2148,0.2155,0.2155,0.2155,0.3229,0.4033,0.43,0.5377,0.6051,0.5783,0.5109,0.4571,0.4035,0.4167,0.4435,0.4705,0.5111,0.5783,0.6453,0.6453,0.6453,0.6453,0.6362,0.6241,0.61,0.6068,0.6023,0.0,-3.4226,-3.4306,-3.5033,-3.3953,-3.291,-3.365,-3.294,0.0,-3.2948,-3.4071,-3.5177,-3.5951,-3.6698,-3.7689,-3.9252,-3.8331,-3.7909,-3.9254,-3.7408,-3.574,-3.5216,-3.6499,-3.6852,-3.5534,-3.4977,-3.4011,-3.2438,-3.1565,-3.0429,-2.8932,-2.885,-2.8757,-2.8757,-2.8757,-2.8757,-2.8757,-2.8757,-2.8757,-2.8653,-2.7715,-2.6638,-2.5557,-2.4609,-2.3529,-2.2426,-2.192,-2.1725,-2.1623,-2.1121,-2.0917,-2.0917,-2.0822,-2.0822,-2.0822,-2.0712,-2.03,-1.9576,-1.9576,-1.8094,-1.6293,-1.553,-1.3275,-1.0798,-1.1017,-1.0907,-1.0468,-0.9911,-0.8696,-0.726,-0.5815,-0.4987,-0.4496,-0.3982,-0.3931,-0.3875,-0.3809,-0.3082,-0.2467,-0.2466,-0.0863,0.0498,0.0513,0.1418,0.2084,0.2142,0.2153,0.2155,0.2155,0.2826,0.3496,0.4167,0.4975,0.5649,0.6453,0.5917,0.5515,0.5381,0.4839,0.4705,0.5381,0.5515,0.5783,0.6453,0.6453,0.6453,0.6453,0.6368,0.628,0.6188,0.6102,0.6059,-3.307,0.0,-3.2415,-3.2562,-3.2225,-3.2253,0.0,-3.4105,-3.4373,-3.4911,-3.5702,-3.6399,-3.6911,-3.7624,-3.8469,-3.9343,-3.9204,-3.8921,-3.8685,-3.6548,-3.5306,-3.6039,-3.5834,-3.579,-3.6028,-3.5008,-3.3985,-3.2882,-3.1335,-3.0114,-2.9393,-2.9035,-2.8757,-2.8757,-2.8757,-2.8757,-2.8757,-2.8757,-2.8466,-2.7882,-2.7421,-2.635,-2.4786,-2.4313,-2.3529,-2.2526,-2.2325,-2.2123,-2.1725,-2.1522,-2.1216,-2.0822,-2.0197,-1.999,-1.9887,-1.9257,-1.884,-1.8632,-1.7989,-1.7463,-1.6717,-1.5018,-1.3181,-1.166,-1.1236,-1.0464,-0.9585,-0.8923,-0.8257,-0.7371,-0.6371,-0.5326,-0.4598,-0.4386,-0.4135,-0.3743,-0.2906,-0.2569,-0.222,-0.148,-0.0986,-0.0372,0.0379,0.0768,0.1168,0.1982,0.214,0.2155,0.2155,0.2826,0.3496,0.4167,0.4975,0.5649,0.6453,0.6319,0.6051,0.5381,0.5781,0.5781,0.5381,0.5917,0.6319,0.6453,0.6453,0.6453,0.6453,0.6431,0.6374,0.6282,0.696,0.7251,-3.2432,-3.2266,-3.1824,-3.1727,-3.1937,-3.2483,-3.3801,-3.4494,-3.5173,-3.6155,-3.6844,-3.7291,-3.7408,-3.8041,-3.8624,-3.8919,-3.8891,-3.8725,-3.853,-3.7876,-3.7326,-3.6929,-3.6841,-3.6606,-3.5967,-3.5303,-3.4415,-3.3066,-3.2028,-3.0991,-2.9852,-2.9393,-2.9117,-2.9117,-2.8549,-2.8466,-2.8757,-2.8757,-2.8373,-2.7589,-2.7125,-2.6157,-2.4894,-2.4322,-2.3836,-2.3238,-2.3029,-2.2728,-2.2426,-2.2131,-2.1522,-2.0704,-2.0292,-1.9672,-1.9049,-1.8527,-1.8213,-1.7786,-1.7358,-1.6723,-1.5879,-1.4266,-1.2748,-1.1219,-1.0351,-0.9251,-0.8371,-0.8484,-0.7928,-0.7263,-0.6485,-0.5633,-0.489,-0.4698,-0.4193,-0.3555,-0.2643,-0.2062,-0.1467,-0.0492,-0.0,0.0496,0.1132,0.1277,0.1426,0.1973,0.2135,0.2155,0.2155,0.2826,0.3496,0.4167,0.4975,0.5649,0.6453,0.6453,0.6319,0.5917,0.6319,0.6319,0.5917,0.6319,0.6453,0.6453,0.6453,0.6453,0.6453,0.6985,0.7089,0.7162,0.792,0.8317,-3.2411,-3.2537,-3.2434,-3.2149,-3.2571,-3.3292,-3.4261,-3.4942,-3.5723,-3.7074,-3.7788,-3.8145,-3.7942,-3.8357,-3.8792,-3.8857,-3.8554,-3.8358,-3.8425,-3.9361,-3.946,-3.7779,-3.8142,-3.7823,-3.6073,-3.5809,-3.5032,-3.342,-3.298,-3.2127,-3.0566,-2.9852,-2.9485,-2.9485,-2.8351,-2.8164,-2.8943,-2.856,-2.8081,-2.74,-2.6638,-2.5974,-2.5294,-2.4538,-2.4152,-2.4152,-2.3637,-2.3429,-2.3229,-2.2828,-2.181,-2.0483,-2.038,-1.945,-1.8213,-1.8108,-1.7575,-1.7041,-1.7041,-1.6092,-1.4713,-1.3619,-1.2091,-1.0343,-0.9251,-0.8149,-0.7376,-0.7928,-0.7709,-0.7043,-0.6596,-0.5929,-0.5278,-0.4674,-0.4012,-0.3242,-0.2142,-0.1321,-0.0363,0.049,0.1355,0.1984,0.2008,0.2037,0.2067,0.2097,0.2128,0.2149,0.2154,0.2826,0.3496,0.4167,0.4975,0.5649,0.6453,0.6453,0.6453,0.6453,0.6453,0.6453,0.6453,0.6453,0.6453,0.6453,0.6587,0.6719,0.6719,0.7779,0.831,0.8304,0.911,0.9373,-3.4257,-3.5206,-3.4995,-3.4108,-3.3989,-3.4461,-3.5965,-3.6888,-3.7634,-3.8306,-3.9058,-3.9498,-3.9246,-3.9676,-4.0211,-4.0757,-4.0292,-3.9371,-3.7865,-3.7425,-3.7462,-3.8193,-3.7699,-3.7382,-3.7433,-3.6554,-3.5507,-3.4538,-3.3006,-3.2064,-3.1713,-3.0295,-2.9485,-2.9485,-2.8932,-2.8839,-2.9393,-2.7694,-2.6839,-2.6648,-2.5868,-2.5392,-2.5294,-2.4538,-2.4152,-2.4152,-2.4143,-2.3737,-2.3329,-2.3229,-2.2114,-2.038,-1.9642,-1.8603,-1.7252,-1.6524,-1.6205,-1.6099,-1.6099,-1.5345,-1.4164,-1.3511,-1.1764,-0.9798,-0.914,-0.8149,-0.7154,-0.6707,-0.6932,-0.7154,-0.7043,-0.6262,-0.515,-0.4267,-0.3295,-0.207,-0.0347,0.0118,0.0603,0.1452,0.1836,0.1978,0.1982,0.2007,0.2036,0.2066,0.2097,0.2125,0.2151,0.2826,0.3496,0.4167,0.4975,0.5649,0.6453,0.6453,0.6453,0.6453,0.6453,0.6453,0.6453,0.6453,0.6453,0.6453,0.7381,0.7779,0.7779,0.8845,0.9377,0.9371,1.0141,1.0513,-3.3703,-3.4844,-3.5315,-3.5761,-3.6134,-3.6609,-3.734,-3.8163,-3.878,-3.885,-3.9125,-3.9281,-3.8954,-3.8976,-3.9071,-3.9207,-3.8694,-3.8208,-3.7991,-3.8321,-3.8606,-3.8858,-3.855,-3.8098,-3.7453,-3.6281,-3.5251,-3.4204,-3.3031,-3.2176,-3.1825,-3.0836,-3.0216,-3.0216,-2.9382,-2.8724,-2.8236,-2.6904,-2.6436,-2.6914,-2.5771,-2.5099,-2.4726,-2.4341,-2.4152,-2.4152,-2.4152,-2.4044,-2.3746,-2.3129,-2.1802,-2.0151,-1.9117,-1.7871,-1.6411,-1.6099,-1.5891,-1.5891,-1.5891,-1.5137,-1.4056,-1.3073,-1.1433,-0.9578,-0.8702,-0.782,-0.7154,-0.6821,-0.6932,-0.7154,-0.6818,-0.5704,-0.4589,-0.414,-0.2704,-0.1137,0.0229,0.0465,0.0827,0.1684,0.1942,0.1958,0.1974,0.2,0.2029,0.2059,0.209,0.2252,0.2687,0.3362,0.4033,0.4839,0.5513,0.6185,0.6453,0.6453,0.6453,0.6453,0.6453,0.6719,0.725,0.725,0.7648,0.8184,0.8579,0.8845,0.8845,0.9905,1.0399,1.0323,1.1137,1.1484,-3.3145,-3.4622,-3.5897,-3.7198,-3.7605,-3.7819,-3.841,-3.9044,-3.9489,-3.9394,-3.9319,-3.9188,-3.8911,-3.8657,-3.8321,-3.7769,-3.7312,-3.7346,-3.8208,-3.8962,-3.9382,-3.9168,-3.9069,-3.8467,-3.7112,-3.6229,-3.5237,-3.405,-3.33,-3.2624,-3.2013,-3.1306,-3.0859,-3.0859,-2.9829,-2.8795,-2.7945,-2.6703,-2.6234,-2.6522,-2.5479,-2.4726,-2.4152,-2.4152,-2.4053,-2.3845,-2.3845,-2.3646,-2.3329,-2.2518,-2.1183,-1.9627,-1.8805,-1.7351,-1.5891,-1.5891,-1.5891,-1.5891,-1.5891,-1.4917,-1.3619,-1.2743,-1.0996,-0.9251,-0.8263,-0.7601,-0.7154,-0.6821,-0.6935,-0.7049,-0.6604,-0.526,-0.3918,-0.3469,-0.1904,-0.0338,0.057,0.0803,0.1043,0.1782,0.1922,0.1939,0.2207,0.2244,0.2283,0.2317,0.2351,0.2516,0.2955,0.3764,0.457,0.5111,0.5915,0.6587,0.6853,0.6853,0.6987,0.7252,0.6985,0.725,0.831,0.831,0.8709,0.9643,0.9908,1.0041,1.0041,1.1101,1.1552,1.1394,1.2004,1.2207,-3.3819,-3.6329,-3.8268,-3.8451,-3.7262,-3.667,-3.8971,-3.9548,-3.9762,-4.0359,-4.0428,-4.0342,-4.0191,-4.0257,-3.9853,-3.8392,-3.8331,-3.839,-3.8151,-3.7533,-3.7508,-3.8607,-3.8284,-3.7689,-3.7084,-3.69,-3.6256,-3.4716,-3.405,-3.33,-3.2624,-3.156,-3.0859,-3.0859,-2.9943,-2.9669,-3.0023,-2.7673,-2.5781,-2.444,-2.4341,-2.4251,-2.4152,-2.4152,-2.3646,-2.2627,-2.2627,-2.2013,-2.1089,-2.1089,-2.0166,-1.8819,-1.8499,-1.7351,-1.5891,-1.5891,-1.5891,-1.5891,-1.5891,-1.4369,-1.2526,-1.2413,-1.0449,-0.8152,-0.8045,-0.7601,-0.6932,-0.5817,-0.6386,-0.7182,-0.7179,-0.5719,-0.3699,-0.1791,-0.056,0.0561,0.1461,0.1706,0.1727,0.1846,0.1892,0.2052,0.2777,0.297,0.3045,0.309,0.3133,0.2912,0.2285,0.3497,0.4301,0.4435,0.5646,0.6851,0.7779,0.791,0.8312,0.9377,0.8446,0.8312,0.9377,0.951,0.951,0.9646,1.0571,1.1097,1.1097,1.2169,1.2612,1.2431,1.2385,1.2207,-3.4588,-3.6039,-3.7106,-3.8257,-3.8027,-3.8053,-4.0077,-4.0101,-3.9947,-4.0688,-3.9898,-3.8942,-3.8573,-3.8949,-3.8984,-3.7987,-3.7443,-3.7143,-3.7043,-3.6554,-3.6669,-3.7919,-3.7643,-3.7352,-3.7405,-3.6387,-3.54,-3.4498,-3.3177,-3.2351,-3.2101,-3.1661,-3.1217,-3.0949,-3.0589,-2.9738,-2.8319,-2.7379,-2.6051,-2.4152,-2.4152,-2.4152,-2.4152,-2.4152,-2.3945,-2.3538,-2.2837,-2.2224,-2.181,-2.0364,-1.9332,-1.8394,-1.7246,-1.6518,-1.6105,-1.5998,-1.5458,-1.4815,-1.4815,-1.3285,-1.1328,-1.1328,-0.9798,-0.8045,-0.8045,-0.761,-0.6945,-0.5483,-0.4702,-0.448,-0.459,-0.3695,-0.2352,-0.1007,0.0336,0.1346,0.1683,0.1804,0.1818,0.1836,0.1859,0.2122,0.2764,0.2921,0.298,0.3082,0.3111,0.3408,0.442,0.4434,0.4836,0.6439,0.7111,0.7646,0.791,0.8576,0.9507,1.0568,0.964,0.951,1.0568,1.0568,1.0969,1.1637,1.2033,1.2169,1.2169,1.2568,1.2686,1.2402,1.2337,1.215,-3.5002,-3.6144,-3.6966,-3.8517,-3.89,-3.9219,-4.0413,-4.0229,-3.9942,-4.0435,-3.9432,-3.8414,-3.8156,-3.8509,-3.8586,-3.7866,-3.7044,-3.6517,-3.6637,-3.6389,-3.6573,-3.7608,-3.7608,-3.7393,-3.7238,-3.6136,-3.4979,-3.3998,-3.2747,-3.2001,-3.1749,-3.1661,-3.1484,-3.1128,-3.0847,-2.9726,-2.7851,-2.7284,-2.6147,-2.4529,-2.435,-2.4152,-2.4152,-2.3845,-2.3438,-2.3129,-2.1903,-2.1293,-2.0877,-1.9332,-1.8401,-1.766,-1.6193,-1.5672,-1.5571,-1.5024,-1.4266,-1.3619,-1.3619,-1.2309,-1.0672,-1.0672,-0.9467,-0.8045,-0.8045,-0.7613,-0.6842,-0.5148,-0.3694,-0.2575,-0.2126,-0.1343,-0.0448,0.0112,0.1121,0.1795,0.1795,0.1795,0.1802,0.1822,0.1834,0.2085,0.2959,0.326,0.346,0.4076,0.4145,0.4601,0.6019,0.577,0.6305,0.831,0.8443,0.8576,0.8972,0.964,1.0571,1.1633,1.0972,1.0972,1.1633,1.1765,1.2033,1.2836,1.2836,1.2836,1.2836,1.2779,1.2596,1.2304,1.2247,1.206,-3.4991,-3.6985,-3.8546,-3.9559,-3.9802,-3.9804,-3.9789,-3.98,-3.9754,-3.9546,-3.9289,-3.9238,-3.9624,-3.9462,-3.9016,-3.8218,-3.7434,-3.698,-3.717,-3.7076,-3.7187,-3.773,-3.8052,-3.7778,-3.647,-3.6294,-3.54,-3.3202,-3.3031,-3.2612,-3.1749,-3.1661,-3.1661,-3.1661,-3.0758,-2.984,-2.9084,-2.7389,-2.6061,-2.5294,-2.4538,-2.4152,-2.4152,-2.3038,-2.1912,-2.0885,-1.9746,-1.861,-1.7582,-1.7582,-1.7265,-1.6624,-1.5441,-1.4696,-1.4056,-1.2852,-1.2417,-1.2413,-1.2413,-1.1651,-1.0672,-1.0672,-0.9471,-0.8045,-0.8045,-0.7613,-0.673,-0.459,-0.336,-0.2129,-0.0112,0.1121,0.1795,0.1795,0.1795,0.1795,0.1795,0.1795,0.1795,0.1795,0.1819,0.2184,0.3449,0.3997,0.4787,0.6415,0.653,0.6571,0.6965,0.7636,0.8443,0.951,0.9646,1.0041,1.1097,1.123,1.1633,1.2704,1.2836,1.2836,1.2836,1.2836,1.2836,1.2836,1.2836,1.2836,1.2836,1.2653,1.2475,1.2304,1.2113,1.1939,-3.5915,-3.7436,-3.8532,-3.9492,-3.9769,-3.9629,-3.8967,-3.9806,-4.0632,-4.0402,-4.0549,-4.0329,-3.9094,-3.8908,-3.8762,-3.8186,-3.7434,-3.6771,-3.6345,-3.5921,-3.5856,-3.6369,-3.6365,-3.6507,-3.7125,-3.6338,-3.5483,-3.4706,-3.3927,-3.3018,-3.1937,-3.1937,-3.1673,-3.1128,-3.0847,-2.9726,-2.7757,-2.74,-2.6446,-2.4716,-2.4529,-2.4341,-2.4152,-2.3038,-2.2325,-2.1912,-2.0048,-1.902,-1.861,-1.7463,-1.6948,-1.6961,-1.5992,-1.5125,-1.4369,-1.3835,-1.2635,-1.1214,-1.1214,-1.046,-0.9482,-0.9482,-0.8826,-0.8171,-0.8171,-0.7741,-0.6519,-0.336,-0.1008,0.056,0.1234,0.157,0.1795,0.1795,0.1795,0.1795,0.1795,0.1795,0.1795,0.1795,0.1802,0.2381,0.4352,0.4988,0.577,0.7266,0.7627,0.7949,0.8161,0.9368,1.0038,0.9643,1.0306,1.0833,1.123,1.1897,1.2437,1.2836,1.2836,1.2836,1.2836,1.2836,1.2836,1.2836,1.2836,1.2836,1.2836,1.2653,1.2475,1.2304,1.2614,1.2669,-3.7104,-3.8195,-3.8642,-3.9878,-3.9994,-3.9648,-3.9052,-3.9409,-3.9821,-3.9661,-3.9992,-4.0023,-3.8995,-3.8835,-3.8693,-3.8245,-3.7578,-3.6921,-3.6298,-3.6021,-3.5856,-3.5871,-3.6146,-3.6379,-3.6585,-3.6268,-3.5557,-3.4538,-3.4035,-3.3348,-3.2213,-3.1749,-3.1294,-3.0746,-3.0204,-2.898,-2.7105,-2.702,-2.5964,-2.4035,-2.4035,-2.3737,-2.3138,-2.2316,-2.1599,-2.1081,-1.9332,-1.861,-1.8506,-1.7463,-1.706,-1.7067,-1.5446,-1.4465,-1.3701,-1.2526,-1.1223,-1.0025,-1.0025,-0.9147,-0.8156,-0.8156,-0.7829,-0.739,-0.739,-0.7299,-0.6412,-0.2801,-0.0112,0.1795,0.1795,0.1795,0.1795,0.1795,0.1795,0.1795,0.1795,0.213,0.2465,0.2465,0.2912,0.3817,0.5439,0.5975,0.6781,0.8679,0.9532,0.9942,1.0028,1.0969,1.1505,1.0972,1.1501,1.1897,1.1897,1.2437,1.2836,1.2836,1.2836,1.2836,1.2836,1.2836,1.2836,1.2836,1.2836,1.28,1.2726,1.2548,1.2373,1.219,1.2623,1.2834,-3.8025,-3.8877,-3.8788,-4.0386,-4.021,-3.9605,-3.9477,-3.8675,-3.7995,-3.8175,-3.8512,-3.8861,-3.9202,-3.9044,-3.8741,-3.8354,-3.7862,-3.734,-3.6786,-3.6818,-3.6619,-3.5946,-3.6637,-3.6676,-3.5307,-3.5985,-3.5557,-3.3336,-3.3731,-3.3602,-3.2475,-3.1548,-3.0902,-3.0543,-2.9268,-2.7966,-2.6829,-2.637,-2.5304,-2.3529,-2.3529,-2.2828,-2.1717,-2.1097,-2.0055,-1.8805,-1.7884,-1.7364,-1.7259,-1.7259,-1.7054,-1.6524,-1.4245,-1.3048,-1.229,-0.9915,-0.9047,-0.8937,-0.8826,-0.8045,-0.7041,-0.693,-0.6487,-0.5824,-0.5824,-0.6172,-0.5846,-0.2464,0.0112,0.1795,0.1795,0.1795,0.1795,0.1795,0.1795,0.1795,0.1907,0.28,0.358,0.3691,0.4693,0.5695,0.67,0.7085,0.8071,1.0176,1.1595,1.227,1.2281,1.2297,1.2441,1.2704,1.2836,1.2836,1.2836,1.2836,1.2836,1.2836,1.2836,1.2836,1.2836,1.2836,1.2836,1.2836,1.282,1.2731,1.2564,1.25,1.232,1.2266,1.2807,1.3075,-3.5871,-3.7496,-3.8572,-3.9619,-3.9174,-3.8306,-3.7657,-3.7555,-3.8016,-3.9429,-3.9507,-3.9258,-3.9026,-3.8789,-3.8523,-3.8322,-3.7933,-3.7432,-3.6786,-3.6353,-3.5937,-3.5424,-3.5166,-3.4998,-3.4871,-3.5044,-3.4716,-3.3628,-3.4028,-3.3797,-3.2723,-3.245,-3.1725,-3.0543,-3.0181,-2.8969,-2.6829,-2.6914,-2.6254,-2.4833,-2.4833,-2.3818,-2.1996,-2.0585,-1.8715,-1.6599,-1.6393,-1.5642,-1.4561,-1.4578,-1.425,-1.3696,-1.3171,-1.2195,-1.1105,-1.0566,-0.9695,-0.8716,-0.7823,-0.7265,-0.693,-0.6033,-0.5254,-0.459,-0.4815,-0.3248,-0.1233,-0.0,0.1009,0.1795,0.1795,0.1795,0.1795,0.1795,0.1795,0.2018,0.3024,0.3469,0.3914,0.4804,0.525,0.5917,0.7473,0.8049,0.9065,1.1287,1.1976,1.2343,1.2475,1.2616,1.2704,1.2836,1.2836,1.2836,1.2836,1.2836,1.2836,1.2836,1.2836,1.2836,1.2836,1.3358,1.3358,1.2836,1.3219,1.3122,1.2564,1.275,1.3172,1.3962,1.484,1.5682,-3.4936,-3.6777,-3.7925,-3.878,-3.852,-3.7739,-3.6543,-3.6934,-3.7776,-3.8556,-3.9029,-3.9227,-3.9017,-3.8718,-3.8478,-3.8368,-3.7984,-3.745,-3.6786,-3.6316,-3.5824,-3.5315,-3.4775,-3.4455,-3.4364,-3.4446,-3.4068,-3.2955,-3.3403,-3.3247,-3.2168,-3.1662,-3.0889,-2.9612,-2.915,-2.8082,-2.6284,-2.637,-2.5674,-2.4007,-2.4007,-2.2802,-2.0483,-1.893,-1.7457,-1.6074,-1.5541,-1.4781,-1.3917,-1.3927,-1.3706,-1.3372,-1.2738,-1.1873,-1.1,-1.0351,-0.9592,-0.8716,-0.7487,-0.6705,-0.6144,-0.4916,-0.3916,-0.3025,-0.3138,-0.1681,0.0112,0.0785,0.1346,0.1795,0.1795,0.2242,0.2688,0.2688,0.2688,0.28,0.3469,0.4472,0.5477,0.6144,0.6811,0.7697,0.8699,0.9394,1.0288,1.1599,1.2004,1.2207,1.2296,1.2467,1.2613,1.2698,1.2706,1.2743,1.2828,1.2755,1.2706,1.2706,1.2629,1.2709,1.3092,1.3731,1.3775,1.3093,1.3934,1.4159,1.3927,1.4327,1.4882,1.5486,1.6329,1.6979,-3.4121,-3.6214,-3.7495,-3.8287,-3.8356,-3.7805,-3.6168,-3.6723,-3.749,-3.7187,-3.8172,-3.9101,-3.9045,-3.8755,-3.851,-3.8415,-3.8034,-3.7523,-3.6865,-3.6416,-3.5941,-3.5383,-3.4922,-3.4409,-3.3787,-3.3909,-3.3332,-3.1864,-3.2192,-3.2183,-3.1304,-3.0416,-2.9456,-2.8622,-2.7457,-2.6383,-2.5315,-2.5208,-2.4207,-2.2494,-2.2087,-2.0678,-1.8476,-1.6794,-1.61,-1.5974,-1.5007,-1.4143,-1.3491,-1.3491,-1.3491,-1.3275,-1.2087,-1.1546,-1.1,-0.9699,-0.8933,-0.8491,-0.7041,-0.5922,-0.4916,-0.3692,-0.2576,-0.1795,-0.1795,-0.1121,-0.0112,0.0673,0.1682,0.2355,0.213,0.3024,0.3916,0.3916,0.4027,0.425,0.425,0.5701,0.7152,0.7376,0.8488,0.9599,0.9816,1.0599,1.1191,1.1378,1.1683,1.1914,1.1975,1.2146,1.2324,1.2503,1.2519,1.2709,1.3114,1.2984,1.302,1.302,1.2885,1.3048,1.3542,1.4265,1.4452,1.4238,1.4952,1.5509,1.555,1.6222,1.6686,1.695,1.7554,1.7917,-3.2017,-3.5318,-3.8306,-3.8994,-3.9153,-3.8676,-3.6958,-3.7048,-3.7452,-3.7232,-3.8246,-3.912,-3.881,-3.8719,-3.8609,-3.851,-3.8186,-3.7721,-3.7058,-3.6539,-3.6045,-3.5383,-3.4934,-3.4298,-3.3219,-3.3135,-3.244,-3.0761,-3.0924,-3.0932,-3.0683,-2.9866,-2.9082,-2.8389,-2.6594,-2.5189,-2.3937,-2.3174,-2.2595,-2.23,-2.0232,-1.854,-1.7027,-1.464,-1.408,-1.4793,-1.4685,-1.3171,-1.0794,-1.1341,-1.1013,-1.0359,-1.0468,-1.0363,-0.9919,-0.8696,-0.8036,-0.7482,-0.5142,-0.414,-0.3692,-0.2465,-0.1907,-0.1795,-0.1795,-0.1683,-0.1234,0.0449,0.2802,0.4707,0.3583,0.4249,0.5139,0.5139,0.5922,0.6594,0.6594,0.693,0.7376,0.8491,0.9265,0.9816,1.0147,1.0512,1.0826,1.1013,1.1208,1.1447,1.1768,1.1959,1.2138,1.232,1.2341,1.2969,1.4355,1.4452,1.4437,1.4437,1.4913,1.5022,1.4519,1.5458,1.6337,1.7087,1.6585,1.6315,1.6501,1.7008,1.7707,1.848,1.921,1.9924,-3.1793,-3.5022,-3.7644,-3.8392,-3.8565,-3.8238,-3.6988,-3.6799,-3.686,-3.6711,-3.7341,-3.8066,-3.8656,-3.8738,-3.8658,-3.851,-3.8183,-3.7826,-3.747,-3.6803,-3.6224,-3.5837,-3.4988,-3.4169,-3.3649,-3.2854,-3.1869,-3.0648,-3.0378,-3.0032,-2.9416,-2.8973,-2.824,-2.7016,-2.6173,-2.5238,-2.4134,-2.2732,-2.1423,-2.0095,-1.8142,-1.6959,-1.6347,-1.4755,-1.387,-1.3441,-1.2705,-1.1553,-1.0289,-1.0502,-1.0067,-0.9208,-0.9964,-0.9319,-0.7914,-0.7911,-0.7308,-0.6277,-0.4409,-0.3663,-0.3357,-0.2242,-0.1795,-0.1795,-0.1795,-0.0672,0.1008,0.2464,0.4257,0.5601,0.4808,0.5475,0.6366,0.6366,0.726,0.8156,0.8377,0.8266,0.8377,0.9265,0.9596,0.9926,1.0472,1.0582,1.072,1.0802,1.0968,1.1139,1.1301,1.1565,1.2043,1.2952,1.3194,1.3913,1.5623,1.5632,1.5682,1.5804,1.6046,1.6096,1.6222,1.672,1.7499,1.8809,1.8338,1.8214,1.845,1.9023,1.955,2.0141,2.0507,2.0859,-3.2089,-3.4642,-3.6443,-3.7463,-3.7852,-3.7781,-3.6892,-3.6769,-3.6716,-3.6382,-3.6554,-3.7071,-3.8191,-3.842,-3.8462,-3.8628,-3.8263,-3.7911,-3.7843,-3.7058,-3.6399,-3.6215,-3.5186,-3.4333,-3.3887,-3.2848,-3.1742,-3.0678,-3.0164,-2.9577,-2.8916,-2.8384,-2.7544,-2.6291,-2.5494,-2.4719,-2.3859,-2.2043,-1.9805,-1.7009,-1.5748,-1.4859,-1.4254,-1.335,-1.244,-1.1439,-1.1245,-1.0568,-0.9843,-0.9839,-0.9209,-0.8259,-0.9108,-0.8259,-0.6571,-0.6563,-0.5873,-0.4649,-0.2922,-0.2294,-0.2099,-0.1112,-0.0891,-0.0891,-0.0895,0.1007,0.3358,0.459,0.5822,0.6606,0.6035,0.6702,0.7598,0.7598,0.8269,0.9051,0.9268,0.9158,0.9158,0.9706,0.9816,1.0036,1.0582,1.0692,1.0692,1.0692,1.081,1.0915,1.0964,1.1582,1.2312,1.3447,1.4135,1.5165,1.6918,1.6995,1.6999,1.7244,1.7303,1.743,1.7793,1.7917,1.8745,2.0162,1.9917,1.9917,2.0162,2.0615,2.0967,2.1211,2.1211,2.1211,-3.2472,-3.3886,-3.4975,-3.6483,-3.7483,-3.7841,-3.6901,-3.732,-3.764,-3.6604,-3.6365,-3.6521,-3.7171,-3.7497,-3.7966,-3.8915,-3.8504,-3.805,-3.7911,-3.7193,-3.6545,-3.6215,-3.5688,-3.4816,-3.3547,-3.313,-3.221,-3.0478,-3.0129,-3.0012,-3.0118,-2.8318,-2.725,-2.7244,-2.4535,-2.2848,-2.251,-2.0329,-1.7274,-1.3323,-1.3033,-1.1673,-0.9537,-0.8443,-0.7949,-0.8062,-1.1216,-1.107,-0.8678,-0.8989,-0.8256,-0.7106,-0.7109,-0.6893,-0.6361,-0.4237,-0.3074,-0.2121,0.0106,0.1171,0.1603,0.1847,0.1747,0.1641,0.1668,0.2905,0.4583,0.5599,0.7282,0.852,0.7268,0.7934,0.8826,0.8826,0.9047,0.9268,0.8937,0.9158,0.9489,0.9706,0.9816,1.0036,1.0582,1.0692,1.0692,1.0692,1.07,1.0769,1.0948,1.2139,1.3145,1.3358,1.4852,1.652,1.8194,1.8519,1.8622,1.8739,1.9332,1.9332,1.8719,1.9325,2.0162,2.1096,2.1096,2.1096,2.1096,2.1211,2.1211,2.1211,2.1211,2.1211,-3.1002,-3.2579,-3.391,-3.4999,-3.6682,-3.7868,-3.6972,-3.7417,-3.7896,-3.751,-3.6862,-3.6627,-3.7484,-3.7454,-3.7499,-3.8207,-3.8127,-3.8081,-3.8373,-3.7877,-3.7379,-3.7137,-3.6631,-3.5968,-3.5078,-3.4284,-3.3176,-3.1656,-3.0363,-2.9356,-2.8728,-2.7075,-2.5924,-2.5263,-2.3798,-2.1847,-1.9375,-1.7595,-1.5264,-1.2305,-1.1637,-1.0655,-0.941,-0.8722,-0.8127,-0.7637,-0.8937,-0.8578,-0.716,-0.7262,-0.6655,-0.5644,-0.5739,-0.4712,-0.3077,-0.2253,-0.1135,0.0104,0.1253,0.179,0.2022,0.2891,0.3242,0.3602,0.5277,0.6217,0.6831,0.7619,0.8285,0.8608,0.8269,0.9147,1.0131,1.0241,1.0676,1.1008,1.0676,1.0139,0.9706,1.0036,1.0147,1.0472,1.1551,1.1769,1.1769,1.1769,1.2417,1.2659,1.1977,1.3277,1.4659,1.5767,1.6715,1.7904,1.9666,2.0012,2.0134,2.0371,2.0622,2.0622,2.0378,2.0615,2.0859,2.1211,2.1211,2.1211,2.1211,2.1211,2.1211,2.1211,2.1211,2.1211,-3.0199,-3.1307,-3.2363,-3.4056,-3.571,-3.6988,-3.7219,-3.7684,-3.8047,-3.805,-3.7467,-3.7172,-3.7813,-3.7408,-3.7141,-3.7662,-3.7692,-3.772,-3.8005,-3.7588,-3.7272,-3.7254,-3.6653,-3.6087,-3.5691,-3.4717,-3.3671,-3.2754,-3.0998,-2.9797,-2.9296,-2.7266,-2.5204,-2.3345,-2.2735,-2.0732,-1.7303,-1.5995,-1.4038,-1.1323,-1.026,-0.9304,-0.8641,-0.7905,-0.7335,-0.6836,-0.6331,-0.6029,-0.5827,-0.5522,-0.4826,-0.3827,-0.3518,-0.2312,-0.0605,-0.0101,0.0912,0.2153,0.2871,0.3203,0.3448,0.4309,0.4778,0.5587,0.7726,0.8468,0.8656,0.9158,0.9268,0.9251,0.9478,1.0457,1.1538,1.1864,1.2299,1.2516,1.2408,1.1437,1.0684,1.1332,1.1442,1.1764,1.2738,1.295,1.295,1.295,1.3599,1.3814,1.3058,1.4487,1.5887,1.7098,1.8084,1.9212,2.0594,2.0838,2.0967,2.1211,2.1211,2.1211,2.1211,2.1211,2.1211,2.1211,2.1211,2.1211,2.1211,2.1211,2.1211,2.1211,2.1211,2.1211,0.0,0.0,0.0,-3.3619,-3.4535,-3.5248,-3.7566,-3.8142,-3.8179,-3.8151,-3.813,-3.8097,-3.806,-3.7334,-3.6899,-3.7432,-3.7272,-3.699,-3.6739,-3.6316,-3.617,-3.6546,-3.5744,-3.5145,-3.5178,-3.4219,-3.3601,-3.3601,-3.2028,-3.1366,-3.2092,-2.8888,-2.5387,-2.1834,-2.1312,-1.9571,-1.6392,-1.5597,-1.344,-1.008,-0.8752,-0.7691,-0.6651,-0.579,-0.5438,-0.524,-0.3833,-0.3731,-0.4531,-0.3822,-0.2919,-0.1815,-0.0504,0.0202,0.0705,0.2215,0.3224,0.383,0.4836,0.5541,0.606,0.6172,0.6622,0.7288,0.8807,0.964,1.0107,1.0175,1.0445,1.0773,1.0781,1.186,1.3043,1.3593,1.3809,1.3809,1.4132,1.3058,1.2408,1.3485,1.3701,1.3809,1.4132,1.4137,1.4137,1.4137,1.4137,1.4239,1.4132,1.5652,1.6911,1.7191,1.9067,2.0408,2.0694,2.0967,2.1211,2.1211,2.1211,2.1211,2.1211,2.1211,2.1211,2.1211,2.1211,2.1211,2.1211,2.1211,2.1211,2.1211,2.1211,2.1211,-2.9474,0.0,0.0,0.0,0.0,0.0,-3.5576,-3.6908,-3.8319,-3.8984,-3.8519,-3.8218,-3.8824,-3.8234,-3.7689,-3.784,-3.7106,-3.6612,-3.6869,-3.6831,-3.6758,-3.6611,-3.6194,-3.5639,-3.4979,-3.4525,-3.4043,-3.3421,-3.2562,-3.1531,-3.033,-2.7124,-2.4327,-2.2114,-2.0547,-1.8184,-1.4803,-1.3218,-1.102,-0.8413,-0.7639,-0.6982,-0.6342,-0.6076,-0.5141,-0.3759,-0.3412,-0.1913,0.01,-0.0905,-0.1008,-0.0403,0.0906,0.1712,0.2216,0.3325,0.4131,0.4836,0.5336,0.5739,0.6245,0.7372,0.7958,0.8466,1.008,1.0819,1.1181,1.1389,1.1759,1.2214,1.3234,1.3922,1.4465,1.4793,1.5108,1.5316,1.5429,1.5108,1.4674,1.4132,1.4024,1.4239,1.5209,1.5429,1.5429,1.5429,1.6074,1.6287,1.5535,1.6965,1.8245,1.8761,1.9752,2.0528,2.106,2.1203,2.1211,2.1211,2.1211,2.1211,2.1211,2.1211,2.1211,2.1211,2.1211,2.1211,2.1211,2.1211,2.1211,2.1211,2.1211,2.1211,-2.9113,-2.8938,-2.8686,-2.9765,0.0,0.0,-3.4912,-3.6186,-3.7483,-3.8714,-3.8491,-3.8336,-3.9179,-3.8659,-3.8202,-3.8569,-3.7762,-3.6993,-3.6726,-3.6723,-3.6597,-3.6254,-3.5843,-3.5556,-3.5408,-3.4889,-3.4375,-3.3821,-3.3137,-3.1665,-2.9318,-2.6889,-2.4684,-2.2604,-2.1146,-1.8504,-1.4613,-1.2662,-1.0289,-0.7617,-0.6037,-0.5652,-0.6125,-0.5326,-0.4197,-0.2717,0.0696,0.2504,0.2981,0.3004,0.2612,0.201,0.3314,0.4117,0.4618,0.4931,0.5534,0.6237,0.6334,0.6634,0.7033,0.8612,0.9176,0.9666,1.1239,1.2057,1.2434,1.2651,1.3012,1.3534,1.4641,1.5435,1.5986,1.6299,1.6511,1.6611,1.6611,1.6611,1.6399,1.5749,1.553,1.5749,1.6505,1.6611,1.6611,1.6723,1.7364,1.7477,1.6829,1.7842,1.8877,1.9304,1.9854,2.0489,2.1174,2.1211,2.1211,2.1211,2.1211,2.1211,2.1211,2.1653,2.1987,2.1987,2.2425,2.2418,2.1987,2.1432,2.1211,2.1211,2.1211,2.1211,-2.8842,-2.8073,-2.7458,-2.9793,-3.0526,0.0,-3.4628,-3.5355,-3.5841,-3.7475,-3.7847,-3.8151,-3.8953,-3.8518,-3.8316,-3.918,-3.8598,-3.7657,-3.6514,-3.6396,-3.6254,-3.5843,-3.5293,-3.5235,-3.6033,-3.5163,-3.4492,-3.4464,-3.3345,-3.1589,-2.9167,-2.7576,-2.5664,-2.338,-2.2509,-1.9793,-1.5056,-1.3259,-1.06,-0.7129,-0.4351,-0.3756,-0.5066,-0.3537,-0.2311,-0.1139,0.6126,0.7569,0.4977,0.7464,0.7015,0.4712,0.6019,0.6915,0.7211,0.6828,0.7129,0.7826,0.7826,0.812,0.8609,0.9895,1.0485,1.1002,1.2475,1.3237,1.3746,1.4034,1.4456,1.4967,1.5624,1.6511,1.7279,1.7687,1.7687,1.7582,1.7582,1.7687,1.7793,1.7786,1.7681,1.7687,1.7786,1.7687,1.7694,1.7911,1.8122,1.822,1.8016,1.8653,1.9197,1.9562,2.0099,2.07,2.1435,2.1517,2.1539,2.1432,2.1432,2.1432,2.1432,2.2425,2.3087,2.3199,2.4172,2.4172,2.3199,2.1987,2.1318,2.1211,2.1318,2.1432,-2.7676,-2.7168,-2.7048,-2.7593,-2.8756,0.0,-3.1482,-3.2287,-3.3233,-3.4958,-3.5683,-3.6288,-3.7155,-3.7084,-3.7194,-3.8077,-3.7574,-3.6988,-3.6745,-3.7295,-3.7368,-3.6366,-3.5967,-3.57,-3.5567,-3.5014,-3.4506,-3.4114,-3.1917,-3.0738,-3.1087,-2.7639,-2.5264,-2.4496,-2.3486,-2.0244,-1.455,-1.3781,-1.0588,-0.4891,-0.3751,-0.1881,0.0359,-0.0,0.1575,0.4809,0.675,0.8058,0.8887,1.0915,0.9498,0.6119,0.7223,0.772,0.7918,0.8212,0.8609,0.8901,0.9099,0.987,1.0937,1.1643,1.2415,1.3284,1.4051,1.4569,1.488,1.5632,1.5875,1.6333,1.7809,1.7681,1.7483,1.861,1.8199,1.7582,1.7582,1.8304,1.8916,1.9117,1.8297,1.7891,1.8715,1.8318,1.7911,1.8016,1.8923,1.9324,1.8422,1.9457,2.0335,2.0628,2.1224,2.2201,2.3384,2.3792,2.3631,2.2757,2.2652,2.2652,2.2652,2.2869,2.3416,2.4394,2.4616,2.4616,2.4394,2.3191,2.2093,2.1211,2.2207,2.2652,-2.8277,-2.7262,-2.6419,-2.6886,-2.795,0.0,0.0,-3.1409,-3.2243,-3.3125,-3.3884,-3.4525,-3.4899,-3.5253,-3.5778,-3.6628,-3.6836,-3.6719,-3.6219,-3.728,-3.7887,-3.7268,-3.7024,-3.6842,-3.6711,-3.6041,-3.531,-3.4587,-3.2144,-3.1124,-3.2041,-2.9099,-2.699,-2.6335,-2.5102,-2.1458,-1.5175,-1.454,-1.0605,-0.3374,-0.231,-0.0533,0.1961,0.3366,0.4931,0.6619,0.8332,0.9731,1.09,1.2571,1.2204,1.0599,1.0551,1.0667,1.0863,1.0369,1.084,1.1706,1.1424,1.2185,1.3233,1.3663,1.4626,1.5569,1.5507,1.6096,1.6854,1.7552,1.7875,1.8266,1.9249,1.9317,1.9242,1.9849,1.9642,1.9228,1.9435,1.9849,2.0451,2.1261,2.0436,1.9826,2.0333,2.0048,1.9753,1.9952,2.0656,2.0861,2.0357,2.0971,2.1526,2.1779,2.2184,2.2928,2.4019,2.4233,2.42,2.3838,2.3855,2.3855,2.3855,2.4411,2.5305,2.6499,2.6509,2.6173,2.5626,2.4965,2.4086,2.2974,2.3519,2.3855,-2.8962,-2.7604,-2.6314,-2.6858,-2.7647,-2.8684,0.0,0.0,0.0,-3.1523,-3.2186,-3.2751,-3.2635,-3.317,-3.384,-3.4481,-3.5243,-3.5515,-3.4831,-3.6245,-3.7395,-3.7502,-3.7695,-3.7832,-3.7751,-3.7579,-3.6913,-3.5586,-3.3588,-3.2434,-3.24,-3.0216,-2.8539,-2.7598,-2.5803,-2.2088,-1.6126,-1.4741,-1.0149,-0.2215,-0.053,0.1324,0.3541,0.6774,0.8127,0.791,1.0571,1.186,1.2121,1.4256,1.5277,1.5411,1.4272,1.3974,1.3896,1.2984,1.3442,1.4493,1.4112,1.4671,1.5617,1.594,1.672,1.7382,1.6908,1.7559,1.854,1.9091,1.9508,1.9873,2.0504,2.0761,2.1001,2.1269,2.1183,2.1081,2.1277,2.1481,2.1988,2.3194,2.2776,2.2265,2.2055,2.1667,2.1582,2.1988,2.2291,2.2383,2.219,2.2593,2.2805,2.2912,2.3117,2.3618,2.4447,2.4747,2.4849,2.4937,2.5023,2.5067,2.5067,2.6182,2.7295,2.8291,2.8291,2.7853,2.6862,2.6862,2.6073,2.4727,2.4948,2.5067,-2.8068,-2.7508,-2.7749,-2.7084,-2.7561,-2.8462,-2.944,0.0,-2.9784,-2.9788,0.0,-3.0905,-3.0897,0.0,0.0,-3.0895,-3.1081,-3.1409,-3.189,-3.35,-3.4901,-3.5618,-3.7045,-3.7688,-3.692,-3.9325,-3.9797,-3.7095,-3.6384,-3.4914,-3.219,-2.9118,-2.7185,-2.6632,-2.3384,-2.0096,-1.6826,-1.3625,-0.8394,-0.1235,0.1391,0.4856,0.8949,1.0201,1.1166,1.2008,1.3199,1.34,1.3137,1.7885,1.8956,1.7581,1.7014,1.5725,1.4453,1.6021,1.6135,1.5778,1.7066,1.7717,1.801,1.828,1.8288,1.8303,1.848,1.8611,1.8907,1.9397,1.9454,1.9654,2.1561,2.1362,2.1072,2.2707,2.2089,2.1277,2.1558,2.2173,2.2885,2.3484,2.4106,2.4214,2.3285,2.2484,2.1988,2.2089,2.3085,2.3493,2.2584,2.3285,2.3908,2.3954,2.4299,2.4979,2.6002,2.6804,2.6816,2.5782,2.6109,2.63,2.63,2.7403,2.8184,2.8291,2.8291,2.8184,2.8067,2.8067,2.6952,2.4727,2.5845,2.63,-3.0382,-2.9202,-2.864,-2.9013,-2.9195,-2.958,-3.0646,-3.0535,-2.9913,-2.8902,0.0,0.0,0.0,0.0,0.0,0.0,-2.9806,-3.0621,-3.0836,-3.2041,-3.3532,-3.5194,-3.6898,-3.7806,-3.744,-3.9438,-3.9709,-3.7246,-3.7374,-3.6251,-3.3251,-3.0714,-2.8884,-2.7934,-2.4107,-2.0298,-1.6775,-1.2412,-0.6711,0.0351,0.3384,0.6936,1.0958,1.3341,1.4777,1.5382,1.6804,1.7828,1.8772,2.0814,2.1637,2.164,2.2265,2.1006,1.8894,1.9018,1.9315,1.9612,1.9949,2.0596,2.1425,2.185,2.0801,1.9679,2.1105,2.1221,2.0925,2.1002,2.1195,2.1671,2.2627,2.2847,2.3019,2.4015,2.3818,2.3511,2.3701,2.4007,2.4421,2.4815,2.5128,2.5235,2.4815,2.4313,2.4016,2.4214,2.4716,2.4922,2.4412,2.4716,2.502,2.502,2.5191,2.5599,2.6367,2.6719,2.6924,2.6989,2.7292,2.752,2.752,2.8184,2.8514,2.8291,2.8398,2.8514,2.8291,2.8291,2.7736,2.6834,2.7295,2.752,-3.2189,-3.0763,-2.9889,-3.106,-3.1139,-3.1246,-3.2373,-3.2013,-3.089,-2.8899,-2.8616,0.0,0.0,0.0,-2.766,-2.692,0.0,-2.8855,-2.8984,-2.9667,0.0,0.0,0.0,-3.7129,-3.783,-3.9973,-4.0302,-3.7851,-3.8728,-3.7657,-3.3759,-3.1781,-2.9964,-2.8291,-2.3692,-1.9788,-1.6831,-1.0256,-0.4,0.1831,0.6028,1.0055,1.3828,1.6524,1.8124,1.8801,2.0311,2.1647,2.28,2.3875,2.4759,2.5633,2.7024,2.6386,2.4514,2.2765,2.2408,2.2814,2.2766,2.3315,2.4084,2.4426,2.3201,2.1906,2.3521,2.3627,2.3105,2.2775,2.2907,2.3233,2.3296,2.4002,2.4716,2.4957,2.5237,2.5509,2.5897,2.5616,2.543,2.6004,2.5917,2.5742,2.5742,2.5538,2.544,2.5635,2.5742,2.5742,2.5742,2.5732,2.583,2.5732,2.5732,2.5957,2.6271,2.6426,2.6924,2.7783,2.8125,2.8291,2.8291,2.8514,2.8631,2.8398,2.8621,2.8621,2.8408,2.8408,2.8408,2.8408,2.8291,2.8291,-3.2246,-3.1618,-3.1835,-3.2789,-3.3056,-3.3343,-3.4294,-3.3895,-3.2578,-2.9982,-2.8148,-2.6693,-2.5805,0.0,0.0,0.0,0.0,0.0,0.0,0.0,0.0,0.0,0.0,0.0,0.0,-4.1691,-4.2824,-3.9581,-4.1152,-3.9447,-3.2988,-3.123,-2.9234,-2.6553,-2.064,-1.7441,-1.7314,-0.6572,0.0084,0.2749,0.9542,1.5063,1.9275,1.986,2.1043,2.2683,2.3484,2.3436,2.3095,2.7239,2.8879,2.875,3.0028,3.0706,3.069,2.7439,2.5406,2.4397,2.5532,2.5848,2.5652,2.4957,2.4872,2.5041,2.5316,2.5221,2.4872,2.4211,2.3887,2.3747,2.3502,2.4455,2.5534,2.5461,2.6164,2.6924,2.74,2.637,2.5713,2.6914,2.637,2.5742,2.5742,2.5732,2.5732,2.5742,2.5742,2.5742,2.5742,2.5917,2.6004,2.5732,2.5917,2.61,2.612,2.6604,2.7353,2.8223,2.8281,2.8291,2.8291,2.8514,2.8737,2.8737,2.8737,2.8737,2.8737,2.8737,2.8737,2.8737,2.8408,2.8291,-3.2716,-3.2243,-3.2449,-3.43,-3.447,-3.4675,-3.655,-3.548,-3.3355,-3.0817,-2.9366,-2.7943,-2.5913,0.0,0.0,0.0,0.0,0.0,0.0,0.0,0.0,0.0,0.0,0.0,0.0,0.0,-3.8947,-3.8516,-3.9874,-3.8639,-3.3827,-3.241,-3.0417,-2.7565,-2.1374,-1.646,-1.3107,-0.3897,0.3253,0.8238,1.409,1.8371,2.1269,2.3789,2.5399,2.6337,2.7131,2.7275,2.7196,2.8879,2.9889,3.05,3.1153,3.2009,3.2566,2.9605,2.8215,2.7862,2.8452,2.844,2.827,2.8567,2.7577,2.6431,2.7151,2.6532,2.5557,2.5284,2.5221,2.5168,2.5343,2.6158,2.7004,2.7489,2.7871,2.8308,2.868,2.8215,2.784,2.8308,2.8132,2.7851,2.7851,2.7757,2.721,2.5917,2.6839,2.7305,2.61,2.6658,2.6849,2.6304,2.61,2.61,2.61,2.6794,2.7426,2.7722,2.8295,2.8514,2.8514,2.8824,2.893,2.893,2.9142,2.9142,2.893,2.893,2.893,2.893,2.8814,2.8717,-3.2991,-3.2692,-3.2847,-3.477,-3.5084,-3.5435,-3.7354,-3.6235,-3.4204,-3.2029,-3.0164,-2.8368,-2.6683,-2.5608,0.0,0.0,0.0,0.0,0.0,-2.5428,0.0,0.0,0.0,0.0,0.0,0.0,0.0,0.0,0.0,0.0,-3.4717,-3.3775,-3.0548,-2.4405,-1.872,-1.2549,-0.5912,0.2187,0.8232,1.2311,1.7595,2.1407,2.372,2.6442,2.8352,2.9431,2.9883,3.023,3.0617,3.0866,3.1751,3.2877,3.2998,3.3813,3.4611,3.1938,3.0817,3.0517,3.0366,3.0265,3.015,3.0706,2.9872,2.8638,2.9269,2.8736,2.774,2.7183,2.6962,2.6787,2.6609,2.7375,2.8181,2.842,2.9105,2.9784,3.0056,2.959,2.9235,2.9601,2.9418,2.9131,2.9131,2.9326,2.8866,2.7115,2.7945,2.8308,2.7295,2.7494,2.7505,2.703,2.6668,2.6547,2.6957,2.7605,2.8263,2.8773,2.926,2.9662,2.9932,2.9848,2.9826,3.0085,2.9731,2.9731,3.0085,2.9931,2.9848,2.9848,2.9848,2.9544]},{"header":{"parameterUnit":"m.s-1","parameterCategory":1,"la1":30.6,"la2":29.2853,"lo1":-89.7004,"lo2":-87.6739,"dx":0.0162,"dy":0.0183,"nx":112,"ny":82,"refTime":"2022-12-04T06:00:00:Z","depth":0,"parameterNumber":3,"parameterNumberName":"V-component_of_WINDS"},"data":[0.0,0.0,0.0,0.0,0.0,0.0,0.0,0.0,0.0,0.0,0.0,0.0,0.0,0.0,0.0,0.0,0.0,0.0,0.0,0.0,0.0,0.0,0.0,0.0,0.0,0.0,0.0,0.0,0.0,0.0,0.0,0.0,0.0,0.0,0.0,0.0,0.0,0.0,0.0,0.0,0.0,0.0,0.0,0.0,0.0,0.0,0.0,0.0,0.0,0.0,0.0,0.0,0.0,0.0,0.0,0.0,0.0,0.0,0.0,0.0,0.0,0.0,0.0,0.0,0.0,0.0,0.0,0.0,0.0,0.0,0.0,0.0,0.0,0.0,0.0,0.0,0.0,0.0,0.0,0.0,0.0,0.0,0.0,0.0,0.0,0.0,0.0,0.0,0.0,0.0,-3.6119,-3.7923,-3.7487,-3.7031,-3.6911,-3.77,-3.6392,-3.216,0.0,0.0,0.0,0.0,0.0,0.0,0.0,0.0,0.0,0.0,0.0,0.0,0.0,0.0,0.0,0.0,0.0,0.0,0.0,0.0,0.0,0.0,0.0,0.0,0.0,0.0,0.0,0.0,0.0,0.0,0.0,0.0,0.0,0.0,0.0,0.0,0.0,0.0,0.0,0.0,0.0,0.0,0.0,0.0,0.0,0.0,0.0,0.0,0.0,0.0,0.0,0.0,0.0,0.0,0.0,0.0,0.0,0.0,0.0,0.0,0.0,0.0,0.0,0.0,0.0,0.0,0.0,0.0,0.0,0.0,0.0,0.0,0.0,0.0,0.0,0.0,0.0,0.0,0.0,0.0,0.0,0.0,0.0,0.0,0.0,0.0,0.0,0.0,0.0,0.0,0.0,0.0,0.0,0.0,0.0,0.0,0.0,0.0,0.0,0.0,0.0,0.0,0.0,0.0,-3.7067,-3.8834,-3.8888,-3.8539,-3.7873,-3.8604,-3.7276,-3.2987,0.0,0.0,0.0,0.0,0.0,0.0,0.0,0.0,0.0,0.0,0.0,0.0,0.0,0.0,0.0,0.0,0.0,0.0,0.0,0.0,0.0,0.0,0.0,0.0,0.0,0.0,0.0,0.0,0.0,0.0,0.0,0.0,0.0,0.0,0.0,0.0,0.0,0.0,0.0,0.0,0.0,0.0,0.0,0.0,0.0,0.0,0.0,0.0,0.0,0.0,0.0,0.0,0.0,0.0,0.0,0.0,0.0,0.0,0.0,0.0,0.0,0.0,0.0,0.0,0.0,0.0,0.0,0.0,0.0,0.0,0.0,0.0,0.0,0.0,0.0,0.0,0.0,0.0,0.0,0.0,0.0,0.0,0.0,0.0,0.0,0.0,0.0,0.0,0.0,0.0,0.0,0.0,0.0,0.0,0.0,0.0,0.0,0.0,0.0,0.0,0.0,0.0,0.0,-3.6434,-3.7929,-3.7836,-3.8255,-3.8174,-3.7373,-3.8527,-3.7276,-3.2545,-3.3519,0.0,0.0,0.0,0.0,0.0,0.0,0.0,0.0,0.0,0.0,0.0,0.0,0.0,0.0,0.0,0.0,0.0,0.0,0.0,0.0,0.0,0.0,0.0,0.0,0.0,0.0,0.0,0.0,0.0,0.0,0.0,0.0,0.0,0.0,0.0,0.0,0.0,0.0,0.0,0.0,0.0,0.0,0.0,0.0,0.0,0.0,0.0,0.0,0.0,0.0,0.0,0.0,0.0,0.0,0.0,0.0,0.0,0.0,0.0,0.0,0.0,0.0,0.0,0.0,0.0,0.0,0.0,0.0,0.0,0.0,0.0,0.0,0.0,0.0,0.0,0.0,0.0,0.0,0.0,0.0,0.0,0.0,0.0,0.0,0.0,0.0,0.0,0.0,0.0,0.0,0.0,0.0,0.0,0.0,0.0,0.0,0.0,0.0,0.0,0.0,0.0,0.0,-3.7099,-3.8831,-3.7421,-3.782,-3.7855,-3.7036,-3.8584,-3.7411,-3.2314,-3.4326,0.0,0.0,0.0,0.0,0.0,0.0,0.0,0.0,0.0,0.0,0.0,0.0,0.0,0.0,0.0,0.0,0.0,0.0,0.0,0.0,0.0,0.0,0.0,0.0,0.0,0.0,0.0,0.0,0.0,0.0,0.0,0.0,0.0,0.0,0.0,0.0,0.0,0.0,0.0,0.0,0.0,0.0,0.0,0.0,0.0,0.0,0.0,0.0,0.0,0.0,0.0,0.0,0.0,0.0,0.0,0.0,0.0,0.0,0.0,0.0,0.0,0.0,0.0,0.0,0.0,0.0,0.0,0.0,0.0,0.0,0.0,0.0,0.0,0.0,0.0,0.0,0.0,0.0,0.0,0.0,0.0,0.0,0.0,0.0,0.0,0.0,0.0,0.0,0.0,0.0,0.0,0.0,0.0,0.0,0.0,0.0,0.0,0.0,0.0,0.0,0.0,0.0,-3.7636,-3.9889,-3.9025,-3.898,-3.8687,-3.7874,-3.9415,-3.8238,-3.3141,-3.5199,0.0,0.0,0.0,0.0,0.0,0.0,0.0,0.0,0.0,0.0,0.0,0.0,0.0,0.0,0.0,0.0,0.0,0.0,0.0,0.0,0.0,0.0,0.0,0.0,0.0,0.0,0.0,0.0,0.0,0.0,0.0,0.0,0.0,0.0,0.0,0.0,0.0,0.0,0.0,0.0,0.0,0.0,0.0,0.0,0.0,0.0,0.0,0.0,0.0,0.0,0.0,0.0,0.0,0.0,0.0,0.0,0.0,0.0,0.0,0.0,0.0,0.0,0.0,0.0,0.0,0.0,0.0,0.0,0.0,0.0,0.0,0.0,0.0,0.0,0.0,0.0,0.0,0.0,0.0,0.0,0.0,0.0,0.0,0.0,0.0,0.0,0.0,0.0,0.0,0.0,0.0,0.0,0.0,0.0,0.0,0.0,0.0,0.0,0.0,0.0,0.0,0.0,-3.5999,-3.859,-3.8319,-3.8793,-3.8772,-3.7977,-3.9964,-3.9073,-3.3967,0.0,0.0,0.0,0.0,0.0,0.0,0.0,0.0,0.0,0.0,0.0,0.0,0.0,0.0,0.0,0.0,0.0,0.0,0.0,0.0,0.0,0.0,0.0,0.0,0.0,0.0,0.0,0.0,0.0,0.0,0.0,0.0,0.0,0.0,0.0,0.0,0.0,0.0,0.0,0.0,0.0,0.0,0.0,0.0,0.0,0.0,0.0,0.0,0.0,0.0,0.0,0.0,0.0,0.0,0.0,0.0,0.0,0.0,0.0,0.0,0.0,0.0,0.0,0.0,0.0,0.0,0.0,0.0,0.0,0.0,0.0,0.0,0.0,0.0,0.0,0.0,0.0,0.0,0.0,0.0,0.0,0.0,0.0,0.0,0.0,0.0,0.0,0.0,0.0,0.0,0.0,0.0,0.0,0.0,0.0,0.0,0.0,0.0,0.0,0.0,0.0,0.0,-3.1993,-3.5446,-3.8246,-3.855,-3.9122,-3.9157,-3.8348,-4.0639,-4.006,-3.5235,0.0,0.0,0.0,0.0,0.0,0.0,0.0,0.0,0.0,0.0,0.0,0.0,0.0,0.0,0.0,0.0,0.0,0.0,0.0,0.0,0.0,0.0,0.0,0.0,0.0,0.0,0.0,0.0,0.0,0.0,0.0,0.0,0.0,0.0,0.0,0.0,0.0,0.0,0.0,0.0,0.0,0.0,0.0,0.0,0.0,0.0,0.0,0.0,0.0,0.0,0.0,0.0,0.0,0.0,0.0,0.0,0.0,0.0,0.0,0.0,0.0,0.0,0.0,0.0,0.0,0.0,0.0,0.0,0.0,0.0,0.0,0.0,0.0,0.0,0.0,0.0,0.0,0.0,0.0,0.0,0.0,0.0,0.0,0.0,0.0,0.0,0.0,0.0,0.0,0.0,0.0,0.0,0.0,0.0,0.0,0.0,0.0,0.0,0.0,0.0,0.0,0.0,-3.302,-3.6413,-3.9336,-4.0215,-4.029,-3.998,-3.9188,-4.1502,-4.1209,0.0,0.0,0.0,0.0,0.0,0.0,0.0,0.0,0.0,0.0,0.0,0.0,0.0,0.0,0.0,0.0,0.0,0.0,0.0,0.0,0.0,0.0,0.0,0.0,0.0,0.0,0.0,0.0,0.0,0.0,0.0,0.0,0.0,0.0,0.0,0.0,0.0,0.0,0.0,0.0,0.0,0.0,0.0,0.0,0.0,0.0,0.0,0.0,0.0,0.0,0.0,0.0,0.0,0.0,0.0,0.0,0.0,0.0,0.0,0.0,0.0,0.0,0.0,0.0,0.0,0.0,0.0,0.0,0.0,0.0,0.0,0.0,0.0,0.0,0.0,0.0,0.0,0.0,0.0,0.0,0.0,0.0,0.0,0.0,0.0,0.0,0.0,0.0,0.0,0.0,0.0,0.0,0.0,0.0,0.0,0.0,0.0,0.0,0.0,0.0,0.0,0.0,0.0,-3.4697,-3.7655,-3.9813,-3.9485,-3.9962,-4.0229,-4.0015,-4.1848,-4.1959,-3.9538,0.0,0.0,0.0,0.0,0.0,0.0,0.0,0.0,0.0,0.0,0.0,0.0,0.0,0.0,0.0,0.0,0.0,0.0,0.0,0.0,0.0,0.0,0.0,0.0,0.0,0.0,0.0,0.0,0.0,0.0,0.0,0.0,0.0,0.0,0.0,0.0,0.0,0.0,0.0,0.0,0.0,0.0,0.0,0.0,0.0,0.0,0.0,0.0,0.0,0.0,0.0,0.0,0.0,0.0,0.0,0.0,0.0,0.0,0.0,0.0,0.0,0.0,0.0,0.0,0.0,0.0,0.0,0.0,0.0,0.0,0.0,0.0,0.0,0.0,0.0,0.0,0.0,0.0,0.0,0.0,0.0,0.0,0.0,0.0,0.0,0.0,0.0,0.0,0.0,0.0,0.0,0.0,0.0,0.0,0.0,0.0,0.0,0.0,0.0,0.0,0.0,0.0,-3.5897,-3.8113,-3.9736,-3.9599,-4.0001,-4.0325,-4.0432,-4.2002,-4.2453,-4.1185,0.0,0.0,0.0,0.0,0.0,0.0,0.0,0.0,0.0,0.0,0.0,0.0,0.0,0.0,0.0,0.0,0.0,0.0,0.0,0.0,0.0,0.0,0.0,0.0,0.0,0.0,0.0,0.0,0.0,0.0,0.0,0.0,0.0,0.0,0.0,0.0,0.0,0.0,0.0,0.0,0.0,0.0,0.0,0.0,0.0,0.0,0.0,0.0,0.0,0.0,0.0,0.0,0.0,0.0,0.0,0.0,0.0,0.0,0.0,0.0,0.0,0.0,0.0,0.0,0.0,0.0,0.0,0.0,0.0,0.0,0.0,0.0,0.0,0.0,0.0,0.0,0.0,0.0,0.0,0.0,0.0,0.0,0.0,0.0,0.0,0.0,0.0,0.0,0.0,0.0,0.0,0.0,0.0,0.0,0.0,0.0,0.0,0.0,0.0,0.0,0.0,0.0,-3.6967,-3.8323,-3.9622,-4.0345,-4.0479,-4.0572,-4.0732,-4.2132,-4.2787,-4.226,0.0,0.0,0.0,0.0,0.0,0.0,0.0,0.0,0.0,0.0,0.0,0.0,0.0,0.0,0.0,0.0,0.0,0.0,0.0,0.0,0.0,0.0,0.0,0.0,0.0,0.0,0.0,0.0,0.0,0.0,0.0,0.0,0.0,0.0,0.0,0.0,0.0,0.0,0.0,0.0,0.0,0.0,0.0,0.0,0.0,0.0,0.0,0.0,0.0,0.0,0.0,0.0,0.0,0.0,0.0,0.0,0.0,0.0,0.0,0.0,-3.0551,-2.8594,0.0,0.0,0.0,0.0,0.0,0.0,0.0,0.0,0.0,0.0,0.0,0.0,0.0,0.0,0.0,0.0,0.0,0.0,0.0,0.0,0.0,0.0,0.0,0.0,0.0,0.0,0.0,0.0,0.0,0.0,0.0,0.0,0.0,0.0,0.0,0.0,0.0,0.0,0.0,0.0,-3.9603,-4.0959,-4.1819,-4.1379,-4.1932,-4.2389,-4.246,-4.2845,-4.3337,-4.3924,-4.3627,0.0,0.0,0.0,0.0,0.0,0.0,0.0,0.0,0.0,0.0,0.0,0.0,0.0,0.0,0.0,0.0,0.0,0.0,0.0,0.0,0.0,0.0,0.0,0.0,0.0,0.0,0.0,0.0,0.0,0.0,0.0,0.0,0.0,0.0,0.0,0.0,0.0,0.0,0.0,0.0,0.0,0.0,0.0,0.0,0.0,0.0,0.0,0.0,0.0,0.0,0.0,0.0,0.0,0.0,0.0,0.0,0.0,0.0,0.0,-3.287,-3.1319,0.0,0.0,0.0,0.0,0.0,0.0,0.0,0.0,0.0,0.0,0.0,0.0,0.0,0.0,0.0,0.0,0.0,0.0,0.0,0.0,0.0,0.0,0.0,0.0,0.0,0.0,0.0,0.0,0.0,0.0,0.0,0.0,0.0,0.0,0.0,0.0,0.0,0.0,0.0,0.0,-4.0979,-4.1683,-4.229,-4.2326,-4.2784,-4.3125,-4.3192,-4.3621,-4.3928,-4.4063,-4.4495,0.0,0.0,0.0,0.0,0.0,0.0,0.0,0.0,0.0,0.0,0.0,0.0,0.0,0.0,0.0,0.0,0.0,0.0,0.0,0.0,0.0,0.0,0.0,0.0,0.0,0.0,0.0,0.0,0.0,0.0,0.0,0.0,0.0,0.0,0.0,0.0,0.0,0.0,0.0,0.0,0.0,0.0,0.0,0.0,0.0,0.0,0.0,0.0,0.0,0.0,0.0,0.0,0.0,-3.4774,-3.4975,-3.5131,-3.5272,-3.5823,-3.6604,-3.48,-3.4141,-3.4089,-3.1311,0.0,0.0,0.0,0.0,0.0,0.0,0.0,0.0,0.0,0.0,0.0,0.0,0.0,0.0,0.0,0.0,0.0,0.0,0.0,0.0,0.0,0.0,-3.5324,-3.4144,-3.6725,-3.8648,-3.5725,0.0,0.0,0.0,0.0,0.0,0.0,0.0,0.0,0.0,0.0,0.0,-4.1896,-4.2033,-4.2506,-4.3254,-4.3583,-4.3768,-4.3799,-4.4365,-4.4509,-4.4052,-4.5215,-4.4991,0.0,0.0,0.0,0.0,0.0,0.0,0.0,0.0,0.0,0.0,0.0,0.0,0.0,0.0,0.0,0.0,0.0,0.0,0.0,0.0,0.0,0.0,0.0,0.0,0.0,0.0,0.0,0.0,0.0,0.0,0.0,0.0,-2.3036,-2.4888,0.0,0.0,0.0,0.0,0.0,0.0,0.0,0.0,0.0,0.0,0.0,0.0,0.0,-3.3898,-3.506,-3.5981,-3.6612,-3.7028,-3.7741,-3.812,-3.8151,-3.8151,-3.8236,-3.8377,-3.8096,0.0,-3.5948,-3.5374,0.0,0.0,0.0,0.0,0.0,0.0,0.0,0.0,0.0,0.0,0.0,0.0,0.0,0.0,0.0,0.0,0.0,0.0,0.0,0.0,0.0,0.0,-3.8593,-3.9127,-4.0234,-4.0864,-3.9718,-3.8457,-3.7502,-3.7387,-3.8075,-3.9202,0.0,0.0,0.0,0.0,0.0,0.0,-4.3011,-4.3627,-4.4227,-4.4297,-4.5015,-4.5471,-4.5491,-4.4997,-4.5017,-4.5728,-4.5372,-4.5004,-4.468,-4.425,0.0,0.0,0.0,0.0,0.0,0.0,0.0,0.0,0.0,0.0,0.0,0.0,0.0,0.0,0.0,0.0,0.0,0.0,0.0,0.0,0.0,0.0,0.0,0.0,0.0,0.0,0.0,0.0,0.0,-2.1308,-2.2962,-2.5863,-2.593,-2.615,0.0,0.0,0.0,0.0,0.0,0.0,0.0,0.0,0.0,-3.5442,-3.5724,-3.6331,-3.7325,-3.8127,-3.8423,-3.8193,-3.946,-3.9588,-3.8726,-3.9166,-3.9129,-3.8707,-3.8707,-3.8303,-3.7576,-3.69,-3.6064,-3.5191,0.0,0.0,0.0,0.0,-3.4606,-3.4906,-3.4754,-3.483,-3.4981,-3.5165,0.0,0.0,0.0,0.0,0.0,0.0,0.0,-3.5945,-3.8205,-3.8556,-3.861,-3.9986,-4.0903,-4.1418,-4.1093,-4.0788,-4.0291,-3.9336,-3.987,-4.0997,-4.2622,-4.3921,0.0,0.0,0.0,-4.5291,-4.4635,-4.5054,-4.5759,-4.669,-4.7213,-4.7481,-4.7498,-4.6781,-4.6304,-4.6211,-4.6366,-4.6027,-4.5051,-4.5578,-4.466,0.0,0.0,0.0,0.0,0.0,0.0,0.0,0.0,0.0,0.0,0.0,0.0,0.0,0.0,0.0,0.0,0.0,0.0,0.0,0.0,0.0,0.0,0.0,0.0,0.0,0.0,0.0,0.0,-2.3496,-2.4509,-2.7504,-2.8254,-2.8648,0.0,0.0,0.0,0.0,0.0,0.0,-3.4458,-3.4988,-3.5968,-3.7548,-3.7942,-3.8487,-3.9313,-3.9918,-3.979,-3.9019,-4.023,-4.0065,-3.8726,-3.9313,-3.9276,-3.8707,-3.8707,-3.8579,-3.8328,-3.769,-3.7207,-3.679,-3.619,-3.6349,-3.6741,-3.5556,-3.5362,-3.565,-3.5659,-3.5791,-3.6036,-3.6707,-3.7371,-3.7919,-3.7987,0.0,0.0,0.0,0.0,-3.7619,-4.0015,-3.9833,-3.9336,-4.0635,-4.1418,-4.1858,-4.195,-4.2276,-4.224,-4.115,-4.1494,-4.2374,-4.3749,-4.4786,0.0,-4.5491,-4.594,-4.6244,-4.6197,-4.6502,-4.7213,-4.8505,-4.875,-4.8811,-4.8801,-4.8244,-4.7627,-4.6983,-4.7354,-4.7022,-4.5714,-4.671,-4.6241,-4.4075,0.0,0.0,0.0,0.0,0.0,0.0,0.0,0.0,0.0,0.0,0.0,0.0,0.0,0.0,0.0,0.0,0.0,0.0,0.0,0.0,0.0,0.0,0.0,0.0,0.0,0.0,0.0,0.0,0.0,-3.0993,-3.2439,0.0,0.0,0.0,0.0,-3.4339,-3.5007,-3.5753,-3.6594,-3.7101,-3.8102,-3.9685,-3.9772,-4.0175,-4.0983,-4.1038,-4.0653,-3.9827,-3.9918,-3.9515,-3.8707,-3.8744,-3.8744,-3.8707,-3.8707,-3.8267,-3.7606,-3.834,-3.7972,-3.6975,-3.6939,-3.6463,-3.5864,-3.6608,-3.7088,-3.7477,-3.8248,-3.8524,-3.8524,-3.8579,-3.8789,-3.9073,-3.9327,-3.8877,0.0,0.0,-4.0407,-4.0167,-4.2142,-4.2603,-4.2565,-4.266,-4.2718,-4.2775,-4.2898,-4.2399,-4.209,-4.2564,-4.2827,-4.3169,-4.3865,0.0,-4.563,-4.5524,-4.7129,-4.8083,-4.731,-4.8063,-4.8698,-4.8775,-4.8791,-4.8801,-4.8801,-4.8755,-4.872,-4.8681,-4.7998,-4.7569,-4.7471,-4.6768,-4.5909,-4.4953,-4.4894,0.0,0.0,0.0,0.0,0.0,0.0,0.0,0.0,0.0,0.0,0.0,0.0,0.0,0.0,0.0,0.0,0.0,0.0,0.0,0.0,0.0,0.0,0.0,0.0,0.0,0.0,0.0,0.0,-3.2612,-3.3722,0.0,-3.4142,-3.4534,-3.5095,-3.5757,-3.6374,-3.7249,-3.8507,-3.8875,-3.9533,-4.0653,-4.0671,-4.0818,-4.1111,-4.1625,-4.1479,-4.0689,-4.1717,-4.124,-3.9478,-4.001,-3.968,-3.8707,-3.8707,-3.8542,-3.8285,-3.8579,-3.8151,-3.7418,-3.846,-3.8679,-3.8496,-3.9337,-3.9713,-3.9863,-4.0157,-4.0249,-4.0281,-4.0455,-4.0585,-4.0738,-4.1229,-4.1161,-4.1116,-4.1963,-4.1987,-4.1931,-4.2621,-4.2794,-4.2794,-4.2794,-4.3694,-4.4568,-4.4655,-4.5383,-4.61,-4.6345,-4.4211,-4.3129,-4.5514,-4.5838,-4.6331,-4.8004,-4.8448,-4.8701,-4.9056,-4.9413,-4.9853,-5.0416,-5.0479,-5.0464,-5.0473,-4.9965,-4.9638,-4.9638,-4.9364,-4.874,-4.7647,-4.7803,-4.7256,-4.5851,-4.5831,-4.5539,0.0,0.0,0.0,0.0,0.0,0.0,0.0,0.0,0.0,0.0,0.0,0.0,0.0,0.0,0.0,0.0,0.0,0.0,0.0,0.0,0.0,0.0,0.0,0.0,0.0,-3.0229,-3.1585,-3.302,-3.4339,-3.4958,-3.4622,-3.5444,-3.6182,-3.6687,-3.7307,-3.83,-3.9582,-3.9804,-4.0364,-4.1479,-4.1515,-4.1644,-4.1919,-4.2708,-4.2708,-4.1937,-4.3259,-4.2928,-4.113,-4.1662,-4.1332,-4.0322,-4.0322,-4.0322,-4.0304,-4.0029,-3.9606,-3.9129,-3.9386,-3.9496,-3.9551,-4.0102,-4.0304,-4.0341,-4.0616,-4.0708,-4.079,-4.1415,-4.1633,-4.1744,-4.2332,-4.2528,-4.2626,-4.3078,-4.3424,-4.3711,-4.3978,-4.4326,-4.4595,-4.4595,-4.5566,-4.6503,-4.6564,-4.7539,-4.8419,-4.8518,-4.6185,-4.4878,-4.7066,-4.7094,-4.7478,-4.9504,-4.9401,-4.9445,-5.0426,-5.0536,-5.0864,-5.1752,-5.1835,-5.1835,-5.1843,-5.1843,-5.1472,-5.0594,-5.0809,-5.0223,-4.8505,-4.8954,-4.8584,-4.7178,-4.6859,-4.6569,-4.6256,0.0,0.0,0.0,0.0,0.0,0.0,0.0,0.0,0.0,0.0,0.0,0.0,0.0,0.0,0.0,0.0,0.0,0.0,0.0,0.0,0.0,0.0,0.0,-3.1479,-3.1913,-3.2249,-3.2489,-3.4519,-3.5457,-3.4383,-3.5955,-3.7071,-3.7126,-3.7834,-3.8718,-3.9758,-3.9845,-4.061,-4.2323,-4.2378,-4.2763,-4.3552,-4.436,-4.436,-4.3571,-4.4378,-4.4323,-4.3534,-4.3534,-4.3516,-4.3497,-4.3497,-4.3497,-4.3424,-4.2653,-4.2341,-4.2103,-3.9735,-3.8799,-3.8781,-3.8799,-3.8799,-3.8891,-3.9698,-3.9955,-4.0209,-4.153,-4.1999,-4.2121,-4.2747,-4.2928,-4.3119,-4.3902,-4.4723,-4.5564,-4.6347,-4.7317,-4.8105,-4.8105,-4.8292,-4.8464,-4.853,-4.8612,-4.8711,-4.8857,-4.8739,-4.8557,-4.8372,-4.8612,-4.9064,-4.9742,-5.0038,0.0,-5.1338,-5.1455,-5.1796,-5.2644,-5.2741,-5.2741,-5.2741,-5.4283,-5.4166,-5.1609,-5.2234,-5.1921,-5.0165,-5.0106,-4.9677,-4.8782,-4.7946,-4.7109,-4.623,0.0,0.0,0.0,0.0,0.0,0.0,0.0,0.0,0.0,0.0,0.0,0.0,0.0,0.0,0.0,0.0,0.0,0.0,0.0,0.0,0.0,-2.8547,-2.9947,-3.1556,-3.3016,-3.4147,-3.4778,-3.5417,-3.596,-3.6272,-3.6232,-3.6662,-3.7889,-3.7699,-3.8401,-4.0404,-4.0665,-4.1757,-4.3975,-4.4048,-4.4433,-4.5223,-4.5461,-4.5461,-4.5241,-4.5461,-4.5149,-4.4378,-4.4378,-4.4048,-4.3497,-4.3497,-4.3497,-4.3461,-4.3259,-4.3167,-4.3039,-4.1791,-4.0946,-4.0524,-4.1111,-4.0946,-4.0561,-4.1368,-4.1644,-4.1885,-4.3249,-4.412,-4.4764,-4.5319,-4.5927,-4.6481,-4.6691,-4.694,-4.7169,-4.7398,-4.7758,-4.8105,-4.8105,-4.8778,-4.9423,-4.9446,-5.0033,-5.0583,-5.0618,-5.1089,-5.1064,-4.9751,-4.9648,-4.999,-5.0782,-5.1518,-5.2069,-5.2313,-5.2889,-5.3381,-5.362,-5.3639,-5.3639,-5.3639,-5.4088,-5.3776,-5.2429,-5.2565,-5.1921,-5.0165,-5.0106,-4.9394,-4.7888,-4.8199,-4.7935,0.0,0.0,0.0,0.0,0.0,0.0,0.0,0.0,0.0,0.0,0.0,0.0,0.0,0.0,0.0,0.0,0.0,0.0,0.0,0.0,0.0,0.0,-2.947,-3.0434,-3.1514,-3.2641,-3.3668,-3.4583,-3.4755,-3.5193,-3.6164,-3.6113,-3.6504,-3.7678,-3.7998,-3.8885,-4.0664,-4.1549,-4.2789,-4.451,-4.5003,-4.5388,-4.5828,-4.6214,-4.6416,-4.6416,-4.6746,-4.6673,-4.6214,-4.6214,-4.5957,-4.5498,-4.5498,-4.5498,-4.548,-4.5149,-4.5021,-4.4856,0.0,0.0,0.0,0.0,-4.2506,-4.2231,-4.3039,-4.3398,-4.3721,-4.5028,-4.5885,-4.649,-4.6923,-4.7398,-4.7799,-4.7799,-4.8094,-4.8447,-4.8447,-4.8893,-4.9366,-4.9366,-4.9899,-5.052,-5.0899,-5.1423,-5.1943,-5.2321,-5.2797,0.0,-5.181,-5.1681,-5.198,-5.2812,-5.3103,-5.3391,-5.3747,-5.3908,-5.4147,-5.4517,-5.4537,-5.4537,-5.4537,-5.5181,0.0,0.0,0.0,-5.3549,-5.1765,-5.0993,0.0,0.0,0.0,-4.861,-4.7401,-4.7891,0.0,0.0,-4.4557,-4.4626,0.0,0.0,0.0,0.0,0.0,0.0,0.0,0.0,0.0,0.0,0.0,0.0,0.0,0.0,0.0,0.0,-3.033,-3.16,-3.1343,-3.1492,-3.2018,-3.3066,-3.3386,-3.397,-3.5117,-3.5864,-3.6557,-3.7232,-3.8606,-3.9837,-4.0778,-4.234,0.0,0.0,0.0,-4.6012,-4.6065,-4.6836,-4.7222,-4.7222,-4.7937,-4.8306,-4.8306,-4.8306,-4.8306,-4.8306,-4.8306,-4.8306,-4.8251,-4.7535,-4.726,-4.7021,-4.458,-4.3626,-4.3608,-4.3516,-4.3497,-4.3608,-4.4415,0.0,0.0,-4.6529,-4.7183,-4.7587,-4.7865,-4.8009,-4.8086,-4.8086,-4.8755,-4.9452,-4.9452,-5.0268,-5.1105,-5.1105,-5.1288,-5.1671,-5.243,-5.2684,-5.2984,-5.374,-5.3981,-5.4047,-5.4047,-5.3982,-5.4177,-5.4942,-5.4621,-5.4548,-5.5201,-5.4791,-5.4693,-5.5376,-5.5454,0.0,-5.5454,-5.6801,-5.6665,-5.4303,-5.5497,-5.5534,-5.3828,-5.2267,-5.1347,-5.1152,-5.0316,-4.9122,-4.7537,-4.7476,-4.7045,-4.6318,-4.6943,-4.6889,0.0,0.0,0.0,0.0,0.0,0.0,0.0,0.0,0.0,0.0,0.0,0.0,0.0,0.0,0.0,-2.9295,-3.0172,-3.0933,-3.1465,-3.1658,-3.2127,-3.3099,-3.3768,-3.4618,-3.5936,-3.6221,-3.7023,-3.8791,-3.9275,-4.0108,-4.1596,-4.265,-4.3871,-4.533,-4.6189,-4.6919,-4.7576,-4.7722,-4.7892,-4.8007,-4.8153,0.0,-4.8306,-4.8306,-4.8306,-4.8306,-4.8306,-4.8306,-4.8306,-4.8141,-4.8086,-4.7829,-4.5424,-4.447,-4.4397,-4.3736,-4.3497,-4.3608,-4.4415,-4.4915,-4.54,-4.6529,-4.756,-4.8422,-4.8743,-4.9289,0.0,-4.9824,-5.0078,-5.0356,-5.0356,-5.0712,-5.1105,-5.1105,-5.1736,-5.2391,-5.2567,-5.3151,-5.3705,-5.3876,-5.4468,-5.4943,-5.4956,-5.4415,-5.4045,-5.4206,-5.5309,-5.5899,-5.5376,-5.6333,-5.6879,-5.6391,-5.6352,-5.6352,-5.6352,-5.6645,-5.6313,-5.5123,-5.464,-5.3945,-5.2908,-5.2473,-5.1615,-5.0199,-4.9994,-4.939,-4.8379,-4.8358,-4.825,-4.8075,-4.6844,-4.6552,0.0,0.0,0.0,0.0,0.0,0.0,0.0,0.0,0.0,0.0,0.0,-2.6143,-2.8451,0.0,-2.8547,-2.9837,-3.0596,-3.1205,-3.1527,-3.2293,-3.3004,-3.3546,-3.3994,-3.499,-3.6914,-3.6825,-3.7474,-3.9443,-3.9929,-4.0542,-4.1409,-4.2921,-4.4251,-4.5412,-4.6309,-4.7168,-4.7947,-4.7951,-4.8032,-4.809,-4.8187,-4.8226,-4.8247,-4.8267,-4.8306,-4.8306,-4.8306,-4.8306,-4.8306,-4.8306,-4.8306,-4.8196,-4.6985,-4.6507,-4.6452,-4.6049,-4.6027,-4.6205,-4.6611,-4.7076,-4.7596,-4.8174,-4.8856,-4.9491,-4.9667,-4.9977,-5.0302,-5.0302,-5.0488,-5.0696,-5.0696,-5.1269,-5.1852,-5.1853,-5.2561,-5.3381,-5.3814,-5.4242,-5.4679,-5.5124,-5.5548,-5.5854,-5.584,-5.5558,-5.5445,-5.5836,-5.7011,-5.7699,-5.727,-5.7933,-5.8304,-5.7894,-5.7815,-5.7647,-5.7237,-5.6776,-5.6308,-5.5879,-5.5006,-5.4309,-5.3871,-5.3368,-5.2689,-5.1814,-5.1372,-5.093,-5.0503,-5.0095,-4.9901,-4.9881,-4.9007,-4.8366,0.0,0.0,0.0,0.0,0.0,0.0,0.0,-2.1445,-2.3165,-2.6683,-2.6886,-2.7145,-2.9388,-2.8878,-2.865,-3.0297,-3.1137,-3.1676,-3.2,-3.3061,-3.3951,-3.4326,-3.4485,-3.5419,-3.753,-3.7421,-3.7948,-3.9709,-4.0405,-4.0913,-4.1194,-4.3126,-4.4572,-4.5273,-4.623,-4.7088,-4.7842,-4.7888,-4.7951,-4.797,-4.8068,-4.8148,-4.8148,-4.8247,-4.8267,-4.8267,-4.8306,-4.8306,-4.8306,-4.8306,-4.8306,-4.8306,-4.8306,-4.8306,-4.8306,-4.8306,-4.8458,-4.8711,-4.8781,-4.9209,-4.9702,-4.9757,-5.0025,-5.0302,-5.0302,-5.0302,-5.0302,-5.0302,-5.0548,-5.0828,-5.1003,-5.1808,-5.2629,-5.2801,-5.3518,-5.4344,-5.5041,-5.5333,-5.5654,-5.6352,-5.6503,-5.6504,-5.6503,-5.6831,-5.7246,-5.7738,-5.8538,-5.9104,-5.9104,-5.925,-5.9273,-5.9109,-5.9042,-5.867,-5.785,-5.6937,-5.6387,-5.6377,-5.5723,-5.5247,-5.5093,-5.435,-5.3863,-5.3689,-5.3009,-5.264,-5.264,-5.1999,-5.1688,-5.1688,-5.1688,-5.0755,-0.9607,-1.2153,-1.4914,-1.8008,-1.9889,-2.1802,0.0,-2.6366,-2.7754,-3.0211,-3.0212,-3.0027,-3.0761,-3.019,-2.9863,-3.0725,-3.1292,-3.2083,-3.3375,-3.369,-3.427,-3.5595,-3.5906,-3.6273,-3.7018,-3.765,-3.8517,-3.9782,-4.0415,-4.1079,-4.1861,-4.3234,-4.4415,-4.5273,-4.6087,-4.6944,-4.7699,-4.7741,-4.7801,-4.7902,-4.7943,-4.7947,-4.8032,-4.813,-4.8226,-4.8226,-4.8267,-4.8306,-4.8306,-4.8306,-4.8306,-4.8306,-4.8306,-4.8306,-4.8306,-4.8306,-4.8344,-4.8402,-4.8694,-4.9048,-4.9424,-4.9702,-5.0025,-5.0302,-5.0302,-5.0302,-5.0302,-5.0302,-5.0548,-5.0964,-5.1753,-5.2286,-5.2804,-5.356,-5.4414,-5.5085,-5.5178,-5.5801,-5.6375,-5.6469,-5.6496,-5.651,-5.6503,-5.7796,-5.8582,-5.7894,-5.8538,-5.9104,-5.9104,-5.9717,-5.988,-5.919,-5.9038,-5.866,-5.7781,-5.6899,-5.6372,-5.6313,-5.6219,-5.5823,-5.5034,-5.4925,-5.4485,-5.3708,-5.3591,-5.3553,-5.3553,-5.3455,-5.3417,-5.3417,-5.3417,-5.2523,-1.3276,-1.5228,-1.6678,-2.0421,-2.2176,-2.3548,-2.5467,-2.6658,-2.8051,-3.0348,-2.9939,-2.9407,-3.0154,-2.9659,-2.9526,-3.072,-3.1569,-3.2451,-3.3548,-3.4424,-3.52,-3.5828,-3.6771,-3.7602,-3.8163,-3.8198,-3.8719,-4.0092,-4.0589,-4.0998,-4.1446,-4.3025,-4.4255,-4.5088,-4.59,-4.6572,-4.7107,-4.7407,-4.7363,-4.6863,-4.7258,-4.745,-4.7457,-4.7669,-4.7933,-4.8247,-4.8267,-4.8306,-4.8306,-4.8306,-4.8306,-4.8306,-4.8306,-4.8306,-4.8306,-4.8306,-4.855,-4.8881,-4.9048,-4.9453,-4.9903,-5.0051,-5.0188,-5.0302,-5.0302,-5.0302,-5.0302,-5.0302,-5.0548,-5.0983,-5.1869,-5.2725,-5.3579,-5.4445,-5.5319,-5.5957,-5.5965,-5.623,-5.6511,-5.65,-5.6496,-5.6498,-5.6491,-5.7523,-5.8397,-5.8538,-5.9729,-6.0597,-6.0559,-6.0858,-6.0917,-6.0532,-6.0021,-5.935,-5.8468,-5.7604,-5.6875,-5.6336,-5.6297,-5.6139,-5.5767,-5.5767,-5.5592,-5.5223,-5.4718,-5.4465,-5.4465,-5.3941,-5.3689,-5.3689,-5.3689,-5.3319,-1.5845,-1.7526,-1.8524,-2.221,-2.3853,-2.4906,-2.6094,-2.6923,-2.7923,-2.9888,-2.9174,-2.8495,-2.9289,-2.9042,-2.9155,-3.0638,-3.1716,-3.276,-3.3745,-3.4972,-3.5893,-3.6288,-3.7395,-3.8417,-3.8992,-3.872,-3.8954,-4.0036,-4.0559,-4.1024,-4.1372,-4.286,-4.4181,-4.504,-4.563,-4.6096,-4.6406,-4.6799,-4.666,-4.6049,-4.6566,-4.6799,-4.6845,-4.699,-4.7342,-4.7797,-4.7977,-4.8035,-4.8075,-4.821,-4.8306,-4.8306,-4.8306,-4.8306,-4.8306,-4.8306,-4.8623,-4.9048,-4.9145,-4.9541,-5.0051,-5.0144,-5.0236,-5.0302,-5.0302,-5.0302,-5.0302,-5.0302,-5.0721,-5.1366,-5.2237,-5.3347,-5.4482,-5.5342,-5.604,-5.6503,-5.6492,-5.6503,-5.6503,-5.6503,-5.6488,-5.6588,-5.6816,-5.7576,-5.8456,-5.9296,-6.0702,-6.1648,-6.1601,-6.16,-6.1564,-6.1514,-6.0737,-5.9873,-5.8985,-5.8103,-5.723,-5.635,-5.6291,-5.6291,-5.6291,-5.6291,-5.6291,-5.6291,-5.5689,-5.5359,-5.5359,-5.4718,-5.4407,-5.4407,-5.4407,-5.4407,-1.6007,-1.7909,-1.9909,-2.2706,-2.4657,-2.637,-2.8039,-2.8414,-2.8698,-2.945,-2.8732,-2.8057,-2.8621,-2.8716,-2.9138,-3.0479,-3.1646,-3.2916,-3.4455,-3.5224,-3.6102,-3.7478,-3.783,-3.8266,-3.8924,-3.9169,-3.9309,-3.9325,-4.0237,-4.119,-4.2025,-4.3058,-4.4125,-4.5262,-4.5315,-4.547,-4.5749,-4.5767,-4.5817,-4.5918,-4.5918,-4.6,-4.6147,-4.6244,-4.6371,-4.6478,-4.715,-4.7428,-4.747,-4.8075,-4.8306,-4.8306,-4.8306,-4.8306,-4.8306,-4.8306,-4.8306,-4.8364,-4.8711,-4.9048,-4.9375,-4.9702,-5.0051,-5.0302,-5.0302,-5.0302,-5.0302,-5.0302,-5.1144,-5.2256,-5.3143,-5.4269,-5.5377,-5.6258,-5.648,-5.6508,-5.6492,-5.6503,-5.6503,-5.6503,-5.6511,-5.6773,-5.7609,-5.8474,-5.9329,-6.0135,-6.1035,-6.1601,-6.1601,-6.1609,-6.1569,-6.1507,-6.0787,-5.9927,-5.8985,-5.8098,-5.7239,-5.635,-5.6291,-5.6291,-5.6291,-5.6291,-5.6291,-5.6291,-5.6272,-5.6253,-5.6253,-5.6233,-5.6214,-5.6214,-5.6214,-5.6214,-1.6731,-1.8752,-2.0981,-2.3676,-2.5622,-2.6987,-2.7129,-2.7769,-2.8319,-2.8011,-2.7216,-2.654,-2.6325,-2.7272,-2.8517,-2.9734,-3.1234,-3.2955,-3.494,-3.5813,-3.6555,-3.7432,-3.8204,-3.8776,-3.9007,-3.9202,-3.9272,-3.9272,-4.0356,-4.1103,-4.1443,-4.3034,-4.4126,-4.4483,-4.5005,-4.52,-4.5054,-4.5407,-4.525,-4.4708,-4.5054,-4.5355,-4.5597,-4.6,-4.6275,-4.6413,-4.6618,-4.6756,-4.6819,-4.7428,-4.7656,-4.7614,-4.8114,-4.8286,-4.8247,-4.8267,-4.8306,-4.8344,-4.8676,-4.9177,-4.9646,-4.9757,-5.0025,-5.0302,-5.0302,-5.0302,-5.0302,-5.0302,-5.1164,-5.2295,-5.3182,-5.4307,-5.5416,-5.6297,-5.65,-5.6508,-5.6492,-5.6503,-5.6503,-5.6503,-5.65,-5.6586,-5.6893,-5.8143,-5.9542,-6.0891,-6.1344,-6.1537,-6.1537,-6.148,-6.1479,-6.15,-6.1266,-6.076,-5.9899,-5.8988,-5.8098,-5.722,-5.6608,-5.6291,-5.6291,-5.6291,-5.6291,-5.6291,-5.6291,-5.6291,-5.6291,-5.6291,-5.6291,-5.6291,-5.6291,-5.6291,-1.7476,-1.9673,-2.1805,-2.41,-2.562,-2.6696,-2.687,-2.7067,-2.7305,-2.7463,-2.6366,-2.5423,-2.5433,-2.6565,-2.772,-2.8624,-3.0633,-3.2711,-3.4674,-3.5744,-3.6674,-3.7692,-3.8417,-3.8876,-3.8914,-3.9094,-3.9317,-3.9653,-4.0587,-4.1321,-4.1897,-4.3288,-4.413,-4.4264,-4.4744,-4.4801,-4.4333,-4.4618,-4.4524,-4.4056,-4.4406,-4.4708,-4.491,-4.5197,-4.5494,-4.5647,-4.5898,-4.6046,-4.6161,-4.6774,-4.715,-4.7324,-4.7797,-4.8093,-4.8247,-4.8267,-4.8306,-4.8344,-4.8676,-4.9145,-4.9646,-4.9757,-5.0025,-5.0302,-5.0302,-5.0302,-5.0302,-5.0302,-5.1375,-5.2682,-5.3259,-5.4529,-5.5818,-5.6375,-5.6492,-5.65,-5.6511,-5.6503,-5.6503,-5.6503,-5.65,-5.6605,-5.6905,-5.8387,-5.9978,-6.1291,-6.1506,-6.1489,-6.1468,-6.1452,-6.1445,-6.15,-6.1529,-6.1225,-6.0366,-5.9756,-5.8879,-5.767,-5.7067,-5.6622,-5.6311,-5.6291,-5.6291,-5.6291,-5.6291,-5.6291,-5.6291,-5.6291,-5.6291,-5.6291,-5.6291,-5.6291,-1.8135,-2.0355,-2.2368,-2.3933,-2.4682,-2.5535,-2.7168,-2.6375,-2.5816,-2.7639,-2.6153,-2.4775,-2.5809,-2.6454,-2.6987,-2.7435,-2.9942,-3.2357,-3.3898,-3.5231,-3.6622,-3.8181,-3.8537,-3.8665,-3.8854,-3.8964,-3.9473,-4.0431,-4.0886,-4.1777,-4.3301,-4.3799,-4.4211,-4.4429,-4.4446,-4.4179,-4.3628,-4.3628,-4.3704,-4.3898,-4.3998,-4.4097,-4.4097,-4.4097,-4.4138,-4.431,-4.4947,-4.5303,-4.5494,-4.6094,-4.6756,-4.7342,-4.7385,-4.7756,-4.8267,-4.8306,-4.8306,-4.8344,-4.8676,-4.9015,-4.9345,-4.9674,-5.0006,-5.0302,-5.0302,-5.0302,-5.0302,-5.0302,-5.1799,-5.3414,-5.3414,-5.4944,-5.6503,-5.6503,-5.6503,-5.6503,-5.6503,-5.6503,-5.6503,-5.6503,-5.6503,-5.6784,-5.7705,-5.9188,-6.0516,-6.1374,-6.15,-6.1479,-6.14,-6.1456,-6.151,-6.151,-6.1621,-6.1339,-6.0451,-6.0328,-5.9562,-5.7856,-5.7663,-5.7224,-5.6388,-5.6311,-5.6291,-5.6291,-5.6291,-5.6291,-5.6291,-5.6291,-5.6291,-5.6291,-5.6291,-5.6291,-1.8046,-1.9918,-2.1868,-2.2734,-2.3486,-2.4284,-2.5222,-2.5191,-2.5228,-2.5882,-2.5228,-2.4418,-2.4082,-2.5647,-2.7274,-2.8106,-3.0838,-3.3508,-3.5492,-3.6007,-3.6753,-3.8254,-3.8583,-3.8947,-3.9551,-3.9736,-4.043,-4.1872,-4.1554,-4.1749,-4.2682,-4.3347,-4.3747,-4.3831,-4.3848,-4.373,-4.3628,-4.3628,-4.3628,-4.3704,-4.3687,-4.3822,-4.3956,-4.3956,-4.3998,-4.4155,-4.435,-4.4502,-4.4708,-4.5732,-4.6275,-4.6531,-4.7464,-4.7911,-4.8006,-4.8187,-4.8226,-4.8286,-4.8658,-4.9015,-4.9314,-4.9394,-4.983,-5.0302,-5.0302,-5.0302,-5.0302,-5.0302,-5.1799,-5.3414,-5.3414,-5.4944,-5.6503,-5.6503,-5.6503,-5.6503,-5.6503,-5.6503,-5.6503,-5.6503,-5.6503,-5.6975,-5.8518,-5.9075,-5.9838,-6.1344,-6.1519,-6.1479,-6.14,-6.146,-6.1498,-6.151,-6.158,-6.1556,-6.1359,-6.0695,-6.0107,-5.964,-5.8348,-5.7496,-5.7282,-5.6641,-5.6291,-5.6291,-5.6291,-5.6291,-5.6291,-5.6291,-5.6291,-5.6291,-5.6291,-5.6291,-1.7559,-1.9229,-2.0934,-2.1711,-2.2328,-2.293,-2.3956,-2.4082,-2.4198,-2.5042,-2.4267,-2.342,-2.3639,-2.513,-2.6634,-2.7303,-3.0299,-3.3075,-3.4603,-3.5368,-3.6318,-3.7796,-3.8332,-3.8926,-3.9732,-4.014,-4.0894,-4.2186,-4.1708,-4.1872,-4.2949,-4.3396,-4.3628,-4.3628,-4.3628,-4.3628,-4.3628,-4.3628,-4.3628,-4.3628,-4.3628,-4.3628,-4.3763,-4.3763,-4.3881,-4.3998,-4.3998,-4.4097,-4.435,-4.5303,-4.585,-4.6293,-4.7204,-4.7747,-4.7947,-4.805,-4.809,-4.8169,-4.8439,-4.8746,-4.9099,-4.9382,-4.983,-5.0302,-5.0278,-5.0278,-5.0302,-5.0302,-5.1799,-5.3414,-5.3414,-5.4944,-5.6503,-5.6503,-5.6503,-5.6503,-5.6503,-5.6503,-5.6492,-5.6503,-5.6503,-5.6926,-5.8309,-5.8828,-5.9505,-6.0832,-6.1303,-6.1476,-6.1454,-6.1484,-6.15,-6.151,-6.1588,-6.1666,-6.1696,-6.1185,-6.0707,-6.0317,-5.8957,-5.8168,-5.8168,-5.7327,-5.6874,-5.6874,-5.6874,-5.668,-5.6291,-5.6291,-5.6291,-5.6291,-5.6291,-5.6291,-1.6928,-1.8381,-1.9904,-2.0692,-2.0971,-2.1532,-2.3154,-2.2968,-2.294,-2.4597,-2.3305,-2.2305,-2.3677,-2.4696,-2.55,-2.6069,-2.9238,-3.1895,-3.2758,-3.4178,-3.5691,-3.7163,-3.8036,-3.8845,-3.9722,-4.0414,-4.1232,-4.2097,-4.1725,-4.2096,-4.3486,-4.3568,-4.3628,-4.3628,-4.3628,-4.3628,-4.3628,-4.3628,-4.3628,-4.3628,-4.3628,-4.3628,-4.3628,-4.3628,-4.3704,-4.3839,-4.3839,-4.4039,-4.4406,-4.4964,-4.5614,-4.6406,-4.6954,-4.7457,-4.7951,-4.7951,-4.801,-4.801,-4.8148,-4.8439,-4.885,-4.9431,-4.9895,-5.0212,-5.0188,-5.0255,-5.0278,-5.0302,-5.1799,-5.3414,-5.3414,-5.4944,-5.6503,-5.6503,-5.6503,-5.6503,-5.6511,-5.6492,-5.6508,-5.6491,-5.6503,-5.6805,-5.7793,-5.8591,-5.9422,-6.0347,-6.1058,-6.15,-6.1507,-6.15,-6.149,-6.149,-6.1621,-6.1701,-6.1701,-6.1634,-6.1283,-6.0522,-5.9591,-5.9024,-5.8896,-5.8052,-5.7548,-5.7418,-5.7418,-5.7049,-5.6291,-5.6291,-5.6291,-5.6291,-5.6291,-5.6291,-1.6257,-1.7496,-1.8877,-1.9274,-1.9423,-1.9953,-2.2081,-2.1773,-2.153,-2.3296,-2.2717,-2.2133,-2.2808,-2.3727,-2.5034,-2.6917,-2.9253,-3.1539,-3.3618,-3.4629,-3.5563,-3.6829,-3.7872,-3.8968,-4.0079,-4.1026,-4.1983,-4.2851,-4.2304,-4.2331,-4.3399,-4.3568,-4.3628,-4.3628,-4.3628,-4.3628,-4.3628,-4.3628,-4.3628,-4.3628,-4.3628,-4.3628,-4.3628,-4.3628,-4.3628,-4.3628,-4.3628,-4.4006,-4.4652,-4.5197,-4.5885,-4.6619,-4.7169,-4.7493,-4.7597,-4.7842,-4.7943,-4.7925,-4.801,-4.8513,-4.915,-4.9246,-4.9521,-4.9849,-5.0139,-5.0212,-5.0231,-5.0278,-5.1799,-5.3414,-5.3414,-5.4944,-5.6503,-5.6503,-5.6503,-5.6492,-5.6508,-5.6508,-5.6508,-5.65,-5.6498,-5.7011,-5.8606,-5.9004,-5.9639,-6.1213,-6.153,-6.1553,-6.15,-6.15,-6.149,-6.149,-6.1621,-6.1701,-6.1701,-6.1634,-6.1537,-6.138,-6.0554,-5.9708,-5.8927,-5.8048,-5.7266,-5.6544,-5.6524,-5.6447,-5.6291,-5.6291,-5.6291,-5.6291,-5.6291,-5.6291,-1.5538,-1.6288,-1.7098,-1.7908,-1.8141,-1.8523,-2.0178,-2.0282,-2.0343,-2.1758,-2.144,-2.1194,-2.241,-2.3381,-2.4425,-2.561,-2.8035,-3.022,-3.1582,-3.3078,-3.4427,-3.5725,-3.6892,-3.808,-3.9345,-4.0683,-4.1733,-4.249,-4.248,-4.2752,-4.3355,-4.3509,-4.3628,-4.3628,-4.3628,-4.3628,-4.3628,-4.3628,-4.3628,-4.3628,-4.3628,-4.3628,-4.3628,-4.3628,-4.3628,-4.3628,-4.3628,-4.4006,-4.4763,-4.525,-4.5935,-4.6637,-4.7187,-4.7407,-4.7407,-4.7615,-4.7699,-4.7717,-4.7866,-4.8307,-4.8832,-4.9019,-4.9491,-4.9993,-5.0163,-5.0188,-5.0212,-5.0278,-5.1471,-5.2817,-5.3278,-5.4614,-5.5937,-5.6386,-5.6503,-5.6511,-5.65,-5.65,-5.6496,-5.6503,-5.6879,-5.7313,-5.7733,-5.8897,-5.9901,-6.0295,-6.1049,-6.158,-6.1519,-6.149,-6.149,-6.149,-6.1588,-6.1666,-6.1696,-6.1666,-6.164,-6.164,-6.0788,-6.0281,-6.0253,-5.9424,-5.8737,-5.8292,-5.8273,-5.7845,-5.6971,-5.6971,-5.6738,-5.6291,-5.6291,-5.6291,-1.4608,-1.5144,-1.5553,-1.6683,-1.6993,-1.7309,-1.8461,-1.8718,-1.9056,-2.0018,-1.9734,-1.9776,-2.1354,-2.2349,-2.3128,-2.3738,-2.621,-2.8422,-2.9509,-3.1344,-3.3111,-3.4618,-3.5836,-3.7061,-3.8469,-3.996,-4.1215,-4.2061,-4.2571,-4.3023,-4.3312,-4.3432,-4.3492,-4.3492,-4.3552,-4.3568,-4.3568,-4.3568,-4.3628,-4.3628,-4.373,-4.3789,-4.3789,-4.3889,-4.3989,-4.3989,-4.3989,-4.4373,-4.5072,-4.5477,-4.6052,-4.6731,-4.7143,-4.7276,-4.7276,-4.7407,-4.7468,-4.7554,-4.7824,-4.8172,-4.8549,-4.8971,-4.9521,-5.007,-5.0139,-5.0163,-5.0188,-5.0255,-5.1164,-5.2295,-5.3182,-5.4303,-5.5431,-5.6288,-5.6511,-5.6492,-5.6511,-5.6511,-5.6503,-5.6493,-5.7193,-5.7655,-5.7215,-5.8957,-6.0237,-5.9729,-6.0782,-6.1595,-6.1528,-6.1519,-6.149,-6.149,-6.1553,-6.1628,-6.1671,-6.1696,-6.1701,-6.1701,-6.1016,-6.0788,-6.1218,-6.0594,-6.0091,-5.9827,-5.9827,-5.9166,-5.7865,-5.767,-5.7243,-5.6563,-5.6388,-5.6291,-1.3134,-1.4132,-1.5206,-1.5703,-1.5861,-1.6183,-1.7496,-1.7342,-1.7196,-1.7959,-1.7683,-1.7585,-1.8709,-1.9533,-2.0601,-2.2115,-2.3956,-2.6226,-2.9369,-3.0744,-3.2194,-3.4192,-3.5383,-3.6596,-3.8091,-3.9296,-4.0522,-4.1981,-4.2571,-4.2945,-4.3113,-4.3113,-4.3174,-4.3174,-4.3312,-4.3432,-4.3432,-4.3568,-4.3628,-4.3628,-4.4179,-4.439,-4.4446,-4.4892,-4.5144,-4.5144,-4.5144,-4.5477,-4.6087,-4.6137,-4.6477,-4.698,-4.7133,-4.7223,-4.7223,-4.7276,-4.7407,-4.7554,-4.7974,-4.8403,-4.8897,-4.9309,-4.948,-4.9617,-4.9933,-5.0057,-5.0133,-5.0188,-5.1105,-5.2295,-5.3182,-5.4303,-5.5431,-5.6288,-5.65,-5.6508,-5.6492,-5.65,-5.6508,-5.6508,-5.7207,-5.802,-5.8746,-5.9719,-6.0646,-6.1349,-6.1598,-6.1666,-6.1595,-6.1537,-6.149,-6.149,-6.1553,-6.1595,-6.1602,-6.1666,-6.1701,-6.1701,-6.1618,-6.1225,-6.0447,-6.0341,-5.9863,-5.8933,-5.8914,-5.8836,-5.87,-5.7962,-5.7554,-5.7457,-5.666,-5.6291,-1.2003,-1.265,-1.336,-1.4629,-1.4412,-1.4358,-1.5819,-1.5904,-1.5899,-1.6598,-1.655,-1.6756,-1.7909,-1.8434,-1.9203,-2.0707,-2.2262,-2.4212,-2.7046,-2.8286,-2.983,-3.2496,-3.3198,-3.4329,-3.663,-3.8046,-3.9741,-4.1965,-4.2508,-4.2759,-4.2805,-4.299,-4.3113,-4.3113,-4.3174,-4.3235,-4.3235,-4.3295,-4.3372,-4.3509,-4.403,-4.4373,-4.4502,-4.5054,-4.5303,-4.5303,-4.5303,-4.5631,-4.6186,-4.6186,-4.6542,-4.6998,-4.7043,-4.7088,-4.7088,-4.7223,-4.7294,-4.7432,-4.7955,-4.8403,-4.89,-4.9315,-4.9607,-4.9833,-5.0005,-5.0082,-5.0108,-5.0133,-5.0588,-5.1318,-5.2307,-5.387,-5.5431,-5.6288,-5.6492,-5.6492,-5.6511,-5.6492,-5.6508,-5.6498,-5.7625,-5.853,-5.8359,-5.991,-6.1115,-6.0939,-6.1369,-6.1671,-6.1602,-6.1537,-6.15,-6.1498,-6.1529,-6.1573,-6.1595,-6.1666,-6.1701,-6.1701,-6.1701,-6.1498,-6.1042,-6.1023,-6.0817,-6.037,-6.037,-6.0118,-5.9574,-5.8739,-5.8059,-5.7573,-5.6699,-5.6291,-1.0564,-1.1085,-1.1571,-1.2917,-1.2669,-1.2482,-1.3853,-1.4153,-1.4378,-1.4975,-1.5268,-1.5771,-1.6652,-1.7252,-1.7898,-1.9019,-2.0605,-2.2563,-2.4964,-2.6191,-2.794,-3.1031,-3.1227,-3.2384,-3.5478,-3.757,-3.9632,-4.1543,-4.2158,-4.2508,-4.2571,-4.2805,-4.2929,-4.2929,-4.299,-4.3052,-4.3052,-4.3113,-4.3174,-4.3312,-4.3914,-4.4356,-4.4708,-4.5267,-4.5631,-4.5767,-4.5767,-4.6052,-4.6447,-4.6447,-4.6637,-4.6998,-4.6998,-4.6998,-4.6998,-4.7088,-4.7223,-4.7363,-4.7816,-4.8328,-4.8797,-4.9201,-4.9636,-5.0005,-5.0057,-5.0082,-5.0108,-5.0108,-5.0486,-5.1068,-5.1927,-5.3674,-5.5353,-5.5976,-5.6308,-5.6503,-5.6503,-5.6503,-5.65,-5.6498,-5.7707,-5.861,-5.8242,-5.9927,-6.1193,-6.0842,-6.131,-6.1671,-6.1634,-6.1545,-6.15,-6.1498,-6.1489,-6.152,-6.1576,-6.1628,-6.1666,-6.1666,-6.1696,-6.1634,-6.151,-6.149,-6.1479,-6.14,-6.14,-6.1109,-6.0487,-5.936,-5.8506,-5.7923,-5.6816,-5.6291,-0.8612,-0.9536,-1.0095,-1.056,-1.0528,-1.0675,-1.1644,-1.2018,-1.2372,-1.2826,-1.3532,-1.416,-1.4491,-1.5489,-1.6437,-1.6936,-1.8982,-2.1298,-2.3502,-2.5061,-2.7003,-2.9974,-2.9847,-3.1044,-3.4898,-3.8266,-4.0309,-4.069,-4.1607,-4.2238,-4.2571,-4.2634,-4.2634,-4.2634,-4.2837,-4.2899,-4.2899,-4.3052,-4.3113,-4.3096,-4.3839,-4.449,-4.5108,-4.587,-4.6495,-4.698,-4.698,-4.6998,-4.6998,-4.6998,-4.698,-4.6998,-4.6998,-4.6998,-4.6998,-4.6998,-4.7088,-4.7267,-4.7572,-4.8082,-4.8655,-4.9067,-4.9569,-5.0005,-5.0005,-5.0057,-5.0108,-5.0108,-5.1022,-5.2063,-5.2403,-5.3837,-5.5197,-5.5217,-5.5879,-5.6503,-5.6503,-5.6503,-5.6503,-5.6511,-5.7202,-5.8079,-5.8938,-5.9819,-6.0705,-6.1564,-6.1701,-6.1701,-6.1701,-6.158,-6.149,-6.151,-6.1498,-6.1503,-6.1503,-6.1567,-6.1595,-6.1595,-6.1666,-6.1634,-6.151,-6.149,-6.1479,-6.14,-6.14,-6.14,-6.1381,-5.9652,-5.8797,-5.8758,-5.7088,-5.6291,-0.6861,-0.7696,-0.8602,-0.968,-0.9138,-0.8709,-1.0054,-1.0803,-1.1256,-1.1526,-1.2464,-1.3433,-1.4207,-1.4616,-1.5321,-1.6742,-1.7632,-1.9074,-2.1938,-2.2928,-2.4822,-2.8886,-3.1713,-3.3993,-3.5634,-3.8074,-3.9874,-4.0607,-4.1541,-4.2238,-4.2571,-4.2634,-4.2634,-4.2634,-4.2634,-4.2696,-4.2696,-4.2759,-4.299,-4.3459,-4.3881,-4.4601,-4.5615,-4.602,-4.6477,-4.6998,-4.6998,-4.6998,-4.6998,-4.6998,-4.6998,-4.6998,-4.6998,-4.6998,-4.6998,-4.6998,-4.7088,-4.7294,-4.786,-4.8234,-4.8586,-4.9315,-4.9683,-4.9871,-4.9978,-5.0012,-5.0057,-5.0139,-5.06,-5.1228,-5.2089,-5.33,-5.4457,-5.5061,-5.5879,-5.6503,-5.6503,-5.6503,-5.6503,-5.6503,-5.7193,-5.8082,-5.8956,-5.9824,-6.0708,-6.1564,-6.1701,-6.1701,-6.1701,-6.1588,-6.149,-6.149,-6.1464,-6.1454,-6.1503,-6.151,-6.1545,-6.1595,-6.158,-6.1537,-6.149,-6.1489,-6.1472,-6.14,-6.14,-6.14,-6.14,-6.0254,-5.9108,-5.7962,-5.7437,-5.6874,-0.5232,-0.6002,-0.6923,-0.8129,-0.7712,-0.7338,-0.8612,-0.9641,-1.0457,-1.0879,-1.2111,-1.3229,-1.3967,-1.4245,-1.4838,-1.6208,-1.677,-1.8023,-2.1014,-2.191,-2.3807,-2.8061,-3.1948,-3.4568,-3.5068,-3.7301,-3.9233,-4.0263,-4.1111,-4.1884,-4.2571,-4.2634,-4.2634,-4.2634,-4.2634,-4.2634,-4.2634,-4.2634,-4.2805,-4.3218,-4.3663,-4.4339,-4.5284,-4.5717,-4.6186,-4.6684,-4.6795,-4.6842,0.0,-4.6934,-4.6998,-4.6998,-4.6998,-4.6998,-4.6998,-4.6998,-4.7116,-4.7381,-4.7816,-4.8194,-4.8604,-4.9201,-4.9665,-5.0005,-5.0057,-5.0089,-5.0139,-5.024,-5.047,-5.0841,-5.1596,-5.2578,-5.3593,-5.4507,-5.5372,-5.6093,-5.6425,-5.6508,-5.6503,-5.6503,-5.6948,-5.7684,-5.8885,-5.9548,-6.0315,-6.1525,-6.1701,-6.1701,-6.1701,-6.1615,-6.1528,-6.149,-6.1464,-6.1441,-6.1467,-6.1487,-6.151,-6.1567,-6.1519,-6.15,-6.15,-6.1507,-6.1467,-6.14,-6.14,-6.14,-6.14,-6.0526,-5.938,-5.804,-5.7729,-5.7301,0.0,-0.4582,-0.5127,-0.602,-0.6293,-0.6546,-0.7306,-0.8596,0.0,-1.0785,-1.2149,-1.3327,-1.371,-1.4271,-1.4846,-1.5462,-1.6369,-1.7879,-2.0653,-2.1925,-2.3994,-2.7762,-3.1036,-3.3182,-3.3574,-3.622,-3.8442,-3.9703,-4.0401,-4.1311,-4.2492,-4.2571,-4.2634,-4.2634,-4.2634,-4.2634,-4.2634,-4.2634,-4.2634,-4.268,-4.3295,-4.3898,-4.449,-4.5089,-4.5684,-4.6235,-4.6477,-4.659,-4.6637,-4.6888,-4.698,-4.698,-4.7043,-4.7043,-4.7043,-4.707,-4.7249,-4.7554,-4.7554,-4.8075,-4.8694,-4.8881,-4.9541,-5.0259,-5.0212,-5.0236,-5.0329,-5.0402,-5.0606,-5.0851,-5.1037,-5.1792,-5.2719,-5.3583,-5.4507,-5.5411,-5.6238,-5.6459,-5.6509,-5.6489,-5.6497,-5.7029,-5.8728,-5.9065,-5.9671,-6.1349,-6.1661,-6.1701,-6.1701,-6.1634,-6.1561,-6.1519,-6.1498,-6.1479,-6.14,-6.1454,-6.1491,-6.1503,-6.1489,-6.15,-6.1503,-6.1491,-6.1467,-6.14,-6.14,-6.14,-6.14,-6.0584,-5.9749,-5.8875,-5.8059,-5.7651,-0.2748,0.0,-0.47,-0.5522,-0.5972,-0.6342,0.0,-0.7952,-0.921,-1.0258,-1.1343,-1.2533,-1.3709,-1.4255,-1.4671,-1.5498,-1.574,-1.6923,-2.0138,-2.419,-2.7584,-2.9576,-3.2124,-3.3815,-3.4189,-3.657,-3.8413,-3.9361,-4.0653,-4.1638,-4.2174,-4.2445,-4.2634,-4.2634,-4.2634,-4.2634,-4.2634,-4.2634,-4.2805,-4.3141,-4.3459,-4.4071,-4.4947,-4.5249,-4.5684,-4.6186,-4.6284,-4.6381,-4.659,-4.6684,-4.6824,-4.7043,-4.7294,-4.7381,-4.7425,-4.7663,-4.7829,-4.7911,-4.8114,-4.8307,-4.855,-4.9123,-4.9627,-5.0006,-5.0163,-5.031,-5.0485,-5.0606,-5.0699,-5.0835,-5.097,-5.1758,-5.2553,-5.2787,-5.4041,-5.5264,-5.5451,-5.6035,-5.6499,-5.6504,-5.6495,-5.6835,-5.7928,-5.8667,-5.9481,-6.0534,-6.1271,-6.1701,-6.1701,-6.1634,-6.1561,-6.1519,-6.1498,-6.1479,-6.14,-6.1414,-6.1441,-6.1503,-6.1447,-6.1447,-6.1503,-6.1454,-6.1414,-6.14,-6.14,-6.14,-6.14,-6.1186,-6.0642,-5.9768,-5.8808,-5.8005,-0.1771,-0.2965,-0.4119,-0.5309,-0.5919,-0.6388,-0.657,-0.7647,-0.8851,-1.0027,-1.1089,-1.2207,-1.3431,-1.4034,-1.4537,-1.5135,-1.5418,-1.6738,-1.9844,-2.3898,-2.7244,-2.9375,-3.1327,-3.3105,-3.4733,-3.6557,-3.8055,-3.9233,-4.0085,-4.094,-4.1851,-4.2174,-4.2365,-4.2365,-4.2726,-4.2805,-4.2634,-4.2634,-4.2867,-4.3306,-4.3621,-4.4186,-4.491,-4.5266,-4.5546,-4.5854,-4.5938,-4.6087,-4.6235,-4.6398,-4.6684,-4.7053,-4.7232,-4.7493,-4.7747,-4.7951,-4.8072,-4.821,-4.8345,-4.8569,-4.8872,-4.9346,-4.974,-5.0087,-5.0313,-5.0527,-5.07,-5.0701,-5.0771,-5.0871,-5.0976,-5.1431,-5.1977,-5.2387,-5.3273,-5.4239,-5.5034,-5.5567,-5.6016,-5.6424,-5.6523,-5.6814,-5.7665,-5.8521,-5.9397,-6.028,-6.1134,-6.1701,-6.1701,-6.1634,-6.1561,-6.1519,-6.1498,-6.1479,-6.14,-6.14,-6.1414,-6.1454,-6.1414,-6.1414,-6.1454,-6.1414,-6.14,-6.14,-6.14,-6.14,-6.14,-6.1302,-6.1035,-6.0515,-5.916,-5.8257,-0.0849,-0.199,-0.3266,-0.502,-0.5816,-0.6321,-0.666,-0.7427,-0.8576,-0.9847,-1.0925,-1.1844,-1.2787,-1.3677,-1.4311,-1.4528,-1.5577,-1.7279,-2.0003,-2.284,-2.5626,-2.8598,-3.0204,-3.2162,-3.4988,-3.6281,-3.7567,-3.8957,-3.9305,-4.003,-4.1307,-4.1851,-4.2109,-4.2109,-4.2834,-4.2958,-4.2508,-4.2743,-4.3035,-4.3426,-4.3898,-4.4316,-4.4708,-4.5194,-4.5423,-4.5423,-4.5649,-4.5735,-4.5837,-4.6038,-4.6507,-4.7107,-4.7151,-4.7542,-4.8072,-4.8111,-4.8288,-4.8458,-4.8458,-4.8802,-4.9276,-4.9529,-4.9884,-5.0275,-5.0527,-5.0736,-5.0874,-5.0771,-5.0825,-5.0921,-5.0961,-5.1043,-5.1292,-5.2115,-5.2444,-5.3006,-5.4509,-5.5023,-5.5428,-5.617,-5.6468,-5.6821,-5.7504,-5.8324,-5.9202,-6.0061,-6.0939,-6.1544,-6.1681,-6.1634,-6.1561,-6.1519,-6.1498,-6.1479,-6.14,-6.14,-6.14,-6.14,-6.14,-6.14,-6.14,-6.14,-6.14,-6.14,-6.1386,-6.1352,-6.1352,-6.1148,-6.1058,-6.1019,-5.9186,-5.8353,-0.0224,-0.0768,-0.1757,-0.4112,-0.5004,-0.5535,-0.6585,-0.717,-0.7914,-0.9196,-0.9738,-1.0307,-1.1439,-1.251,-1.3454,-1.4034,-1.6896,-1.9522,-2.1205,-2.3843,-2.6721,-2.9439,-3.0939,-3.2495,-3.4603,-3.5922,-3.7092,-3.8023,-3.9334,-4.013,-4.0409,-4.1507,-4.2109,-4.2109,-4.2492,-4.2555,-4.2174,-4.3262,-4.3798,-4.3914,-4.4356,-4.4652,-4.4708,-4.5194,-4.5423,-4.5423,-4.5406,-4.5598,-4.5786,-4.5837,-4.6363,-4.7151,-4.7421,-4.7838,-4.8383,-4.8678,-4.8785,-4.882,-4.882,-4.9042,-4.9396,-4.9558,-4.9962,-5.0404,-5.0547,-5.0736,-5.0906,-5.0947,-5.0937,-5.0906,-5.0921,-5.1004,-5.1147,-5.1346,-5.2005,-5.2694,-5.3007,-5.4199,-5.525,-5.545,-5.6083,-5.6645,-5.6762,-5.7465,-5.8304,-5.9163,-6.0041,-6.0861,-6.1603,-6.1634,-6.1561,-6.1519,-6.1498,-6.1479,-6.14,-6.14,-6.14,-6.14,-6.14,-6.14,-6.14,-6.14,-6.14,-6.14,-6.1217,-6.1148,-6.1148,-6.1003,-6.0923,-6.0884,-5.9018,-5.8139,0.0735,-0.0076,-0.1079,-0.2657,-0.3559,-0.4252,-0.5165,-0.5618,-0.6229,-0.7816,-0.8227,-0.8798,-1.0529,-1.173,-1.3168,-1.5148,-1.7532,-1.9573,-2.1059,-2.2912,-2.5432,-2.8754,-3.0254,-3.211,-3.4926,-3.6281,-3.7309,-3.8323,-3.9364,-4.0091,-4.037,-4.1107,-4.1588,-4.1588,-4.2158,-4.2585,-4.2863,-4.3689,-4.3997,-4.3706,-4.4412,-4.4818,-4.5069,-4.53,-4.5423,-4.5423,-4.5423,-4.5459,-4.5615,-4.5887,-4.6489,-4.7186,-4.7614,-4.8117,-4.8695,-4.882,-4.8909,-4.8909,-4.8909,-4.9127,-4.9427,-4.9655,-5.0019,-5.0446,-5.0644,-5.0808,-5.0906,-5.0952,-5.0937,-5.0906,-5.0932,-5.1049,-5.1162,-5.118,-5.1589,-5.2097,-5.2597,-5.3318,-5.4134,-5.5111,-5.5611,-5.6059,-5.6528,-5.727,-5.8109,-5.8968,-5.9846,-6.07,-6.1543,-6.1588,-6.1528,-6.1489,-6.1472,-6.1428,-6.14,-6.14,-6.14,-6.14,-6.14,-6.1352,-6.1252,-6.1252,-6.1184,-6.1134,-6.1041,-6.1003,-6.1003,-6.082,-6.0519,-6.0076,-5.8659,-5.7736,0.1592,0.068,-0.0313,-0.1462,-0.23,-0.3142,-0.3952,-0.4276,-0.4849,-0.6592,-0.7022,-0.7617,-0.9521,-1.1085,-1.3008,-1.5741,-1.7498,-1.9029,-2.0745,-2.2044,-2.4251,-2.8197,-2.9709,-3.1851,-3.5373,-3.6387,-3.7295,-3.8486,-3.9162,-3.9753,-4.0246,-4.0799,-4.1138,-4.1138,-4.1819,-4.249,-4.3031,-4.3789,-4.4095,-4.3922,-4.458,-4.5069,-4.5423,-4.5423,-4.5476,-4.5563,-4.5563,-4.5667,-4.5786,-4.6168,-4.6753,-4.7385,-4.7738,-4.8327,-4.8909,-4.8909,-4.8909,-4.8909,-4.8909,-4.9174,-4.9529,-4.9721,-5.0116,-5.0527,-5.0738,-5.0861,-5.0906,-5.0952,-5.0956,-5.096,-5.102,-5.1117,-5.1217,-5.1211,-5.1312,-5.1581,-5.2243,-5.2552,-5.3095,-5.4424,-5.5025,-5.5513,-5.6167,-5.7124,-5.81,-5.8978,-5.9837,-6.067,-6.1511,-6.1545,-6.149,-6.1507,-6.1434,-6.1386,-6.1337,-6.1337,-6.1322,-6.1271,-6.1302,-6.1252,-6.1058,-6.1058,-6.1002,-6.0882,-6.0839,-6.0817,-6.0817,-6.0633,-6.0131,-5.9306,-5.8348,-5.7428,0.2143,0.1666,0.1002,-0.0671,-0.179,-0.2806,-0.3838,-0.4157,-0.453,-0.5852,-0.6313,-0.6841,-0.8086,-1.0411,-1.2661,-1.4545,-1.6369,-1.8414,-2.093,-2.2441,-2.4826,-2.896,-3.0181,-3.2048,-3.5346,-3.579,-3.6415,-3.7886,-3.8486,-3.9162,-3.9753,-4.0578,-4.1138,-4.1138,-4.1785,-4.198,-4.1704,-4.3229,-4.4429,-4.5247,-4.53,-4.5371,-4.5423,-4.5423,-4.5667,-4.6137,-4.6137,-4.6411,-4.6817,-4.6817,-4.7222,-4.7775,-4.7879,-4.8327,-4.8909,-4.8909,-4.8909,-4.8909,-4.8909,-4.9296,-4.9776,-4.9784,-5.0233,-5.0756,-5.0793,-5.0861,-5.0937,-5.1056,-5.1087,-5.1099,-5.108,-5.1185,-5.1292,-5.1297,-5.1344,-5.1423,-5.1483,-5.212,-5.2745,-5.2858,-5.4186,-5.5294,-5.5301,-5.668,-5.8104,-5.8962,-5.9781,-6.0633,-6.1579,-6.158,-6.151,-6.15,-6.144,-6.1318,-6.1148,-6.1111,-6.1077,-6.0923,-6.1059,-6.1077,-6.0923,-6.0902,-6.0902,-6.0901,-6.0727,-6.0613,-6.0613,-6.0487,-5.9977,-5.9117,-5.8268,-5.7428,0.3102,0.2599,0.1782,0.0584,-0.0166,-0.0996,-0.2188,-0.2453,-0.2706,-0.3739,-0.4546,-0.582,-0.8287,-1.0985,-1.3423,-1.5155,-1.7261,-1.9336,-2.1387,-2.3175,-2.5438,-2.8704,-3.0483,-3.247,-3.5034,-3.6229,-3.7141,-3.7979,-3.919,-3.995,-4.0176,-4.0524,-4.0867,-4.107,-4.1339,-4.1884,-4.2785,-4.3393,-4.4226,-4.5423,-4.5423,-4.5423,-4.5423,-4.5423,-4.5511,-4.5701,-4.6055,-4.6332,-4.6507,-4.7115,-4.7548,-4.7919,-4.8365,-4.866,-4.8839,-4.8874,-4.9027,-4.9225,-4.9225,-4.9579,-5.0062,-5.0062,-5.0404,-5.0793,-5.0793,-5.0919,-5.1033,-5.1093,-5.1171,-5.1211,-5.1181,-5.1234,-5.1294,-5.1299,-5.1346,-5.1408,-5.1398,-5.1668,-5.2058,-5.2585,-5.3229,-5.4001,-5.5028,-5.5744,-5.6855,-5.8806,-5.9352,-6.002,-6.1286,-6.1481,-6.145,-6.1264,-6.1229,-6.1164,-6.1111,-6.1021,-6.0883,-6.0708,-6.0862,-6.0902,-6.0708,-6.0708,-6.0657,-6.0572,-6.0494,-6.0487,-6.0487,-6.0425,-5.9682,-5.8345,-5.8039,-5.716,0.3679,0.3242,0.2504,0.1177,0.0679,0.0086,-0.1146,-0.1405,-0.1744,-0.3005,-0.4319,-0.617,-0.8984,-1.1315,-1.338,-1.5299,-1.7471,-1.9519,-2.1152,-2.3071,-2.5371,-2.8339,-3.0184,-3.2363,-3.5183,-3.6452,-3.751,-3.8428,-3.955,-4.0231,-4.0455,-4.0524,-4.0662,-4.0935,-4.1122,-4.1868,-4.3092,-4.3453,-4.4169,-4.5177,-4.5318,-4.5423,-4.5423,-4.5563,-4.5752,-4.5887,-4.6442,-4.6724,-4.689,-4.7548,-4.7937,-4.8194,-4.8748,-4.8959,-4.9012,-4.9141,-4.9346,-4.9529,-4.9529,-4.983,-5.0206,-5.0206,-5.0467,-5.0793,-5.0793,-5.0938,-5.1106,-5.1128,-5.1215,-5.1283,-5.1264,-5.1291,-5.1326,-5.1328,-5.1374,-5.1394,-5.1394,-5.1394,-5.159,-5.2175,-5.2507,-5.3064,-5.4197,-5.5275,-5.6574,-5.8295,-5.9269,-6.0137,-6.111,-6.1331,-6.1278,-6.1058,-6.104,-6.1021,-6.0945,-6.0862,-6.0727,-6.0553,-6.0676,-6.0676,-6.0553,-6.0527,-6.0494,-6.0389,-6.0389,-6.0389,-6.0389,-6.0122,-5.9262,-5.7886,-5.7619,-5.674,0.3601,0.348,0.3118,0.095,0.0434,0.0087,-0.1129,-0.139,-0.1996,-0.3982,-0.6135,-0.8162,-0.9971,-1.1037,-1.2395,-1.4671,-1.6667,-1.8539,-2.0077,-2.1949,-2.4497,-2.8046,-2.9463,-3.17,-3.5839,-3.6294,-3.7141,-3.922,-3.9364,-3.9737,-4.0455,-4.0524,-4.0524,-4.0524,-4.1189,-4.1835,-4.2317,-4.341,-4.4243,-4.4708,-4.5194,-4.5423,-4.5423,-4.5955,-4.6459,-4.6908,-4.7378,-4.7856,-4.8306,-4.8306,-4.842,-4.8623,-4.8971,-4.922,-4.9427,-4.9693,-4.9803,-4.9784,-4.9784,-4.9968,-5.0206,-5.0206,-5.0486,-5.0793,-5.0793,-5.0938,-5.1121,-5.1181,-5.1257,-5.1323,-5.1386,-5.1394,-5.1394,-5.1394,-5.1394,-5.1394,-5.1394,-5.1394,-5.1394,-5.1394,-5.2097,-5.2669,-5.2621,-5.5422,-5.7614,-5.7416,-5.9624,-6.123,-6.1128,-6.1087,-6.104,-6.0902,-6.0901,-6.0817,-6.0613,-6.0589,-6.0553,-6.0417,-6.0389,-6.0389,-6.0389,-6.0389,-6.0389,-6.0389,-6.0389,-6.0389,-6.0389,-5.9529,-5.8689,-5.7886,-5.6988,-5.6167,0.3775,0.3687,0.3286,0.2156,0.1128,0.0,-0.1701,-0.1738,-0.2041,-0.4246,-0.6422,-0.848,-0.9838,-1.1617,-1.3347,-1.4754,-1.6667,-1.8434,-1.9837,-2.2012,-2.4414,-2.7158,-2.8797,-3.0905,-3.387,-3.4939,-3.6108,-3.771,-3.8517,-3.9349,-4.0331,-4.0331,-4.0539,-4.0935,-4.1122,-4.1868,-4.3152,-4.3426,-4.4013,-4.5052,-4.5177,-4.53,-4.5423,-4.5955,-4.6284,-4.6459,-4.723,-4.7674,-4.7856,-4.8307,-4.8532,-4.8569,-4.8855,-4.909,-4.9296,-4.9469,-4.9749,-5.0068,-5.0068,-5.0291,-5.0544,-5.0544,-5.0702,-5.0871,-5.0871,-5.1037,-5.1247,-5.1257,-5.1318,-5.1364,-5.1391,-5.1402,-5.1394,-5.1394,-5.1394,-5.1394,-5.1394,-5.1394,-5.1394,-5.1394,-5.1609,-5.1938,-5.2378,-5.4283,-5.6071,-5.7118,-5.8922,-6.0377,-6.096,-6.0865,-6.0798,-6.0882,-6.0773,-6.0661,-6.0589,-6.0501,-6.0453,-6.0389,-6.0389,-6.0389,-6.0389,-6.0389,-6.0389,-6.0389,-6.0389,-6.0389,-6.0389,-5.9529,-5.8689,-5.7886,-5.69,-5.5987,0.3246,0.309,0.2617,0.1393,0.0698,-0.0086,-0.1961,-0.2842,-0.3571,-0.5045,-0.7142,-0.9056,-1.0449,-1.2059,-1.3607,-1.4873,-1.6437,-1.7908,-1.9097,-2.1007,-2.3285,-2.5823,-2.7486,-2.9591,-3.2367,-3.382,-3.5402,-3.72,-3.8133,-3.9045,-4.0137,-4.0455,-4.0783,-4.1174,-4.1573,-4.2364,-4.3588,-4.3663,-4.4299,-4.5441,-4.5441,-4.5598,-4.5905,-4.6266,-4.6584,-4.6799,-4.7548,-4.7856,-4.7897,-4.8307,-4.8513,-4.8532,-4.899,-4.9227,-4.9405,-4.9776,-5.0106,-5.0399,-5.0399,-5.0586,-5.0775,-5.0775,-5.0866,-5.0971,-5.0971,-5.1122,-5.13,-5.131,-5.1347,-5.1394,-5.1394,-5.1394,-5.1394,-5.1394,-5.1394,-5.1394,-5.1394,-5.1362,-5.1327,-5.1327,-5.1284,-5.1362,-5.1746,-5.3476,-5.523,-5.6387,-5.8526,-6.022,-6.074,-6.0657,-6.0597,-6.0676,-6.0578,-6.0501,-6.0501,-6.0453,-6.0389,-6.0389,-6.0389,-6.0389,-6.0389,-6.0389,-6.0389,-6.0389,-6.0389,-6.0217,-5.9873,-5.9033,-5.8211,-5.7351,-5.6357,-5.5588,0.2159,0.1952,0.127,-0.0617,-0.0614,-0.0605,-0.2415,-0.4578,-0.6188,-0.6303,-0.801,-0.996,-1.1519,-1.2498,-1.3529,-1.4915,-1.5974,-1.7017,-1.8141,-1.9577,-2.157,-2.4246,-2.5893,-2.8016,-3.11,-3.283,-3.479,-3.7186,-3.7959,-3.8826,-3.9925,-4.0562,-4.1008,-4.1276,-4.219,-4.3064,-4.3781,-4.4105,-4.4725,-4.5684,-4.5684,-4.6038,-4.6572,-4.6835,-4.7248,-4.7738,-4.8153,-4.8364,-4.8402,-4.8402,-4.8495,-4.8678,-4.9271,-4.9561,-4.9754,-5.0421,-5.0663,-5.0683,-5.0702,-5.0793,-5.0902,-5.0917,-5.0995,-5.1114,-5.1114,-5.1192,-5.1309,-5.1308,-5.1347,-5.1394,-5.1394,-5.1394,-5.1394,-5.1394,-5.1394,-5.1394,-5.139,-5.1291,-5.1203,-5.1176,-5.1074,-5.0972,-5.0889,-5.2926,-5.4819,-5.558,-5.8291,-6.0307,-6.0365,-6.0441,-6.0472,-6.0417,-6.0389,-6.0389,-6.0389,-6.0389,-6.0389,-6.0389,-6.0389,-6.0389,-6.0389,-6.0389,-6.0389,-6.0389,-6.0313,-5.9892,-5.9109,-5.8184,-5.7344,-5.6496,-5.5474,-5.499,0.1409,0.0573,-0.0421,-0.0864,-0.2568,-0.4195,-0.454,-0.6453,-0.7994,-0.7397,-0.9212,-1.1257,-1.2492,-1.3451,-1.4307,-1.4999,-1.5906,-1.6862,-1.8141,-1.9329,-2.0958,-2.3446,-2.4623,-2.6253,-2.8874,-3.1278,-3.3525,-3.5591,-3.7298,-3.8708,-3.9696,-3.9895,-4.0424,-4.1276,-4.1541,-4.2348,-4.3781,-4.3706,-4.4128,-4.5032,-4.5032,-4.5511,-4.6376,-4.7062,-4.7816,-4.8549,-4.864,-4.8866,-4.9158,-4.9214,-4.929,-4.9386,-4.9589,-4.9838,-5.0092,-5.0249,-5.0464,-5.0721,-5.0827,-5.089,-5.0917,-5.0972,-5.1058,-5.1181,-5.118,-5.1264,-5.1372,-5.1387,-5.1396,-5.1394,-5.1394,-5.1394,-5.1394,-5.1394,-5.1394,-5.1367,-5.1278,-5.1211,-5.1159,-5.1063,-5.102,-5.0946,-5.0761,-5.2294,-5.4169,-5.6102,-5.7576,-5.8697,-5.9327,-5.9996,-6.0417,-6.0389,-6.0389,-6.0389,-6.0389,-6.0389,-6.0389,-6.0389,-6.0389,-6.0389,-6.0389,-6.0256,-6.0256,-6.0389,-5.9626,-5.9188,-5.9109,-5.751,-5.6492,-5.6,-5.4905,-5.4243,-0.061,-0.1204,-0.1822,-0.2287,-0.4219,-0.5809,-0.5217,-0.6929,-0.8634,-0.8813,-1.0549,-1.218,-1.2772,-1.3711,-1.4482,-1.4824,-1.5733,-1.687,-1.8141,-1.9107,-2.0371,-2.2174,-2.3677,-2.5148,-2.6728,-2.929,-3.1769,-3.4126,-3.5508,-3.6925,-3.8507,-3.8925,-3.9714,-4.1133,-4.1438,-4.2427,-4.4179,-4.4105,-4.4468,-4.539,-4.539,-4.5985,-4.7107,-4.7752,-4.8289,-4.8746,-4.8919,-4.9113,-4.9345,-4.9382,-4.9424,-4.9475,-4.9702,-4.9936,-5.0135,-5.0313,-5.0523,-5.0721,-5.0858,-5.0928,-5.0959,-5.1053,-5.1178,-5.1297,-5.131,-5.134,-5.1406,-5.14,-5.1408,-5.1394,-5.1394,-5.1357,-5.1297,-5.1297,-5.1297,-5.1291,-5.1211,-5.1113,-5.1035,-5.0959,-5.0874,-5.0748,-5.0625,-5.195,-5.3552,-5.5161,-5.6473,-5.7428,-5.7848,-5.8651,-5.9338,-5.9739,-5.9778,-5.995,-6.0351,-6.0007,-5.9778,-5.9778,-5.9415,-5.9158,-5.9054,-5.8889,-5.9079,-5.9674,-5.86,-5.7863,-5.7457,-5.6412,-5.5541,-5.4909,-5.4256,-5.3851,-0.2311,-0.2612,-0.3033,-0.4193,-0.5647,-0.6496,-0.5486,-0.6889,-0.8742,-0.9877,-1.1488,-1.2705,-1.2875,-1.3724,-1.4398,-1.465,-1.556,-1.6706,-1.798,-1.8957,-1.9923,-2.1051,-2.2787,-2.4206,-2.5001,-2.7459,-3.0144,-3.2709,-3.3776,-3.5121,-3.7142,-3.7897,-3.9089,-4.0687,-4.1482,-4.2634,-4.4292,-4.433,-4.4818,-4.5614,-4.5791,-4.6444,-4.751,-4.8089,-4.847,-4.88,-4.9085,-4.9321,-4.9483,-4.9483,-4.9483,-4.9541,-4.9865,-5.0012,-5.0135,-5.0483,-5.0664,-5.074,-5.0902,-5.0985,-5.1053,-5.1195,-5.1302,-5.1394,-5.1394,-5.1394,-5.1406,-5.1402,-5.1379,-5.1372,-5.1362,-5.1278,-5.1178,-5.1178,-5.117,-5.1152,-5.1152,-5.103,-5.0887,-5.0874,-5.072,-5.0562,-5.05,-5.1519,-5.2652,-5.3531,-5.4963,-5.6052,-5.6339,-5.7141,-5.7982,-5.8822,-5.8899,-5.9158,-5.977,-5.9178,-5.873,-5.873,-5.812,-5.7663,-5.7509,-5.7213,-5.7428,-5.8186,-5.73,-5.6402,-5.5601,-5.5205,-5.4576,-5.3758,-5.3626,-5.3547,-0.1468,-0.2547,-0.4195,-0.6002,-0.6728,-0.6733,-0.6351,-0.7369,-0.8647,-0.9629,-1.1238,-1.2711,-1.3743,-1.3997,-1.4243,-1.4398,-1.5235,-1.6304,-1.7577,-1.8718,-1.9775,-2.1051,-2.1935,-2.2917,-2.4357,-2.6832,-2.9209,-3.1302,-3.3307,-3.5116,-3.6567,-3.7212,-3.8245,-3.9799,-4.0951,-4.1921,-4.2961,-4.3355,-4.3638,-4.3767,-4.4654,-4.5319,-4.5846,-4.6786,-4.7916,-4.915,-4.9182,-4.9589,-5.024,-5.012,-5.0193,-5.0352,-5.0329,-5.0371,-5.044,-5.0606,-5.0735,-5.0819,-5.107,-5.118,-5.1195,-5.1327,-5.139,-5.1394,-5.1394,-5.1398,-5.1391,-5.1404,-5.133,-5.1229,-5.1242,-5.1132,-5.1031,-5.1031,-5.0985,-5.0942,-5.0942,-5.0917,-5.0874,-5.074,-5.0604,-5.05,-5.0435,-5.0539,-5.0932,-5.1811,-5.2728,-5.3855,-5.5365,-5.6262,-5.7103,-5.7963,-5.8058,-5.7901,-5.7573,-5.7428,-5.7371,-5.7371,-5.7149,-5.7059,-5.7169,-5.6214,-5.5598,-5.5455,-5.5545,-5.5524,-5.5265,-5.4354,-5.3699,-5.3293,-5.3138,-5.2937,-0.2781,-0.3681,-0.4956,-0.6425,-0.68,-0.6742,-0.6522,-0.732,-0.8256,-0.8813,-1.0355,-1.2094,-1.3594,-1.4004,-1.4166,-1.4398,-1.5137,-1.5959,-1.6683,-1.8149,-1.9362,-2.007,-2.1441,-2.2723,-2.3452,-2.5553,-2.7703,-2.9726,-3.1184,-3.2774,-3.4594,-3.4991,-3.5984,-3.7875,-3.844,-3.9616,-4.1591,-4.2307,-4.3203,-4.4351,-4.5185,-4.5663,-4.5844,-4.6443,-4.7203,-4.8058,-4.8258,-4.8587,-4.893,-4.8884,-4.8936,-4.9085,-4.8977,-4.9084,-4.9271,-4.9251,-4.9641,-5.0215,-5.0393,-5.0786,-5.1218,-5.1357,-5.1394,-5.1394,-5.1394,-5.1363,-5.1338,-5.1308,-5.123,-5.1139,-5.1102,-5.1016,-5.0932,-5.0932,-5.0851,-5.0775,-5.0739,-5.0757,-5.0739,-5.0604,-5.0542,-5.0478,-5.0348,-5.0325,-5.0436,-5.0818,-5.1601,-5.2403,-5.3168,-5.4409,-5.5465,-5.6102,-5.6587,-5.6858,-5.6817,-5.6368,-5.6071,-5.6037,-5.55,-5.5221,-5.5205,-5.4689,-5.426,-5.3861,-5.4023,-5.4044,-5.3964,-5.335,-5.2993,-5.2813,-5.2735,-5.2618,-0.3727,-0.4254,-0.4798,-0.5933,-0.6334,-0.6407,-0.6505,-0.7064,-0.7721,-0.8066,-0.9284,-1.0805,-1.2409,-1.3323,-1.3904,-1.3964,-1.488,-1.5703,-1.5869,-1.7577,-1.8948,-1.9256,-2.1038,-2.2403,-2.3073,-2.4529,-2.6283,-2.8358,-2.9129,-3.0628,-3.3118,-3.3087,-3.4166,-3.6689,-3.6749,-3.7883,-4.0303,-4.1457,-4.2959,-4.4894,-4.5413,-4.5732,-4.5904,-4.6175,-4.6428,-4.6746,-4.7295,-4.7671,-4.7846,-4.7826,-4.7932,-4.8065,-4.7971,-4.8065,-4.8285,-4.8227,-4.871,-4.9411,-4.9543,-5.0025,-5.062,-5.0945,-5.1027,-5.1066,-5.1281,-5.1299,-5.1238,-5.1181,-5.1095,-5.1039,-5.0992,-5.0908,-5.0841,-5.0841,-5.0776,-5.0682,-5.0623,-5.0643,-5.0643,-5.0521,-5.05,-5.0457,-5.0325,-5.0302,-5.0302,-5.0302,-5.0856,-5.1353,-5.1582,-5.2787,-5.3865,-5.4438,-5.5151,-5.5626,-5.5772,-5.5156,-5.4746,-5.469,-5.4056,-5.3645,-5.3567,-5.3547,-5.3304,-5.2868,-5.2919,-5.2919,-5.2868,-5.2672,-5.2554,-5.2498,-5.2498,-5.2498,-0.327,-0.3263,-0.3368,-0.4641,-0.5268,-0.5655,-0.6341,-0.6664,-0.6976,-0.778,-0.8145,-0.8684,-0.9786,-1.1823,-1.3258,-1.2832,-1.43,-1.547,-1.5703,-1.7245,-1.8621,-1.9256,-2.0294,-2.1756,-2.3599,-2.4181,-2.5392,-2.7564,-2.7973,-2.9621,-3.3013,-3.2576,-3.3802,-3.7156,-3.7069,-3.7653,-3.8988,-4.0998,-4.2755,-4.4269,-4.4355,-4.4732,-4.5356,-4.5552,-4.5661,-4.572,-4.6719,-4.7476,-4.7991,-4.7914,-4.8046,-4.8269,-4.8288,-4.828,-4.8313,-4.8428,-4.8516,-4.8586,-4.8711,-4.8794,-4.8978,-4.979,-5.0028,-5.0129,-5.0949,-5.1167,-5.1103,-5.112,-5.1006,-5.0913,-5.0909,-5.081,-5.0702,-5.0702,-5.0663,-5.0623,-5.0683,-5.0643,-5.0582,-5.0521,-5.05,-5.0457,-5.0325,-5.0302,-5.0302,-5.0302,-5.034,-5.0665,-5.1505,-5.206,-5.2722,-5.3575,-5.4011,-5.4035,-5.3598,-5.3404,-5.3326,-5.3285,-5.3115,-5.3115,-5.323,-5.3096,-5.2868,-5.2544,-5.2544,-5.2544,-5.2544,-5.2498,-5.2498,-5.2498,-5.2498,-5.2498,-0.3601,-0.3568,-0.3415,-0.4065,-0.5074,-0.5744,-0.5526,-0.6094,-0.6767,-0.7037,-0.75,-0.7953,-0.8053,-0.9861,-1.1554,-1.223,-1.285,-1.3579,-1.4538,-1.5786,-1.6838,-1.7317,-1.8364,-1.9631,-2.1181,-2.2371,-2.3883,-2.5864,-2.7459,-2.9228,-3.1214,-3.1842,-3.2885,-3.4613,-3.4952,-3.6181,-3.844,-4.0226,-4.1937,-4.363,-4.3813,-4.4383,-4.5243,-4.54,-4.551,-4.5635,-4.5975,-4.6282,-4.6522,-4.6507,-4.6617,-4.6809,-4.6739,-4.6795,-4.695,-4.6899,-4.7271,-4.7793,-4.7855,-4.8228,-4.8747,-4.9016,-4.9464,-4.9948,-5.0212,-5.0635,-5.1029,-5.0977,-5.0873,-5.076,-5.0776,-5.0586,-5.0358,-5.0336,-5.0225,-5.0174,-5.0225,-5.0396,-5.0521,-5.0457,-5.0435,-5.0348,-5.0032,-4.9981,-4.9981,-4.9981,-4.9803,-4.9843,-5.0373,-5.1338,-5.1976,-5.1977,-5.3013,-5.351,-5.295,-5.282,-5.2795,-5.2725,-5.269,-5.269,-5.2743,-5.2672,-5.2618,-5.2498,-5.2498,-5.2498,-5.2498,-5.2498,-5.2498,-5.2498,-5.2498,-5.2498,-0.3041,-0.2946,-0.276,-0.2905,-0.3675,-0.4542,-0.4735,-0.538,-0.6111,-0.6453,-0.6944,-0.7141,-0.7008,-0.8037,-0.9433,-1.0799,-1.1254,-1.1893,-1.3086,-1.4241,-1.5153,-1.6006,-1.7384,-1.8786,-2.009,-2.1694,-2.325,-2.4459,-2.671,-2.8525,-2.9812,-3.0954,-3.2259,-3.3652,-3.4513,-3.609,-3.8411,-3.9839,-4.1354,-4.3007,-4.3574,-4.4247,-4.4978,-4.5411,-4.5665,-4.5742,-4.5775,-4.5796,-4.5803,-4.5801,-4.5919,-4.6052,-4.5979,-4.6036,-4.6187,-4.6074,-4.6436,-4.6962,-4.6943,-4.7294,-4.7805,-4.8049,-4.8515,-4.9038,-4.9478,-4.9931,-5.0375,-5.0643,-5.0623,-5.0527,-5.0525,-5.0272,-4.9974,-4.9898,-4.9792,-4.9738,-4.9765,-5.0038,-5.0264,-5.0081,-5.0057,-4.9962,-4.9702,-4.9627,-4.9627,-4.9627,-4.9453,-4.9394,-4.9599,-5.0522,-5.1164,-5.1102,-5.2149,-5.2784,-5.2617,-5.2563,-5.2554,-5.2498,-5.2498,-5.2498,-5.2498,-5.2498,-5.2498,-5.2498,-5.2498,-5.2498,-5.2498,-5.2498,-5.2498,-5.2498,-5.2498,-5.2498,0.0,0.0,0.0,-0.0954,-0.1055,-0.177,-0.3948,-0.443,-0.4772,-0.5957,-0.621,-0.629,-0.6625,-0.6583,-0.7006,-0.847,-0.9552,-1.0519,-1.1496,-1.2593,-1.3794,-1.5325,-1.7337,-1.9182,-2.0515,-2.2328,-2.3419,-2.3419,-2.5591,-2.7507,-2.8895,-3.0045,-3.1916,-3.4605,-3.6001,-3.7395,-3.8852,-3.9849,-4.1059,-4.2392,-4.3503,-4.4179,-4.4506,-4.5512,-4.5949,-4.5991,-4.613,-4.6119,-4.6008,-4.5994,-4.6079,-4.6195,-4.6208,-4.6191,-4.6186,-4.6119,-4.6098,-4.6091,-4.6016,-4.5956,-4.6028,-4.6881,-4.7115,-4.7352,-4.8702,-4.9022,-4.9127,-5.001,-5.0214,-5.0145,-5.0183,-4.9879,-4.9542,-4.9435,-4.9375,-4.9375,-4.9283,-4.9599,-4.9765,-4.9464,-4.9405,-4.9375,-4.9283,-4.9302,-4.9302,-4.9302,-4.9302,-4.9252,-4.9283,-4.9642,-5.0176,-5.1009,-5.1339,-5.1809,-5.2536,-5.2554,-5.2498,-5.2498,-5.2498,-5.2498,-5.2498,-5.2498,-5.2498,-5.2498,-5.2498,-5.2498,-5.2498,-5.2498,-5.2498,-5.2498,-5.2498,-5.2498,-0.2126,0.0,0.0,0.0,0.0,0.0,-0.1864,-0.2177,-0.3016,-0.4787,-0.473,-0.4777,-0.6323,-0.6656,-0.6815,-0.7184,-0.8141,-0.9213,-1.0659,-1.0997,-1.1502,-1.2875,-1.3894,-1.5312,-1.7345,-1.9335,-2.0964,-2.2121,-2.4095,-2.6108,-2.816,-3.0793,-3.2876,-3.4381,-3.5588,-3.6873,-3.8314,-3.9219,-4.0419,-4.1818,-4.2244,-4.2873,-4.3742,-4.4647,-4.5118,-4.5235,-4.5908,-4.6113,-4.6015,-4.6104,-4.618,-4.6209,-4.6143,-4.614,-4.6138,-4.6111,-4.6065,-4.6016,-4.5941,-4.5912,-4.5886,-4.5896,-4.6313,-4.6819,-4.6918,-4.7334,-4.7952,-4.8846,-4.8979,-4.8988,-4.939,-4.9363,-4.9227,-4.915,-4.9034,-4.8949,-4.8934,-4.9034,-4.9145,-4.9283,-4.9314,-4.9252,-4.8982,-4.8934,-4.8934,-4.8934,-4.8746,-4.8676,-4.89,-4.927,-4.979,-5.0515,-5.1121,-5.1782,-5.2454,-5.248,-5.2498,-5.2498,-5.2498,-5.2498,-5.2498,-5.2498,-5.2498,-5.2498,-5.2498,-5.2498,-5.2498,-5.2498,-5.2498,-5.2498,-5.2498,-5.2498,-0.1972,-0.1643,-0.119,0.013,0.0,0.0,-0.0838,-0.1343,-0.2375,-0.424,-0.43,-0.4453,-0.6205,-0.6123,-0.588,-0.5936,-0.6404,-0.7442,-0.9242,-0.9412,-0.9892,-1.1084,-1.2167,-1.3206,-1.4396,-1.6455,-1.8181,-1.9428,-2.152,-2.4408,-2.8066,-3.0661,-3.2609,-3.399,-3.4848,-3.6122,-3.7822,-3.8683,-3.9785,-4.1097,-4.1635,-4.2221,-4.2905,-4.4172,-4.4608,-4.4429,-4.56,-4.5869,-4.5488,-4.5839,-4.6,-4.603,-4.5955,-4.5909,-4.5862,-4.5947,-4.5898,-4.5827,-4.5794,-4.5752,-4.5692,-4.5361,-4.5609,-4.5967,-4.593,-4.6207,-4.6814,-4.805,-4.856,-4.8802,-4.9033,-4.8952,-4.8837,-4.8713,-4.8641,-4.8586,-4.8586,-4.8586,-4.8658,-4.8832,-4.8881,-4.8832,-4.8623,-4.8586,-4.8586,-4.8569,-4.8364,-4.8344,-4.8532,-4.8689,-4.9177,-5.0289,-5.0726,-5.1357,-5.2408,-5.2498,-5.2498,-5.2498,-5.2498,-5.2498,-5.2498,-5.2275,-5.2114,-5.2114,-5.1884,-5.1866,-5.2114,-5.2387,-5.2498,-5.2498,-5.2498,-5.2498,-0.1196,-0.0858,-0.0419,0.0845,0.1133,0.0,-0.0302,-0.108,-0.2035,-0.3691,-0.3894,-0.4178,-0.5474,-0.49,-0.4281,-0.4291,-0.4398,-0.5292,-0.7346,-0.7819,-0.8453,-0.9688,-1.1213,-1.2132,-1.1969,-1.3851,-1.5447,-1.6071,-1.8962,-2.2846,-2.7799,-2.9832,-3.1693,-3.339,-3.4007,-3.5343,-3.75,-3.8235,-3.9218,-4.0431,-4.1393,-4.1883,-4.202,-4.3724,-4.41,-4.3481,-4.5015,-4.523,-4.4547,-4.5208,-4.5576,-4.5793,-4.5719,-4.5592,-4.5526,-4.5684,-4.5658,-4.5543,-4.5543,-4.5472,-4.5342,-4.5099,-4.4966,-4.4962,-4.5367,-4.5415,-4.5672,-4.7379,-4.8415,-4.8954,-4.881,-4.8641,-4.8457,-4.8267,-4.8267,-4.8306,-4.8306,-4.8267,-4.8229,-4.821,-4.8249,-4.8267,-4.821,-4.8267,-4.8286,-4.8226,-4.8148,-4.809,-4.8187,-4.7966,-4.8423,-4.998,-5.0061,-5.0597,-5.2069,-5.2268,-5.2322,-5.2387,-5.2387,-5.2387,-5.2387,-5.1884,-5.1551,-5.15,-5.0964,-5.0964,-5.15,-5.2114,-5.2434,-5.2498,-5.2434,-5.2387,0.006,0.0119,0.0413,0.1144,0.1381,0.0,0.1168,0.1551,0.1378,-0.0458,0.0078,0.0317,-0.1541,-0.1376,-0.0974,-0.0831,-0.1805,-0.3236,-0.5328,-0.574,-0.6505,-0.8229,-0.9135,-0.9984,-1.0789,-1.2056,-1.3332,-1.4656,-1.9463,-2.2849,-2.407,-2.8372,-3.1338,-3.2507,-3.3387,-3.5064,-3.7658,-3.7863,-3.8836,-4.0565,-4.0824,-4.1031,-4.117,-4.2168,-4.2451,-4.2207,-4.3226,-4.3478,-4.3197,-4.3777,-4.4685,-4.5705,-4.5603,-4.5522,-4.5488,-4.5416,-4.5342,-4.5266,-4.5227,-4.4985,-4.4697,-4.4619,-4.439,-4.4138,-4.4228,-4.4183,-4.4471,-4.6052,-4.7104,-4.7773,-4.7952,-4.8249,-4.8363,-4.7856,-4.8035,-4.8306,-4.8306,-4.7995,-4.7715,-4.7614,-4.7977,-4.8172,-4.7816,-4.8032,-4.8226,-4.8187,-4.7733,-4.753,-4.7992,-4.756,-4.7617,-4.8596,-4.9105,-4.9572,-5.0148,-5.0733,-5.126,-5.1719,-5.1786,-5.1786,-5.1786,-5.1669,-5.1381,-5.0858,-5.0751,-5.0751,-5.0858,-5.1482,-5.2048,-5.2498,-5.2,-5.1786,0.0494,0.0416,0.0576,0.1233,0.1465,0.0,0.0,0.1509,0.1196,0.0072,0.0444,0.0678,-0.0457,-0.0154,0.0468,0.0959,-0.0161,-0.1202,-0.1502,-0.3672,-0.5747,-0.716,-0.787,-0.8336,-0.8644,-0.9321,-1.0627,-1.2674,-1.791,-2.1092,-2.1409,-2.5972,-2.907,-3.0029,-3.1842,-3.4173,-3.7094,-3.7389,-3.8568,-4.0602,-4.0677,-4.0739,-4.0832,-4.1602,-4.1662,-4.121,-4.2372,-4.2574,-4.2148,-4.2781,-4.3638,-4.4577,-4.481,-4.4862,-4.4815,-4.4912,-4.4721,-4.4461,-4.4575,-4.4312,-4.397,-4.4002,-4.3712,-4.3364,-4.349,-4.3629,-4.3907,-4.4558,-4.5669,-4.667,-4.6759,-4.7217,-4.7627,-4.7335,-4.7421,-4.7591,-4.7506,-4.7335,-4.7035,-4.6653,-4.6999,-4.7281,-4.7044,-4.723,-4.7396,-4.7291,-4.6945,-4.6855,-4.7097,-4.6827,-4.6962,-4.7791,-4.8121,-4.8614,-4.9521,-4.9961,-5.0453,-5.1121,-5.1157,-5.1157,-5.1157,-5.0893,-5.0477,-4.9838,-4.9855,-5.0011,-5.0293,-5.0624,-5.107,-5.1601,-5.1312,-5.1157,0.1138,0.0843,0.0861,0.1408,0.163,0.1629,0.0,0.0,0.0,0.0206,0.0351,0.0429,0.0285,0.0941,0.1773,0.2487,0.1462,0.093,0.1902,-0.1345,-0.4261,-0.5271,-0.6562,-0.7012,-0.6233,-0.6542,-0.8015,-1.0795,-1.5219,-1.835,-1.9758,-2.3821,-2.6729,-2.8084,-3.0615,-3.3372,-3.6434,-3.7185,-3.855,-4.0564,-4.0485,-4.0447,-4.047,-4.1027,-4.086,-4.0226,-4.1245,-4.136,-4.0918,-4.1403,-4.1974,-4.2632,-4.3602,-4.3986,-4.4072,-4.4186,-4.3968,-4.3632,-4.3757,-4.3532,-4.3201,-4.3208,-4.2996,-4.2754,-4.2923,-4.3188,-4.3414,-4.3388,-4.4335,-4.5434,-4.5517,-4.6087,-4.6621,-4.6671,-4.6753,-4.6799,-4.6689,-4.6595,-4.6358,-4.5767,-4.5933,-4.6161,-4.624,-4.6466,-4.6548,-4.6358,-4.6213,-4.6147,-4.6262,-4.6067,-4.6245,-4.6976,-4.7136,-4.763,-4.8766,-4.9096,-4.9569,-5.029,-5.0465,-5.0552,-5.0552,-5.0028,-4.9496,-4.9001,-4.9001,-4.9229,-4.9732,-4.9732,-5.0085,-5.0697,-5.0589,-5.0552,0.295,0.2225,0.188,0.2132,0.229,0.2302,0.2059,0.0,0.1887,0.1822,0.0,0.3044,0.3316,0.0,0.0,0.5309,0.4368,0.3301,0.279,0.1536,0.0305,-0.0699,-0.4221,-0.5885,-0.4288,-0.4567,-0.6303,-0.9766,-1.1647,-1.482,-1.9726,-2.3162,-2.6367,-2.932,-3.1315,-3.3611,-3.6289,-3.7691,-3.9069,-4.0411,-3.9839,-3.9547,-3.9547,-3.9444,-3.9263,-3.8973,-3.8607,-3.8641,-3.8979,-3.8575,-3.8866,-3.972,-4.1849,-4.3204,-4.3831,-4.3137,-4.3156,-4.3351,-4.2776,-4.251,-4.2429,-4.2293,-4.2311,-4.2346,-4.2248,-4.2297,-4.2465,-4.3059,-4.344,-4.3886,-4.4701,-4.5293,-4.5709,-4.5793,-4.631,-4.6689,-4.6495,-4.6227,-4.59,-4.5597,-4.5337,-4.5302,-4.5699,-4.6098,-4.6358,-4.631,-4.58,-4.5614,-4.6049,-4.5699,-4.5442,-4.5528,-4.6185,-4.6488,-4.6192,-4.7376,-4.8377,-4.9003,-4.9625,-4.9988,-4.9988,-4.9436,-4.9063,-4.9001,-4.9001,-4.9063,-4.9107,-4.9107,-4.9639,-5.0697,-5.0181,-4.9988,0.3529,0.3521,0.377,0.3113,0.3585,0.396,0.3086,0.2806,0.2749,0.2656,0.0,0.0,0.0,0.0,0.0,0.0,0.4454,0.3828,0.3991,0.21,0.0439,-0.023,-0.1611,-0.2809,-0.344,-0.3884,-0.5846,-0.9806,-1.0453,-1.266,-1.7126,-2.1208,-2.4129,-2.5485,-2.9637,-3.2962,-3.5169,-3.7367,-3.9056,-4.0272,-3.968,-3.9335,-3.918,-3.7937,-3.7275,-3.7136,-3.645,-3.6352,-3.6643,-3.7166,-3.7665,-3.8248,-3.9353,-4.0568,-4.17,-4.173,-4.1658,-4.1584,-4.1358,-4.1084,-4.0723,-4.0453,-4.1046,-4.1725,-4.0978,-4.0984,-4.129,-4.1666,-4.205,-4.2532,-4.3467,-4.4123,-4.4694,-4.5165,-4.5511,-4.5649,-4.5528,-4.539,-4.5213,-4.4998,-4.4869,-4.4831,-4.4998,-4.5249,-4.5407,-4.5302,-4.5052,-4.4961,-4.5196,-4.5052,-4.4906,-4.4906,-4.5213,-4.5478,-4.5669,-4.6278,-4.7106,-4.8192,-4.8984,-4.9394,-4.9394,-4.9063,-4.8894,-4.9001,-4.894,-4.8894,-4.9001,-4.9001,-4.9273,-4.9681,-4.9496,-4.9394,0.5387,0.5494,0.5607,0.4089,0.4238,0.4461,0.3474,0.2942,0.2567,0.2465,0.2566,0.0,0.0,0.0,0.401,0.4565,0.0,0.3927,0.4655,0.2857,0.0,0.0,0.0,0.0081,-0.2148,-0.192,-0.3881,-0.9,-0.8852,-1.0887,-1.6193,-2.0052,-2.258,-2.3529,-2.8613,-3.229,-3.4318,-3.6983,-3.8877,-3.9938,-3.9168,-3.8534,-3.7991,-3.647,-3.5571,-3.5173,-3.4482,-3.4308,-3.461,-3.5396,-3.5857,-3.6103,-3.6688,-3.7508,-3.848,-3.963,-4.0012,-3.9917,-3.9832,-3.9581,-3.9301,-3.909,-3.9784,-4.0556,-3.9732,-3.9714,-4.002,-4.0254,-4.0695,-4.1274,-4.2244,-4.2858,-4.3464,-4.4337,-4.4606,-4.4631,-4.4406,-4.4592,-4.472,-4.4367,-4.444,-4.4587,-4.4587,-4.4682,-4.4737,-4.4626,-4.4587,-4.4587,-4.4587,-4.457,-4.4514,-4.457,-4.457,-4.4733,-4.5274,-4.5771,-4.6633,-4.8122,-4.8714,-4.9001,-4.9001,-4.8894,-4.8849,-4.894,-4.8832,-4.8832,-4.8956,-4.8956,-4.8956,-4.8956,-4.9001,-4.9001,0.9628,0.8324,0.7277,0.4973,0.3693,0.299,0.2624,0.1851,0.1138,0.1047,0.1414,0.1867,0.2201,0.0,0.0,0.0,0.0,0.0,0.0,0.0,0.0,0.0,0.0,0.0,0.0,0.2367,0.0841,-0.6535,-0.5967,-0.9379,-1.8759,-2.0475,-2.2635,-2.598,-2.9204,-3.1956,-3.4164,-3.6801,-3.8515,-3.9318,-3.7919,-3.6591,-3.5317,-3.5103,-3.4339,-3.3159,-3.2621,-3.2704,-3.3136,-3.2751,-3.2499,-3.2639,-3.409,-3.4403,-3.4234,-3.6745,-3.8202,-3.8854,-3.8212,-3.8141,-3.839,-3.8799,-3.8854,-3.8745,-3.8613,-3.8652,-3.8854,-3.9315,-3.9558,-3.9915,-4.1121,-4.1516,-4.1872,-4.3009,-4.3545,-4.3722,-4.3426,-4.4105,-4.4536,-4.3706,-4.4105,-4.4587,-4.4587,-4.457,-4.457,-4.4587,-4.4587,-4.4587,-4.4587,-4.444,-4.4367,-4.457,-4.444,-4.431,-4.4344,-4.5848,-4.7378,-4.8883,-4.8984,-4.9001,-4.9001,-4.8894,-4.8786,-4.8786,-4.8786,-4.8786,-4.8786,-4.8786,-4.8786,-4.8786,-4.8956,-4.9001,1.1585,1.1975,1.181,0.8393,0.8275,0.8085,0.4731,0.3416,0.2845,0.2493,0.2505,0.2629,0.3067,0.0,0.0,0.0,0.0,0.0,0.0,0.0,0.0,0.0,0.0,0.0,0.0,0.0,-0.119,-0.6965,-0.757,-1.0716,-1.7797,-1.9667,-2.1496,-2.3542,-2.8109,-3.1286,-3.2853,-3.6315,-3.8143,-3.8344,-3.6705,-3.529,-3.4038,-3.2593,-3.1506,-3.07,-3.0132,-3.0028,-3.0205,-3.0566,-3.0816,-3.1037,-3.212,-3.243,-3.2566,-3.5126,-3.6276,-3.6474,-3.6091,-3.6075,-3.6184,-3.6075,-3.6763,-3.7572,-3.72,-3.7716,-3.843,-3.8564,-3.8652,-3.8942,-3.9781,-4.0279,-4.0798,-4.1531,-4.2309,-4.2769,-4.252,-4.2831,-4.3075,-4.2769,-4.2909,-4.3092,-4.3092,-4.3152,-4.3545,-4.444,-4.3798,-4.3486,-4.431,-4.3931,-4.3814,-4.4212,-4.431,-4.431,-4.431,-4.5715,-4.6793,-4.7299,-4.8276,-4.8894,-4.8894,-4.869,-4.8627,-4.8627,-4.85,-4.85,-4.8627,-4.8627,-4.8627,-4.8627,-4.8673,-4.8753,1.4689,1.5158,1.5056,1.2398,1.191,1.1088,0.743,0.582,0.4883,0.4501,0.3704,0.3735,0.5793,0.4804,0.0,0.0,0.0,0.0,0.0,0.4255,0.0,0.0,0.0,0.0,0.0,0.0,0.0,0.0,0.0,0.0,-1.5276,-1.6473,-1.6759,-1.6384,-2.3117,-2.517,-2.1871,-3.1271,-3.4621,-3.1864,-3.38,-3.3928,-3.2499,-3.0687,-2.9232,-2.8174,-2.7866,-2.7459,-2.6969,-2.8037,-2.8339,-2.8329,-2.9581,-3.0047,-3.0353,-3.3073,-3.4225,-3.4493,-3.4626,-3.4662,-3.4684,-3.4403,-3.4976,-3.5843,-3.5507,-3.5965,-3.6812,-3.7587,-3.7626,-3.7727,-3.8898,-3.9461,-3.9875,-4.04,-4.1183,-4.1755,-4.1559,-4.1869,-4.2141,-4.1885,-4.2013,-4.2189,-4.2189,-4.2078,-4.2395,-4.3604,-4.3031,-4.2769,-4.3469,-4.3366,-4.3383,-4.368,-4.3948,-4.4181,-4.4206,-4.5047,-4.5673,-4.6046,-4.7054,-4.7701,-4.7901,-4.8,-4.8198,-4.8381,-4.8279,-4.8279,-4.8381,-4.8132,-4.8,-4.8,-4.8,-4.8211]}]]